Date StartTime U_cm/s V_cm/s W_cm/s Ustd_cm/s Vstd_cm/s Wstd_cm/s Uvar_(cm/s)^2 Vvar_(cm/s)^2 Wvar_(cm/s)^2 KE_(m/s)^2 TurbulentKE_(m/s)^2 HorizWindSpeed_cm/s FrictionSpeec_cm/s DragCoef SpeedOfSound_m/s SonicTemperature_C Pressure_mb 
09/27/2014  00:00:00     -202.633       49.431      -31.602       63.337       69.200       30.672     4011.525     4788.589      940.752        2.712        0.487      208.575       27.227        0.017      338.493       11.179      858.033
09/27/2014  00:01:00     -219.791      -14.085      -27.965       82.866       75.056       37.848     6866.738     5633.409     1432.459        3.161        0.697      220.242       34.609        0.025      338.436       11.082      857.996
09/27/2014  00:02:00     -128.424       82.635      -22.403       47.032      131.835       39.272     2212.038    17380.463     1542.316        2.248        1.057      152.713       42.000        0.076      338.482       11.161      857.966
09/27/2014  00:03:00      -99.348       31.279      -11.373       85.037       75.173       46.553     7231.333     5651.001     2167.147        1.301        0.752      104.156       52.463        0.254      338.486       11.170      857.949
09/27/2014  00:04:00     -152.987       12.805       -6.130       83.317       85.042       43.690     6941.647     7232.130     1908.809        1.984        0.804      153.522       41.082        0.072      338.496       11.184      857.948
09/27/2014  00:05:00     -234.318      -52.818       -4.226      109.263       91.374       54.897    11938.355     8349.261     3013.649        4.050        1.165      240.197       56.706        0.056      338.451       11.107      857.942
09/27/2014  00:06:00     -201.533      -19.643      -34.760       63.635       65.527       40.037     4049.361     4293.738     1602.936        2.608        0.497      202.488       31.006        0.023      338.462       11.127      857.942
09/27/2014  00:07:00     -214.152      -86.742      -11.583       80.703       82.807       54.390     6513.052     6857.055     2958.302        3.492        0.816      231.053       38.188        0.027      338.440       11.089      857.948
09/27/2014  00:08:00     -175.098      -56.052       -8.084       62.777       72.363       35.638     3940.963     5236.364     1270.055        2.216        0.522      183.850       25.277        0.019      338.466       11.136      857.952
09/27/2014  00:09:00     -202.940      -57.133       -9.075      139.666       78.845       61.685    19506.572     6216.500     3805.053        3.702        1.476      210.829       68.951        0.107      338.521       11.226      857.945
09/27/2014  00:10:00     -273.715      -28.935      -21.569       91.107      103.132       58.785     8300.413    10636.298     3455.636        4.930        1.120      275.240       55.496        0.041      338.534       11.248      857.929
09/27/2014  00:11:00     -188.072      -78.690        5.563      113.444       69.218       34.916    12869.504     4791.188     1219.125        3.023        0.944      203.870       46.529        0.052      338.571       11.310      857.924
09/27/2014  00:12:00     -185.505        6.350      -11.364       62.762       55.054       35.861     3939.112     3030.963     1286.022        2.142        0.413      185.614       34.396        0.034      338.544       11.266      857.944
09/27/2014  00:13:00     -217.864       28.395      -17.259      107.797       90.138       48.942    11620.110     8124.821     2395.288        3.535        1.107      219.706       52.957        0.058      338.543       11.263      857.952
09/27/2014  00:14:00     -270.206      -41.299      -25.829      115.385       71.750       42.134    13313.714     5148.027     1775.259        4.781        1.012      273.344       48.191        0.031      338.531       11.244      857.971
09/27/2014  00:15:00     -130.731      -21.475      -26.079       55.277       60.126       39.008     3055.506     3615.192     1521.635        1.321        0.410      132.483       19.148        0.021      338.504       11.200      857.993
09/27/2014  00:16:00     -184.834      -38.008      -12.994       73.265       51.153       46.128     5367.741     2616.677     2127.825        2.294        0.506      188.701       24.493        0.017      338.424       11.064      858.004
09/27/2014  00:17:00     -171.516      -21.038      -21.292       64.338       67.503       32.635     4139.323     4556.667     1065.033        2.004        0.488      172.802       24.502        0.020      338.385       11.001      858.024
09/27/2014  00:18:00     -171.645      -37.630       -7.391       53.006       56.177       26.954     2809.589     3155.847      726.512        1.881        0.335      175.722       25.083        0.020      338.446       11.102      858.021
09/27/2014  00:19:00     -168.298      -29.389      -19.275       77.967       69.184       36.869     6078.907     4786.385     1359.307        2.089        0.611      170.845       41.172        0.058      338.407       11.035      858.027
09/27/2014  00:20:00     -199.679     -109.081       -8.506       67.355       47.428       32.958     4536.638     2249.379     1086.241        2.986        0.394      227.531       22.547        0.010      338.395       11.015      858.031
09/27/2014  00:21:00     -237.409      -76.414       -4.578      111.810       83.995       46.268    12501.517     7055.187     2140.741        4.196        1.085      249.404       41.441        0.028      338.489       11.173      858.027
09/27/2014  00:22:00     -245.491       -4.296       -7.662      109.925       72.147       45.969    12083.592     5205.238     2113.112        3.987        0.970      245.528       58.643        0.057      338.511       11.209      858.044
09/27/2014  00:23:00     -142.842        5.497       -6.221       79.912       60.361       40.234     6385.967     3643.463     1618.746        1.606        0.582      142.948       35.490        0.062      338.550       11.276      858.055
09/27/2014  00:24:00     -280.588      -35.759      -26.026      111.564      101.170       45.433    12446.553    10235.443     2064.179        5.271        1.237      282.857       34.700        0.015      338.472       11.142      858.088
09/27/2014  00:25:00     -258.163        4.092       -9.596       82.572      104.155       49.951     6818.175    10848.268     2495.142        4.346        1.008      258.195       49.194        0.036      338.445       11.098      858.106
09/27/2014  00:26:00     -355.559     -100.168       -2.843      125.937       90.727       49.379    15860.157     8231.314     2438.289        8.149        1.326      369.399       44.623        0.015      338.450       11.105      858.121
09/27/2014  00:27:00     -207.949        7.933      -18.110       70.150       68.224       37.626     4921.059     4654.488     1415.727        2.731        0.550      208.100       35.416        0.029      338.434       11.078      858.159
09/27/2014  00:28:00     -375.540      -50.536      -30.981       74.929       88.519       46.842     5614.349     7835.552     2194.161        8.009        0.782      378.925       43.919        0.013      338.349       10.938      858.177
09/27/2014  00:29:00     -252.157      -55.745      -13.388       83.804       91.164       50.765     7023.063     8310.937     2577.115        4.239        0.896      258.245       46.066        0.032      338.364       10.961      858.178
09/27/2014  00:30:00     -246.418      -58.969      -19.841       70.026       54.342       45.285     4903.613     2953.093     2050.698        3.725        0.495      253.376       38.125        0.023      338.358       10.951      858.175
09/27/2014  00:31:00     -167.063      -49.257        1.563      106.480       85.642       47.237    11337.904     7334.583     2231.381        2.562        1.045      174.174       53.540        0.094      338.380       10.991      858.165
09/27/2014  00:32:00     -135.995      -60.286       -0.825       81.328       59.301       40.098     6614.217     3516.647     1607.877        1.693        0.587      148.758       40.324        0.073      338.419       11.058      858.163
09/27/2014  00:33:00     -132.012      -80.728        0.636       63.211       52.716       32.207     3995.597     2779.015     1037.323        1.588        0.391      154.739       35.129        0.052      338.440       11.093      858.162
09/27/2014  00:34:00     -137.999      -35.124        8.286       83.237       57.603       40.371     6928.337     3318.116     1629.830        1.611        0.594      142.399       44.572        0.098      338.446       11.102      858.170
09/27/2014  00:35:00      -43.896      -45.789       16.257       92.818       84.539       47.864     8615.253     7146.893     2290.933        1.117        0.903       63.431       48.484        0.584      338.520       11.228      858.165
09/27/2014  00:36:00     -119.599      -28.918       -2.942       67.067       59.795       28.793     4498.033     3575.396      829.054        1.202        0.445      123.045       35.952        0.085      338.551       11.278      858.172
09/27/2014  00:37:00     -246.647      -44.906      -13.261       83.082       96.130       42.588     6902.638     9241.068     1813.754        4.049        0.898      250.702       37.212        0.022      338.511       11.209      858.169
09/27/2014  00:38:00     -277.245      -25.314      -11.793      119.490       86.939       57.892    14277.954     7558.365     3351.532        5.141        1.259      278.398       64.958        0.054      338.465       11.131      858.159
09/27/2014  00:39:00     -347.663     -135.130      -22.117      149.051       98.186       52.089    22216.090     9640.466     2713.296        8.709        1.728      373.001       46.761        0.016      338.480       11.155      858.145
09/27/2014  00:40:00     -415.997      -59.764      -31.637      121.506      114.038       60.782    14763.686    13004.721     3694.460       10.454        1.573      420.268       58.348        0.019      338.451       11.107      858.140
09/27/2014  00:41:00     -199.720      -86.943        0.912       98.208      113.077       58.441     9644.789    12786.381     3415.380        3.664        1.292      217.823       56.238        0.067      338.428       11.070      858.145
09/27/2014  00:42:00     -181.440      -32.660       -7.214      101.291       76.525       45.005    10259.770     5856.104     2025.487        2.609        0.907      184.356       52.958        0.083      338.431       11.076      858.131
09/27/2014  00:43:00     -127.078      -54.937        3.987       75.185       78.575       43.146     5652.857     6174.053     1861.577        1.643        0.684      138.444       36.811        0.071      338.435       11.083      858.097
09/27/2014  00:44:00     -131.238      -54.705      -13.168       65.177       41.895       29.788     4247.985     1755.210      887.345        1.364        0.345      142.183       23.225        0.027      338.453       11.114      858.096
09/27/2014  00:45:00     -159.485      -76.920       -4.309      100.489       57.571       42.619    10098.031     3314.432     1816.356        2.330        0.761      177.065       46.029        0.068      338.477       11.153      858.094
09/27/2014  00:46:00     -187.864      -73.512       -7.151       77.170       69.529       37.854     5955.175     4834.328     1432.963        2.648        0.611      201.735       35.532        0.031      338.414       11.047      858.081
09/27/2014  00:47:00     -137.229      -15.376        7.399      113.578       72.093       48.086    12899.955     5197.415     2312.231        1.976        1.020      138.088       52.924        0.147      338.477       11.153      858.046
09/27/2014  00:48:00     -145.700      -17.411       -7.444       64.025       58.696       29.648     4099.142     3445.197      879.002        1.500        0.421      146.737       16.710        0.013      338.528       11.241      857.998
09/27/2014  00:49:00     -229.611     -106.804        2.446      150.559      116.768       57.413    22667.985    13634.868     3296.248        5.186        1.980      253.236       55.356        0.048      338.570       11.308      857.958
09/27/2014  00:50:00     -248.250      -71.132       -9.663      106.780       79.842       46.830    11402.045     6374.769     2193.045        4.337        0.998      258.240       54.541        0.045      338.570       11.307      857.932
09/27/2014  00:51:00     -221.265       17.958        4.954      172.992       94.571       63.289    29926.246     8943.627     4005.496        4.608        2.144      221.993       73.980        0.111      338.579       11.324      857.898
09/27/2014  00:52:00     -154.759      -27.434       -5.363       98.825       63.219       39.006     9766.351     3996.648     1521.473        2.001        0.764      157.172       37.130        0.056      338.505       11.201      857.874
09/27/2014  00:53:00      -77.314       14.679       -8.958       45.486       42.979       27.096     2068.965     1847.191      734.174        0.546        0.233       78.695       23.411        0.089      338.577       11.322      857.858
09/27/2014  00:54:00     -103.631       20.810       -0.003       98.449       45.664       26.422     9692.265     2085.185      698.097        1.182        0.624      105.700       16.526        0.024      338.596       11.355      857.895
09/27/2014  00:55:00      -72.014      -18.996       -7.930       86.240       54.142       23.372     7437.384     2931.305      546.256        0.826        0.546       74.477       25.237        0.115      338.627       11.406      857.917
09/27/2014  00:56:00      -42.729      -45.071        0.323       59.390       35.863       22.682     3527.152     1286.151      514.459        0.459        0.266       62.106       29.028        0.218      338.627       11.407      857.941
09/27/2014  00:57:00      -56.498      -61.802       -8.839       47.696       35.525       38.871     2274.926     1261.994     1510.957        0.607        0.252       83.734       41.893        0.250      338.639       11.427      857.962
09/27/2014  00:58:00      -15.120       -7.262       11.824       21.122       26.308       20.722      446.141      692.094      429.388        0.099        0.078       16.774       16.026        0.913      338.648       11.441      857.953
09/27/2014  00:59:00      -53.356      -35.374        2.859       57.591       50.547       33.268     3316.696     2554.988     1106.763        0.554        0.349       64.017       29.530        0.213      338.647       11.440      857.943
09/27/2014  01:00:00     -119.531      -86.824       -8.279       73.351       53.441       28.411     5380.310     2855.982      807.176        1.547        0.452      147.737       31.012        0.044      338.613       11.383      857.947
09/27/2014  01:01:00     -205.040     -103.002      -16.298       73.618       70.691       36.531     5419.580     4997.224     1334.541        3.233        0.588      229.458       23.534        0.011      338.590       11.343      857.942
09/27/2014  01:02:00     -155.281     -131.388        2.400       91.339       77.613       52.095     8342.850     6023.765     2713.852        2.923        0.854      203.409       53.488        0.069      338.536       11.252      857.923
09/27/2014  01:03:00     -219.942      -91.845       -0.751       70.573       67.684       38.268     4980.480     4581.084     1464.470        3.392        0.551      238.349       37.131        0.024      338.587       11.336      857.925
09/27/2014  01:04:00      -79.262      -12.625        7.818      100.675       52.592       38.055    10135.519     2765.937     1448.218        1.042        0.717       80.261       45.049        0.315      338.619       11.392      857.947
09/27/2014  01:05:00     -157.610      -33.807      -14.238       43.229       35.705       29.314     1868.722     1274.876      859.325        1.509        0.200      161.195       20.604        0.016      338.617       11.391      857.950
09/27/2014  01:06:00     -122.604      -97.271        4.076       82.372       79.891       33.255     6785.217     6382.579     1105.875        1.939        0.714      156.504       35.310        0.051      338.634       11.419      857.988
09/27/2014  01:07:00      -95.445      -98.994        3.164       75.913       54.047       32.576     5762.731     2921.062     1061.164        1.433        0.487      137.512       36.503        0.070      338.689       11.512      858.022
09/27/2014  01:08:00     -152.394     -107.209        4.232       69.494       65.674       32.918     4829.360     4313.096     1083.620        2.248        0.511      186.327       30.118        0.026      338.657       11.454      858.067
09/27/2014  01:09:00     -146.144      -35.337       -0.132       80.357       58.358       33.269     6457.173     3405.629     1106.798        1.679        0.548      150.356       39.912        0.070      338.660       11.461      858.080
09/27/2014  01:10:00     -116.858       -5.757        2.148       66.321       63.154       36.603     4398.438     3988.459     1339.814        1.171        0.486      116.999       38.437        0.108      338.603       11.366      858.106
09/27/2014  01:11:00     -217.501       49.478      -17.692       75.068       47.184       36.309     5635.232     2226.332     1318.361        2.962        0.459      223.058       34.460        0.024      338.541       11.259      858.110
09/27/2014  01:12:00     -130.548       22.756      -13.635       60.001       54.608       34.571     3600.151     2981.993     1195.152        1.276        0.389      132.517       24.237        0.033      338.529       11.242      858.099
09/27/2014  01:13:00     -128.373        0.908       -7.147       69.046       59.156       31.390     4767.317     3499.440      985.337        1.289        0.463      128.377       28.772        0.050      338.526       11.238      858.095
09/27/2014  01:14:00     -183.076      -49.625      -14.348       68.402       58.860       36.709     4678.826     3464.447     1347.565        2.284        0.475      189.683       36.804        0.038      338.530       11.244      858.089
09/27/2014  01:15:00     -196.371      -26.088      -26.000       61.232       46.642       23.929     3749.397     2175.438      572.576        2.321        0.325      198.097       17.745        0.008      338.492       11.178      858.096
09/27/2014  01:16:00      -96.551       22.164       -4.757       22.136       28.962       16.135      490.024      838.801      260.332        0.571        0.079       99.062       13.248        0.018      338.492       11.182      858.115
09/27/2014  01:17:00     -123.090      -13.804      -13.005       40.511       55.674       26.768     1641.113     3099.589      716.501        1.048        0.273      123.861       14.355        0.013      338.527       11.239      858.136
09/27/2014  01:18:00     -176.169      -60.327       -1.373       45.154       39.816       28.603     2038.927     1585.300      818.156        1.956        0.222      186.211       22.245        0.014      338.504       11.200      858.162
09/27/2014  01:19:00     -107.374       16.882       -0.596       65.104       74.500       25.166     4238.534     5550.221      633.308        1.112        0.521      108.693       24.399        0.050      338.506       11.203      858.172
09/27/2014  01:20:00      -66.080      -11.753       -6.621       37.580       31.332       18.697     1412.288      981.676      349.569        0.365        0.137       67.117        7.768        0.013      338.515       11.220      858.169
09/27/2014  01:21:00     -105.581      -17.176       -4.638       42.918       37.794       27.149     1841.980     1428.359      737.082        0.773        0.200      106.969       29.327        0.075      338.495       11.187      858.172
09/27/2014  01:22:00      -91.319      -22.686       -6.356       34.267       30.486       19.634     1174.212      929.371      385.509        0.569        0.124       94.094       17.525        0.035      338.536       11.254      858.180
09/27/2014  01:23:00      -66.402      -44.521        2.163       46.281       28.842       19.832     2141.918      831.865      393.322        0.488        0.168       79.946       20.345        0.065      338.617       11.389      858.187
09/27/2014  01:24:00      -98.313      -46.434        1.862       71.501       60.304       26.280     5112.375     3636.608      690.624        1.063        0.472      108.727       29.770        0.075      338.565       11.302      858.175
09/27/2014  01:25:00      -70.479      -80.461       -2.234       58.326       61.123       26.773     3401.912     3736.026      716.790        0.965        0.393      106.964       32.013        0.090      338.579       11.325      858.175
09/27/2014  01:26:00      -72.510      -40.914        4.497       58.908       43.637       22.562     3470.136     1904.212      509.043        0.642        0.294       83.257       25.099        0.091      338.584       11.335      858.179
09/27/2014  01:27:00     -150.398     -110.638       -4.861       75.786       47.150       31.050     5743.570     2223.090      964.112        2.191        0.447      186.709       22.109        0.014      338.549       11.274      858.183
09/27/2014  01:28:00     -162.878      -81.681       -8.681       96.015       70.044       39.296     9218.885     4906.103     1544.169        2.447        0.783      182.212       35.759        0.039      338.531       11.245      858.196
09/27/2014  01:29:00     -167.394     -123.705       -1.074       82.029       92.700       47.311     6728.793     8593.338     2238.337        3.044        0.878      208.143       42.662        0.042      338.529       11.239      858.212
09/27/2014  01:30:00     -191.560     -144.592      -12.806       86.186       80.056       44.341     7428.086     6408.975     1966.108        3.678        0.790      240.004       33.511        0.019      338.497       11.186      858.220
09/27/2014  01:31:00      -91.183      -79.104        2.302       81.283       66.942       43.864     6606.957     4481.222     1924.012        1.379        0.651      120.714       48.682        0.163      338.511       11.212      858.233
09/27/2014  01:32:00     -114.100      -98.751        8.502       83.302       67.192       41.263     6939.229     4514.782     1702.611        1.800        0.658      150.899       39.265        0.068      338.523       11.232      858.250
09/27/2014  01:33:00     -168.007     -149.281       -9.443      105.697       79.756       48.610    11171.828     6361.050     2362.954        3.524        0.995      224.746       56.313        0.063      338.494       11.179      858.253
09/27/2014  01:34:00     -150.706      -77.828       15.955      100.824       68.194       47.134    10165.528     4650.485     2221.586        2.303        0.852      169.615       55.552        0.107      338.474       11.147      858.253
09/27/2014  01:35:00     -244.048     -162.096      -23.343       87.489       68.322       45.209     7654.369     4667.836     2043.844        5.037        0.718      292.976       41.056        0.020      338.462       11.126      858.221
09/27/2014  01:36:00     -309.440     -165.670       -6.405      107.515       73.409       53.422    11559.454     5388.891     2853.903        7.152        0.990      350.998       49.234        0.020      338.473       11.144      858.180
09/27/2014  01:37:00     -279.506     -172.306        1.492      119.497       85.277       54.842    14279.475     7272.195     3007.595        6.618        1.228      328.349       51.835        0.025      338.447       11.101      858.135
09/27/2014  01:38:00     -254.400     -146.419       -5.578      102.707       84.807       51.974    10548.812     7192.206     2701.305        5.331        1.022      293.526       56.306        0.037      338.466       11.132      858.086
09/27/2014  01:39:00     -258.318     -150.358      -16.762       62.324       78.818       37.035     3884.311     6212.252     1371.588        5.054        0.573      298.891       27.699        0.009      338.478       11.152      858.035
09/27/2014  01:40:00     -213.139     -165.560       -1.075      117.429       82.698       50.088    13789.633     6838.914     2508.834        4.798        1.157      269.886       61.525        0.052      338.485       11.164      857.989
09/27/2014  01:41:00     -250.854     -110.300       -8.974      110.944       83.041       42.851    12308.578     6895.831     1836.232        4.810        1.052      274.032       50.237        0.034      338.458       11.119      857.976
09/27/2014  01:42:00     -149.106     -118.890       -8.631       86.967       81.039       47.248     7563.336     6567.385     2232.343        2.640        0.818      190.702       45.854        0.058      338.495       11.183      857.987
09/27/2014  01:43:00     -101.424      -34.049       13.895       98.070       64.527       42.292     9617.798     4163.718     1788.602        1.360        0.779      106.987       51.514        0.232      338.490       11.177      858.010
09/27/2014  01:44:00     -128.408     -105.241       14.086      102.077       94.150       53.105    10419.653     8864.261     2820.191        2.493        1.105      166.025       64.649        0.152      338.453       11.112      858.042
09/27/2014  01:45:00     -107.307       -9.832       -2.572       72.721       53.951       33.713     5288.372     2910.704     1136.565        1.048        0.467      107.757       37.792        0.123      338.483       11.164      858.065
09/27/2014  01:46:00      -59.453       -6.860        4.465       59.118       38.005       22.511     3494.898     1444.414      506.743        0.452        0.272       59.848       14.138        0.056      338.470       11.143      858.093
09/27/2014  01:47:00     -115.190       20.751       -7.391       66.044       38.451       34.314     4361.803     1478.503     1177.456        1.038        0.351      117.045       38.610        0.109      338.423       11.064      858.093
09/27/2014  01:48:00     -125.275      -36.288      -12.583       56.093       38.807       24.969     3146.476     1505.995      623.444        1.122        0.264      130.425       21.750        0.028      338.444       11.099      858.091
09/27/2014  01:49:00     -176.689      -38.485      -16.818      102.767       81.571       40.294    10560.991     6653.902     1623.610        2.591        0.942      180.832       40.337        0.050      338.412       11.043      858.085
09/27/2014  01:50:00     -218.763       49.351      -17.484       97.330       96.379       44.436     9473.225     9288.866     1974.522        3.566        1.037      224.261       40.942        0.033      338.390       11.003      858.049
09/27/2014  01:51:00     -329.680        9.793      -15.469      105.802       98.896       48.940    11194.101     9780.420     2395.147        6.619        1.168      329.826       48.825        0.022      338.380       10.990      858.038
09/27/2014  01:52:00     -225.438      -13.655      -20.303       99.811      105.195       50.526     9962.167    11066.062     2552.829        3.750        1.179      225.851       45.810        0.041      338.371       10.973      858.020
09/27/2014  01:53:00     -210.944      -86.831       -6.551       97.625       69.452       43.094     9530.698     4823.575     1857.105        3.414        0.811      228.116       44.894        0.039      338.373       10.976      858.017
09/27/2014  01:54:00     -231.228      -10.625      -14.019       89.651       57.439       40.990     8037.335     3299.291     1680.179        3.339        0.651      231.472       41.626        0.032      338.373       10.977      858.011
09/27/2014  01:55:00     -156.100      -44.337      -11.121       57.716       42.370       25.016     3331.135     1795.249      625.780        1.610        0.288      162.274       29.419        0.033      338.385       11.000      858.012
09/27/2014  01:56:00     -168.197      -73.465       -5.602       93.045       50.717       37.702     8657.376     2572.262     1421.428        2.318        0.633      183.541       40.258        0.048      338.375       10.981      858.005
09/27/2014  01:57:00     -260.440      -65.976        4.156      108.795       78.639       54.677    11836.357     6184.058     2989.620        4.660        1.051      268.667       54.687        0.041      338.345       10.929      857.988
09/27/2014  01:58:00     -182.931      -26.873      -11.231       99.065       96.112       55.362     9813.879     9237.586     3064.907        2.821        1.106      184.894       53.831        0.085      338.352       10.944      857.977
09/27/2014  01:59:00     -237.021      -16.066       -1.523      144.327      109.149       52.729    20830.348    11913.500     2780.397        4.598        1.776      237.565       63.819        0.072      338.321       10.888      857.967
09/27/2014  02:00:00     -292.091      -61.732       -7.310      158.637      105.023       62.734    25165.851    11029.745     3935.597        6.465        2.007      298.544       75.589        0.064      338.295       10.847      857.944
09/27/2014  02:01:00     -131.820      -34.255        9.054       73.833       71.528       41.888     5451.268     5116.207     1754.624        1.547        0.616      136.198       42.202        0.096      338.348       10.937      857.914
09/27/2014  02:02:00     -143.062      -49.531       -3.161      100.720       75.488       50.325    10144.427     5698.380     2532.631        2.065        0.919      151.393       51.279        0.115      338.324       10.897      857.892
09/27/2014  02:03:00     -270.512      -56.591      -11.051      120.744       83.074       48.191    14579.031     6901.357     2322.356        5.015        1.190      276.368       48.183        0.030      338.286       10.830      857.850
09/27/2014  02:04:00     -317.071     -137.902      -20.544      140.984      114.180       68.487    19876.458    13037.143     4690.467        7.878        1.880      345.762       69.645        0.041      338.277       10.817      857.825
09/27/2014  02:05:00     -293.746     -119.832       -7.150      148.080      118.266       63.814    21927.737    13986.808     4072.194        7.034        1.999      317.248       64.014        0.041      338.266       10.798      857.813
09/27/2014  02:06:00     -300.853        7.794      -13.877      131.001       71.419       56.556    17161.348     5100.603     3198.569        5.811        1.273      300.954       63.023        0.044      338.257       10.785      857.846
09/27/2014  02:07:00     -260.519      -34.866      -18.250      130.930       90.413       55.211    17142.697     8174.447     3048.241        4.889        1.418      262.842       50.870        0.037      338.266       10.798      857.851
09/27/2014  02:08:00     -186.095      -66.881        1.312       93.007       88.824       45.043     8650.224     7889.777     2028.908        2.883        0.928      197.748       51.251        0.067      338.273       10.811      857.866
09/27/2014  02:09:00     -131.514      -47.706        7.516       99.424       59.801       44.387     9885.098     3576.118     1970.198        1.753        0.772      139.899       46.307        0.110      338.288       10.836      857.900
09/27/2014  02:10:00     -202.935      -98.791      -12.738      134.664       89.107       50.647    18134.374     7939.983     2565.087        3.987        1.432      225.704       50.536        0.050      338.291       10.840      857.924
09/27/2014  02:11:00     -128.278      -81.797        6.256       87.763       68.543       44.565     7702.382     4698.160     1985.998        1.878        0.719      152.138       44.817        0.087      338.293       10.844      857.932
09/27/2014  02:12:00     -249.698     -162.166       -9.073      145.494       92.226       64.331    21168.630     8505.653     4138.509        6.127        1.691      297.737       63.716        0.046      338.307       10.867      857.921
09/27/2014  02:13:00     -166.275      -77.823        2.738      101.679       88.257       52.269    10338.702     7789.301     2732.056        2.728        1.043      183.586       55.296        0.091      338.304       10.861      857.933
09/27/2014  02:14:00     -245.966     -110.795        0.458      128.199      113.654       60.449    16435.027    12917.183     3654.021        5.289        1.650      269.768       57.256        0.045      338.287       10.832      857.923
09/27/2014  02:15:00     -314.246     -127.706       -7.907      164.280      103.531       57.725    26988.011    10718.600     3332.168        7.807        2.052      339.204       74.991        0.049      338.271       10.808      857.934
09/27/2014  02:16:00     -285.480      -75.672       -1.498      128.279      116.450       56.754    16455.557    13560.591     3220.981        6.023        1.662      295.339       47.979        0.026      338.253       10.776      857.953
09/27/2014  02:17:00     -351.796      -30.442      -27.367      102.015       77.324       58.421    10406.997     5979.019     3413.029        7.261        0.990      353.111       54.038        0.023      338.243       10.760      857.973
09/27/2014  02:18:00     -102.908      -41.787       16.858      104.698      100.630       55.118    10961.744    10126.380     3038.045        1.837        1.206      111.069       55.657        0.251      338.259       10.787      857.979
09/27/2014  02:19:00     -129.962      -89.676       -9.287       64.513       49.344       32.819     4161.992     2434.851     1077.054        1.634        0.384      157.898       32.006        0.041      338.283       10.830      857.979
09/27/2014  02:20:00     -206.927       27.974      -23.845       68.029       72.688       36.781     4627.978     5283.513     1352.876        2.772        0.563      208.809       19.159        0.008      338.276       10.814      857.980
09/27/2014  02:21:00     -186.025      -21.879       -7.813       92.477       80.339       44.615     8551.931     6454.360     1990.460        2.607        0.850      187.307       47.352        0.064      338.275       10.813      857.997
09/27/2014  02:22:00     -240.207      -27.856        1.678      111.995       84.880       54.219    12542.840     7204.578     2939.745        4.058        1.134      241.816       59.801        0.061      338.254       10.777      858.002
09/27/2014  02:23:00     -196.556      -73.361       -8.298       96.179       88.093       51.307     9250.496     7760.393     2632.388        3.186        0.982      209.800       54.885        0.068      338.277       10.816      857.995
09/27/2014  02:24:00     -221.871      -60.226      -14.380      145.032       78.156       51.880    21034.368     6108.358     2691.540        4.144        1.492      229.899       56.089        0.060      338.245       10.764      857.982
09/27/2014  02:25:00     -170.081      -62.945        1.055       97.603       72.567       45.946     9526.439     5266.018     2111.017        2.489        0.845      181.355       45.682        0.063      338.227       10.733      857.974
09/27/2014  02:26:00     -170.640      -95.917       -8.240       80.204       81.273       46.570     6432.665     6605.278     2168.722        2.679        0.760      195.750       44.891        0.053      338.236       10.746      857.965
09/27/2014  02:27:00     -102.148      -27.286        2.345       51.940       50.144       25.484     2697.716     2514.392      649.455        0.852        0.293      105.729       27.163        0.066      338.255       10.782      857.965
09/27/2014  02:28:00     -104.643      -50.938       -7.408       78.521       52.207       24.520     6165.519     2725.617      601.214        1.154        0.475      116.382       31.466        0.073      338.240       10.755      857.970
09/27/2014  02:29:00     -218.401      -76.119       -3.647      118.562       94.771       47.486    14057.043     8981.556     2254.960        3.940        1.265      231.285       48.960        0.045      338.199       10.684      857.978
09/27/2014  02:30:00     -167.018     -162.798        5.316      105.598      102.495       65.506    11151.017    10505.234     4291.021        4.018        1.297      233.234       58.552        0.063      338.208       10.701      857.978
09/27/2014  02:31:00     -183.696     -115.086       -4.805       73.290       62.412       35.632     5371.365     3895.271     1269.609        2.877        0.527      216.769       36.554        0.028      338.201       10.687      857.985
09/27/2014  02:32:00     -153.338      -48.799        3.905      126.296       56.636       37.826    15950.789     3207.580     1430.791        2.325        1.029      160.915       41.447        0.066      338.189       10.668      857.994
09/27/2014  02:33:00     -154.068      -50.407        7.681       89.875       53.633       35.747     8077.584     2876.492     1277.840        1.928        0.612      162.104       33.060        0.042      338.166       10.630      858.017
09/27/2014  02:34:00      -80.303      -79.294        5.547       62.045       68.090       29.097     3849.561     4636.236      846.664        1.105        0.467      112.854       26.065        0.053      338.157       10.616      858.026
09/27/2014  02:35:00      -88.619      -59.616        3.833       80.236       61.176       37.130     6437.738     3742.545     1378.607        1.149        0.578      106.805       37.118        0.121      338.178       10.652      858.018
09/27/2014  02:36:00     -169.332      -86.319        9.757       93.137       70.158       50.274     8674.523     4922.202     2527.460        2.617        0.806      190.064       51.624        0.074      338.145       10.595      858.005
09/27/2014  02:37:00      -59.908      -77.089       11.850       80.360       56.354       46.797     6457.791     3175.734     2189.921        1.075        0.591       97.631       44.313        0.206      338.161       10.622      858.000
09/27/2014  02:38:00     -134.448     -112.946       -7.742       69.539       58.331       45.735     4835.661     3402.493     2091.722        2.061        0.516      175.593       24.808        0.020      338.155       10.614      857.988
09/27/2014  02:39:00     -120.320     -113.077        2.473       75.824       63.025       41.589     5749.234     3972.140     1729.638        1.936        0.573      165.116       38.456        0.054      338.133       10.575      857.977
09/27/2014  02:40:00      -64.149     -117.341        4.547       70.952       48.724       32.515     5034.210     2374.031     1057.196        1.318        0.423      133.731       30.296        0.051      338.206       10.700      857.968
09/27/2014  02:41:00     -125.530      -57.597      -13.023       46.767       43.631       21.772     2187.131     1903.635      474.006        1.190        0.228      138.113       16.596        0.014      338.157       10.617      857.969
09/27/2014  02:42:00      -99.867      -61.666       -1.876       40.232       53.011       22.879     1618.600     2810.204      523.466        0.937        0.248      117.372       15.534        0.018      338.161       10.625      857.965
09/27/2014  02:43:00     -128.137     -121.663       -1.941       89.073       54.099       38.078     7934.016     2926.676     1449.904        2.177        0.616      176.695       43.323        0.060      338.161       10.623      857.957
09/27/2014  02:44:00      -42.484      -66.586        5.335       62.809       60.318       41.037     3945.003     3638.302     1684.036        0.777        0.463       78.985       45.583        0.333      338.178       10.652      857.935
09/27/2014  02:45:00      -57.402       41.554       -4.180       46.602       40.095       27.722     2171.720     1607.597      768.528        0.479        0.227       70.864       32.770        0.214      338.137       10.582      857.937
09/27/2014  02:46:00      -40.213       59.796       -7.624       48.793       33.084       19.579     2380.782     1094.535      383.352        0.455        0.193       72.060       18.650        0.067      338.200       10.689      857.942
09/27/2014  02:47:00      -49.876       81.184       -5.916       46.158       63.323       23.218     2130.553     4009.858      539.081        0.790        0.334       95.280       24.912        0.068      338.131       10.571      857.948
09/27/2014  02:48:00      -18.937       76.926        8.580       29.966       67.694       31.917      897.959     4582.514     1018.674        0.642        0.325       79.223       37.736        0.227      338.178       10.653      857.952
09/27/2014  02:49:00       47.150      104.677      -15.118       37.424       47.344       30.603     1400.549     2241.430      936.572        0.899        0.229      114.806       27.311        0.057      338.100       10.522      857.965
09/27/2014  02:50:00       73.650       74.765       -2.172       45.781       32.581       26.009     2095.857     1061.537      676.487        0.743        0.192      104.948       19.796        0.036      338.080       10.488      857.986
09/27/2014  02:51:00       89.996       56.930        0.733       35.379       30.379       22.259     1251.681      922.897      495.454        0.700        0.134      106.491       11.979        0.013      338.076       10.482      858.011
09/27/2014  02:52:00       80.588       56.554        5.153       33.953       26.539       23.407     1152.840      704.327      547.906        0.606        0.120       98.451       11.791        0.014      338.069       10.469      858.037
09/27/2014  02:53:00       47.501       53.535       -1.883       25.708       30.744       26.051      660.904      945.213      678.652        0.370        0.114       71.570       19.996        0.078      338.076       10.481      858.055
09/27/2014  02:54:00       27.448       33.028       -1.202       23.815       15.528       16.503      567.135      241.111      272.334        0.146        0.054       42.944       13.433        0.098      338.079       10.488      858.064
09/27/2014  02:55:00        6.258       74.894       -7.465       16.554       30.388        9.952      274.036      923.452       99.051        0.350        0.065       75.155        6.280        0.007      338.134       10.577      858.066
09/27/2014  02:56:00      -14.050       79.521       -4.986       27.413       28.792       13.777      751.494      828.958      189.814        0.416        0.089       80.752       13.876        0.030      338.180       10.656      858.062
09/27/2014  02:57:00      -43.673       55.948       -6.093       22.472       25.182       14.497      505.005      634.158      210.166        0.321        0.067       70.976       13.128        0.034      338.242       10.760      858.058
09/27/2014  02:58:00      -71.675       40.837      -13.297       14.200       21.469       12.421      201.640      460.900      154.269        0.390        0.041       82.492       12.437        0.023      338.284       10.830      858.060
09/27/2014  02:59:00      -90.735      -11.201       -9.516       19.041       18.681       12.810      362.551      348.979      164.094        0.466        0.044       91.424       11.432        0.016      338.260       10.790      858.059
09/27/2014  03:00:00      -73.477      -24.644       -3.745       14.307       15.565        9.612      204.687      242.279       92.382        0.328        0.027       77.500        7.529        0.009      338.282       10.830      858.059
09/27/2014  03:01:00      -43.582        8.720        9.525       11.605       19.215       14.210      134.687      369.201      201.924        0.139        0.035       44.446       10.560        0.056      338.281       10.827      858.061
09/27/2014  03:02:00      -69.190       29.787       -9.188       15.802       13.222       11.960      249.708      174.812      143.046        0.316        0.028       75.330        6.667        0.008      338.270       10.807      858.067
09/27/2014  03:03:00      -44.295       10.732        0.106       15.536       16.123       10.971      241.354      259.965      120.364        0.135        0.031       45.577        5.952        0.017      338.294       10.848      858.069
09/27/2014  03:04:00      -72.947      -15.986       -8.177       13.035       14.973       11.168      169.910      224.179      124.713        0.308        0.026       74.678        7.895        0.011      338.332       10.912      858.056
09/27/2014  03:05:00      -58.818       -4.646       -9.728       15.409       13.535        8.788      237.447      183.190       77.224        0.204        0.025       59.002        4.858        0.007      338.350       10.942      858.056
09/27/2014  03:06:00      -37.367        0.342       -6.221       10.134       15.091        9.697      102.708      227.729       94.034        0.093        0.021       37.368        7.293        0.038      338.320       10.892      858.052
09/27/2014  03:07:00      -43.342       -1.367       -3.619       11.418       16.568        6.871      130.376      274.511       47.211        0.117        0.023       43.364        4.503        0.011      338.347       10.937      858.066
09/27/2014  03:08:00      -58.310      -28.491      -11.932        8.149       11.278        8.597       66.414      127.196       73.911        0.231        0.013       64.898        4.198        0.004      338.352       10.947      858.067
09/27/2014  03:09:00      -59.663      -29.324       -1.756       10.888       10.793        6.753      118.552      116.496       45.608        0.235        0.014       66.480        4.516        0.005      338.379       10.992      858.064
09/27/2014  03:10:00      -54.530       -5.102       -6.459        8.669        9.517        7.700       75.153       90.576       59.290        0.163        0.011       54.769        3.346        0.004      338.379       10.988      858.058
09/27/2014  03:11:00      -36.869      -25.841       -4.438       13.654       12.737        7.293      186.434      162.240       53.183        0.122        0.020       45.023        3.026        0.005      338.409       11.039      858.056
09/27/2014  03:12:00      -49.625      -30.654       -4.712       10.383       10.656       10.683      107.803      113.548      114.122        0.188        0.017       58.329        6.340        0.012      338.421       11.059      858.059
09/27/2014  03:13:00      -58.109      -32.910       -3.939       25.844       15.774       14.050      667.921      248.817      197.392        0.279        0.056       66.782       13.805        0.043      338.432       11.083      858.068
09/27/2014  03:14:00      -64.264      -24.645       -0.540       22.297       14.011       13.397      497.174      196.301      179.486        0.281        0.044       68.827       12.632        0.034      338.444       11.100      858.082
09/27/2014  03:15:00      -28.753      -16.978        0.788       24.533       13.843       13.651      601.865      191.626      186.347        0.105        0.049       33.391       11.760        0.124      338.461       11.128      858.092
09/27/2014  03:16:00      -36.544      -25.654        0.647       24.014       18.832       18.217      576.683      354.662      331.865        0.163        0.063       44.650       15.075        0.114      338.407       11.039      858.094
09/27/2014  03:17:00      -68.993      -13.702       -5.586       11.300       11.566       10.193      127.693      133.776      103.890        0.267        0.018       70.341        5.560        0.006      338.357       10.955      858.098
09/27/2014  03:18:00      -63.933      -15.191      -12.258       13.789       13.291       11.208      190.137      176.654      125.612        0.248        0.025       65.713        7.669        0.014      338.391       11.010      858.096
09/27/2014  03:19:00      -61.294       10.722       -6.741       21.801       13.968       10.286      475.278      195.116      105.809        0.235        0.039       62.225        6.639        0.011      338.393       11.013      858.091
09/27/2014  03:20:00      -76.373       18.110       -7.178       21.436       10.996       11.059      459.490      120.902      122.299        0.346        0.035       78.491        7.400        0.009      338.393       11.015      858.084
09/27/2014  03:21:00      -76.122       10.972       -9.668       16.788       13.480       12.851      281.851      181.722      165.156        0.332        0.031       76.909        9.494        0.015      338.399       11.025      858.077
09/27/2014  03:22:00      -42.467        0.175       -0.489       13.707       11.340        8.441      187.886      128.597       71.251        0.110        0.019       42.468        4.292        0.010      338.409       11.041      858.064
09/27/2014  03:23:00      -17.722       -1.824        1.981       14.494       10.704        8.444      210.080      114.575       71.297        0.036        0.020       17.816        5.722        0.103      338.422       11.062      858.047
09/27/2014  03:24:00      -23.328       14.529        4.789       14.731       13.574       10.794      216.988      184.247      116.514        0.065        0.026       27.482       11.404        0.172      338.457       11.122      858.028
09/27/2014  03:25:00      -22.335       14.618       -3.906        8.354       14.190        9.147       69.785      201.346       83.670        0.054        0.018       26.693        5.230        0.038      338.407       11.036      858.010
09/27/2014  03:26:00      -22.419       13.541        2.606       18.182       11.152        5.949      330.575      124.367       35.390        0.059        0.025       26.191        5.278        0.041      338.396       11.016      858.001
09/27/2014  03:27:00       15.016       27.445       -0.836        7.883       11.042        7.231       62.142      121.930       52.287        0.061        0.012       31.284        6.273        0.040      338.387       11.003      858.005
09/27/2014  03:28:00       28.479       29.717        1.347       13.786       14.907        9.601      190.057      222.209       92.173        0.110        0.025       41.160        9.320        0.051      338.409       11.038      858.010
09/27/2014  03:29:00       36.704       26.791       -0.997       13.469       16.482       11.327      181.415      271.666      128.310        0.132        0.029       45.441       10.987        0.058      338.428       11.074      858.018
09/27/2014  03:30:00       48.818       26.205        3.221       31.401       19.072       16.003      986.043      363.744      256.085        0.234        0.080       55.407       14.139        0.065      338.412       11.046      858.034
09/27/2014  03:31:00       58.161       38.990       -0.067       26.330       15.101       15.545      693.258      228.027      241.651        0.303        0.058       70.021        9.331        0.018      338.377       10.989      858.049
09/27/2014  03:32:00       25.418       52.488        4.267       19.449       29.421       19.815      378.261      865.601      392.631        0.253        0.082       58.319       17.379        0.089      338.367       10.973      858.057
09/27/2014  03:33:00       21.009       44.239        2.103       27.394       28.488       20.070      750.418      811.588      402.791        0.218        0.098       48.974       19.879        0.165      338.360       10.960      858.083
09/27/2014  03:34:00       33.034       55.904       -5.425       20.510       24.369       17.496      420.649      593.866      306.095        0.278        0.066       64.935       11.343        0.031      338.365       10.967      858.109
09/27/2014  03:35:00       61.443       42.835        4.786       37.879       23.895       18.115     1434.790      570.979      328.142        0.398        0.117       74.901        9.150        0.015      338.371       10.976      858.144
09/27/2014  03:36:00       98.289       65.309       22.223       31.821       20.650       23.069     1012.595      426.439      532.199        0.820        0.099      118.008       12.281        0.011      338.371       10.976      858.162
09/27/2014  03:37:00       85.309       43.983        0.810       33.519       21.368       19.273     1123.512      456.606      371.459        0.558        0.098       95.979       12.157        0.016      338.393       11.012      858.179
09/27/2014  03:38:00       78.829       43.347       30.770       30.813       20.856       25.490      949.411      434.959      649.730        0.554        0.102       89.961       16.451        0.033      338.415       11.051      858.182
09/27/2014  03:39:00       63.269       18.982       25.859       37.692       28.985       25.285     1420.689      840.148      639.340        0.397        0.145       66.055       17.445        0.070      338.413       11.045      858.184
09/27/2014  03:40:00       47.935       33.012       19.963       32.207       29.787       25.206     1037.267      887.265      635.356        0.317        0.128       58.203       21.459        0.136      338.421       11.060      858.183
09/27/2014  03:41:00       62.924       45.925       17.559       25.746       22.492       25.232      662.866      505.897      636.660        0.409        0.090       77.901       16.029        0.042      338.423       11.065      858.174
09/27/2014  03:42:00       67.938       38.595       -1.084       26.109       27.710       16.637      681.690      767.861      276.797        0.392        0.086       78.135       14.656        0.035      338.391       11.010      858.179
09/27/2014  03:43:00       85.740       65.103        8.114       35.268       25.479       23.089     1243.837      649.193      533.112        0.704        0.121      107.656       17.017        0.025      338.359       10.956      858.173
09/27/2014  03:44:00      100.321       74.695       11.681       27.432       20.593       19.272      752.491      424.068      371.392        0.866        0.077      125.074       14.903        0.014      338.330       10.908      858.168
09/27/2014  03:45:00       73.077       55.601       14.415       24.732       23.064       18.389      611.690      531.946      338.157        0.506        0.074       91.824       14.882        0.026      338.325       10.899      858.163
09/27/2014  03:46:00       53.448       37.252       -2.397       19.978       11.376       11.746      399.129      129.423      137.958        0.246        0.033       65.149       10.485        0.026      338.325       10.899      858.156
09/27/2014  03:47:00       43.252       31.399        4.688       10.206        9.518        7.385      104.173       90.599       54.533        0.156        0.012       53.448        3.277        0.004      338.361       10.961      858.145
09/27/2014  03:48:00       41.977       27.292       -0.476       12.309        8.053       11.095      151.523       64.853      123.107        0.142        0.017       50.069        7.207        0.021      338.358       10.954      858.133
09/27/2014  03:49:00       35.989       29.919       29.672       21.590       13.833       13.207      466.116      191.365      174.437        0.195        0.042       46.801        8.874        0.036      338.382       10.995      858.118
09/27/2014  03:50:00       24.106       31.837       32.518       20.754       16.969       10.430      430.740      287.949      108.784        0.174        0.041       39.933        7.485        0.035      338.395       11.018      858.099
09/27/2014  03:51:00       27.253       27.481       31.336       18.485       15.611       14.019      341.712      243.707      196.543        0.163        0.039       38.703        8.898        0.053      338.385       11.000      858.085
09/27/2014  03:52:00       60.434       35.756       15.728       23.154       15.718       18.163      536.088      247.060      329.892        0.315        0.056       70.219        9.118        0.017      338.370       10.976      858.071
09/27/2014  03:53:00       47.921       44.419       24.823       19.980       12.336       18.701      399.194      152.171      349.720        0.289        0.045       65.341       10.522        0.026      338.371       10.976      858.058
09/27/2014  03:54:00       68.611       42.755       26.374       14.872       12.958       20.311      221.167      167.898      412.544        0.402        0.040       80.842        4.092        0.003      338.384       11.000      858.046
09/27/2014  03:55:00       56.302       47.091       18.244       20.920       16.498       19.863      437.652      272.190      394.533        0.341        0.055       73.399       15.212        0.043      338.382       10.993      858.031
09/27/2014  03:56:00       59.205       50.420       23.299       44.149       21.242       24.801     1949.120      451.207      615.096        0.480        0.151       77.765       27.822        0.128      338.377       10.988      858.021
09/27/2014  03:57:00      103.891       59.893       22.510       27.055       14.605       19.154      731.993      213.303      366.872        0.810        0.066      119.919       11.057        0.009      338.338       10.921      858.013
09/27/2014  03:58:00      103.583       53.871       22.528       22.255       13.964       19.166      495.288      194.982      367.341        0.760        0.053      116.754        8.566        0.005      338.318       10.890      858.001
09/27/2014  03:59:00       92.145       51.165       28.705       37.496       27.969       30.876     1405.936      782.288      953.323        0.754        0.157      105.397       20.961        0.040      338.336       10.918      857.998
09/27/2014  04:00:00       69.011       45.874       27.174       45.406       25.990       33.506     2061.701      675.463     1122.649        0.573        0.193       82.867       27.028        0.106      338.285       10.833      857.999
09/27/2014  04:01:00       65.372       41.577       13.155       57.015       31.377       26.294     3250.755      984.492      691.371        0.555        0.246       77.474       18.545        0.057      338.253       10.778      858.013
09/27/2014  04:02:00       34.023       70.730       -2.739       23.890       38.430       21.944      570.752     1476.871      481.541        0.435        0.126       78.487       21.644        0.076      338.215       10.712      858.029
09/27/2014  04:03:00       40.194       47.672       -2.117       35.118       28.146       17.660     1233.303      792.218      311.875        0.311        0.117       62.355       12.949        0.043      338.171       10.642      858.045
09/27/2014  04:04:00       60.493       57.920        0.477       35.609       26.057       22.941     1268.006      678.978      526.298        0.474        0.124       83.750       19.041        0.052      338.146       10.599      858.062
09/27/2014  04:05:00       80.617       57.344        2.422       40.924       25.918       22.543     1674.764      671.735      508.176        0.632        0.143       98.931       14.341        0.021      338.159       10.621      858.070
09/27/2014  04:06:00       70.847       61.704        5.921       38.871       25.563       25.539     1510.921      653.478      652.215        0.584        0.141       93.951       14.278        0.023      338.135       10.578      858.078
09/27/2014  04:07:00       46.757       63.551       -2.851       31.493       28.365       26.410      991.821      804.546      697.498        0.436        0.125       78.898       17.519        0.049      338.106       10.530      858.079
09/27/2014  04:08:00       77.128       56.259       10.201       33.127       23.200       20.471     1097.414      538.246      419.060        0.564        0.103       95.466       12.651        0.018      338.101       10.522      858.081
09/27/2014  04:09:00       34.517       71.807       -6.575       22.404       27.808       21.530      501.939      773.282      463.549        0.406        0.087       79.672       16.761        0.044      338.099       10.520      858.088
09/27/2014  04:10:00       33.708       36.983       10.871       39.644       19.674       19.949     1571.674      387.069      397.944        0.249        0.118       50.040       14.120        0.080      338.102       10.524      858.092
09/27/2014  04:11:00        8.796       58.959       -9.602       24.634       37.151       14.199      606.829     1380.200      201.610        0.292        0.109       59.612       18.851        0.100      338.115       10.545      858.097
09/27/2014  04:12:00       18.401      111.550      -19.673       22.285       25.187       12.264      496.624      634.386      150.407        0.723        0.064      113.058       11.372        0.010      338.145       10.599      858.109
09/27/2014  04:13:00      -30.280       55.780      -13.116       32.602       30.526       14.789     1062.865      931.809      218.711        0.321        0.111       63.469        8.269        0.017      338.192       10.676      858.126
09/27/2014  04:14:00        1.385       50.603        2.289       24.613       24.322       13.412      605.792      591.561      179.891        0.197        0.069       50.622       10.760        0.045      338.261       10.790      858.141
09/27/2014  04:15:00        2.185       44.704       -5.110       17.872       28.405       12.510      319.411      806.827      156.495        0.166        0.064       44.757       11.283        0.064      338.204       10.696      858.150
09/27/2014  04:16:00       10.708       95.416      -10.531       20.123       36.924       16.851      404.920     1363.400      283.967        0.569        0.103       96.015       19.230        0.040      338.220       10.722      858.148
09/27/2014  04:17:00      -14.159       43.295        6.167       14.564       24.555       16.317      212.122      602.927      266.237        0.160        0.054       45.552       14.090        0.096      338.250       10.774      858.143
09/27/2014  04:18:00       14.427       69.945      -11.519       16.066       20.618        9.067      258.100      425.101       82.210        0.300        0.038       71.418        8.195        0.013      338.213       10.710      858.139
09/27/2014  04:19:00       18.858       59.093        3.867       32.599       25.032       19.206     1062.666      626.621      368.876        0.296        0.103       62.029       17.320        0.078      338.192       10.674      858.140
09/27/2014  04:20:00        1.379       84.522       -4.769       13.597       22.197       14.441      184.875      492.688      208.554        0.403        0.044       84.533        9.897        0.014      338.251       10.777      858.150
09/27/2014  04:21:00       -9.427      104.798      -17.613       20.795       34.379       11.686      432.417     1181.929      136.571        0.657        0.088      105.221       14.322        0.019      338.221       10.726      858.150
09/27/2014  04:22:00       -6.445      120.611      -13.856       12.529       16.919        8.618      156.984      286.267       74.273        0.765        0.026      120.783        7.147        0.004      338.203       10.695      858.146
09/27/2014  04:23:00       -9.276      106.889      -10.146       25.889       32.992       14.116      670.246     1088.489      199.253        0.679        0.098      107.291       12.189        0.013      338.263       10.795      858.138
09/27/2014  04:24:00       -4.235       84.532       -7.059       18.499       25.319       16.772      342.229      641.039      281.293        0.424        0.063       84.638       16.821        0.039      338.257       10.786      858.133
09/27/2014  04:25:00      -13.525      103.194       -7.754       16.323       29.912       19.577      266.449      894.710      383.264        0.622        0.077      104.077       20.665        0.039      338.288       10.837      858.124
09/27/2014  04:26:00        1.890       41.430       14.839       15.305       29.048       14.167      234.254      843.807      200.696        0.161        0.064       41.473       14.258        0.118      338.262       10.794      858.127
09/27/2014  04:27:00       40.506       35.065       12.256       18.255       20.459       19.439      333.239      418.587      377.868        0.207        0.056       53.575        7.311        0.019      338.284       10.830      858.137
09/27/2014  04:28:00       49.469       33.301       13.905       24.261       21.879       18.226      588.612      478.683      332.185        0.257        0.070       59.633       14.949        0.063      338.255       10.782      858.167
09/27/2014  04:29:00       62.702       48.728       17.802       46.656       32.470       32.834     2176.747     1054.283     1078.083        0.547        0.215       79.410       13.596        0.029      338.186       10.666      858.189
09/27/2014  04:30:00       94.849       60.353        9.817       49.152       27.438       24.468     2415.878      752.836      598.661        0.825        0.188      112.422       17.488        0.024      338.150       10.608      858.206
09/27/2014  04:31:00      104.521       74.244       10.906       33.602       27.358       30.836     1129.101      748.464      950.855        0.969        0.141      128.206       21.092        0.027      338.131       10.573      858.223
09/27/2014  04:32:00       63.731       40.616       10.471       44.481       42.492       20.065     1978.550     1805.585      402.585        0.500        0.209       75.573       10.141        0.018      338.167       10.633      858.226
09/27/2014  04:33:00       89.334       63.292        6.699       29.640       28.612       29.736      878.541      818.651      884.214        0.731        0.129      109.482       20.144        0.034      338.124       10.558      858.238
09/27/2014  04:34:00      100.001       52.874       15.099       32.120       22.927       28.945     1031.706      525.625      837.831        0.771        0.120      113.119       17.759        0.025      338.124       10.560      858.247
09/27/2014  04:35:00      109.142       55.018       30.676       45.542       47.147       31.577     2074.055     2222.827      997.112        1.059        0.265      122.225       24.411        0.040      338.101       10.524      858.254
09/27/2014  04:36:00       98.703       -1.366       41.724       86.140       80.630       46.429     7420.021     6501.210     2155.655        1.378        0.804       98.713       50.836        0.265      338.083       10.493      858.259
09/27/2014  04:37:00      117.660       27.297       45.495       86.045       57.144       52.702     7403.732     3265.441     2777.514        1.505        0.672      120.784       45.672        0.143      338.040       10.421      858.253
09/27/2014  04:38:00      131.921       65.399       40.015       76.397       47.075       51.716     5836.482     2216.088     2674.530        1.700        0.536      147.242       44.523        0.091      338.016       10.379      858.248
09/27/2014  04:39:00       80.326       91.899      101.807       60.260       55.422       33.743     3631.262     3071.585     1138.604        1.655        0.392      122.056       34.907        0.082      337.983       10.327      858.247
09/27/2014  04:40:00       81.797       78.674       43.654       29.189       27.362       37.458      852.026      748.656     1403.138        0.889        0.150      113.491       17.790        0.025      338.048       10.434      858.246
09/27/2014  04:41:00       46.728       58.183       84.790       48.962       45.025       27.912     2397.253     2027.279      779.080        0.898        0.260       74.625       25.136        0.113      338.069       10.471      858.256
09/27/2014  04:42:00       90.327       26.546       46.511       54.523       36.103       39.495     2972.785     1303.440     1559.822        0.843        0.292       94.147       31.972        0.115      338.008       10.368      858.257
09/27/2014  04:43:00       37.096       20.237       28.206       35.657       43.455       24.550     1271.409     1888.294      602.724        0.317        0.188       42.257       25.206        0.356      338.078       10.484      858.267
09/27/2014  04:44:00       74.770     -112.657       -5.024       39.512       49.878       28.302     1561.204     2487.829      800.996        1.158        0.243      135.211       20.058        0.022      338.044       10.428      858.265
09/27/2014  04:45:00       26.792      -32.491       24.057       28.640       44.907       25.572      820.252     2016.672      653.939        0.292        0.175       42.112       22.864        0.295      338.149       10.605      858.269
09/27/2014  04:46:00      102.796       69.140       52.320       49.380       39.928       41.774     2438.367     1594.271     1745.041        1.193        0.289      123.885       30.651        0.061      338.021       10.390      858.269
09/27/2014  04:47:00       58.320       40.784       57.908       50.578       29.541       27.350     2558.120      872.682      748.018        0.630        0.209       71.166       25.758        0.131      338.023       10.394      858.268
09/27/2014  04:48:00       64.195       43.878       49.037       56.996       36.683       39.147     3248.523     1345.654     1532.449        0.729        0.306       77.758       35.351        0.207      337.988       10.334      858.275
09/27/2014  04:49:00       65.269       43.593       49.677       51.965       49.683       41.570     2700.342     2468.381     1728.025        0.776        0.345       78.488       43.382        0.306      337.974       10.311      858.281
09/27/2014  04:50:00       55.933       26.577       35.976       48.519       32.228       26.803     2354.134     1038.668      718.406        0.462        0.206       61.926       22.152        0.128      338.004       10.360      858.289
09/27/2014  04:51:00        2.180       35.432       48.633       14.411       27.859       16.554      207.666      776.115      274.048        0.244        0.063       35.499       17.495        0.243      338.044       10.429      858.283
09/27/2014  04:52:00       30.368      -17.828       16.701       35.541       48.344       36.781     1263.130     2337.147     1352.862        0.324        0.248       35.214       22.650        0.414      338.052       10.442      858.273
09/27/2014  04:53:00       67.127      -27.652       32.938       77.322       55.219       32.455     5978.642     3049.124     1053.352        0.822        0.504       72.599       37.115        0.261      338.009       10.370      858.261
09/27/2014  04:54:00      114.845       -8.169       23.288       71.840       48.881       46.561     5160.933     2389.360     2167.882        1.176        0.486      115.136       38.266        0.110      337.959       10.284      858.250
09/27/2014  04:55:00       95.241       44.639       64.444       57.828       64.795       49.065     3344.042     4198.407     2407.401        1.258        0.497      105.183       35.662        0.115      337.910       10.203      858.246
09/27/2014  04:56:00       52.347       36.922       43.681       41.784       38.113       27.698     1745.925     1452.610      767.168        0.499        0.198       64.058       20.323        0.101      337.962       10.290      858.245
09/27/2014  04:57:00       36.157      -14.155       31.279       42.120       68.181       42.096     1774.083     4648.707     1772.094        0.534        0.410       38.829       42.843        1.217      338.006       10.365      858.234
09/27/2014  04:58:00       44.796      -26.074        4.294       53.350       45.304       33.889     2846.257     2052.431     1148.482        0.438        0.302       51.832       39.122        0.570      337.955       10.279      858.223
09/27/2014  04:59:00       81.034      -63.553      -17.615       24.923       29.087       18.131      621.142      846.027      328.734        0.636        0.090      102.983       13.727        0.018      337.913       10.208      858.211
09/27/2014  05:00:00       49.396      -30.593        9.472       29.712       24.841       22.562      882.774      617.099      509.030        0.274        0.100       58.103       21.804        0.141      337.952       10.275      858.204
09/27/2014  05:01:00       34.941      -41.327       11.853       29.858       33.145       26.056      891.514     1098.611      678.890        0.287        0.133       54.118       22.777        0.177      338.010       10.371      858.198
09/27/2014  05:02:00       31.099      -10.418       22.274       22.331       67.210       20.158      498.688     4517.220      406.328        0.350        0.271       32.798       11.859        0.131      338.029       10.404      858.183
09/27/2014  05:03:00       66.478       66.388       57.831       41.379       28.711       24.332     1712.260      824.324      592.048        0.765        0.156       93.950       18.804        0.040      338.029       10.403      858.166
09/27/2014  05:04:00       97.643       76.915       40.784       30.942       27.865       35.222      957.380      776.453     1240.568        1.004        0.149      124.298       24.468        0.039      337.912       10.206      858.149
09/27/2014  05:05:00      118.211       69.541       27.795       38.902       25.118       31.626     1513.400      630.933     1000.232        1.136        0.157      137.148       27.679        0.041      337.884       10.160      858.138
09/27/2014  05:06:00       67.519       61.655       44.309       43.507       31.673       34.439     1892.851     1003.168     1186.061        0.720        0.204       91.434       34.319        0.141      337.993       10.343      858.132
09/27/2014  05:07:00       68.186       63.351       50.419       49.450       20.870       27.564     2445.284      435.555      759.758        0.742        0.182       93.073       28.803        0.096      337.950       10.271      858.122
09/27/2014  05:08:00       97.455       51.465       21.840       27.347       26.752       22.180      747.864      715.644      491.972        0.729        0.098      110.209       12.126        0.012      337.931       10.239      858.107
09/27/2014  05:09:00       82.915       55.122       19.980       20.860       25.708       21.649      435.119      660.906      468.660        0.594        0.078       99.566       12.920        0.017      337.922       10.225      858.097
09/27/2014  05:10:00       80.674       43.436       22.480       35.339       31.076       23.499     1248.816      965.726      552.181        0.583        0.138       91.624       12.676        0.019      337.886       10.162      858.096
09/27/2014  05:11:00       68.979       42.547       18.116       25.729       21.375       24.960      661.999      456.870      622.995        0.432        0.087       81.046       14.826        0.033      337.847       10.096      858.100
09/27/2014  05:12:00       84.373       54.199        8.962       23.764       17.260       19.274      564.735      297.903      371.492        0.569        0.062      100.281       13.537        0.018      337.845       10.093      858.111
09/27/2014  05:13:00       77.142       59.340       11.076       25.311       20.886       16.139      640.670      436.217      260.467        0.547        0.067       97.325       11.749        0.015      337.862       10.123      858.113
09/27/2014  05:14:00       82.191       56.244        9.634       27.826       23.238       21.142      774.300      540.019      447.004        0.589        0.088       99.593       17.229        0.030      337.835       10.080      858.100
09/27/2014  05:15:00       80.493       51.360        9.365       30.667       19.835       19.513      940.453      393.411      380.769        0.546        0.086       95.483       12.197        0.016      337.822       10.055      858.090
09/27/2014  05:16:00       81.692       37.860        6.320       23.696       24.070       17.508      561.484      579.366      306.523        0.480        0.072       90.039       14.133        0.025      337.861       10.121      858.072
09/27/2014  05:17:00      103.253       45.798        3.845       27.635       25.718       22.253      763.683      661.397      495.217        0.735        0.096      112.954       10.011        0.008      337.855       10.111      858.060
09/27/2014  05:18:00       81.660       47.535       -0.344       29.990       22.551       21.258      899.412      508.545      451.896        0.539        0.093       94.488       18.963        0.040      337.848       10.099      858.056
09/27/2014  05:19:00       72.353       53.640       13.024       30.058       24.795       21.653      903.509      614.781      468.854        0.513        0.099       90.068       13.652        0.023      337.835       10.076      858.065
09/27/2014  05:20:00       98.291       65.179        0.692       26.271       23.142       21.262      690.156      535.551      452.084        0.779        0.084      117.938       13.597        0.013      337.835       10.074      858.060
09/27/2014  05:21:00      105.634       60.117       -3.234       30.631       24.115       19.851      938.236      581.547      394.061        0.835        0.096      121.542       14.794        0.015      337.823       10.060      858.056
09/27/2014  05:22:00      117.192       74.164        5.754       22.667       27.778       17.624      513.791      771.597      310.617        1.043        0.080      138.687       12.938        0.009      337.819       10.052      858.058
09/27/2014  05:23:00       98.115       62.209       -2.070       26.935       30.735       17.344      725.495      944.662      300.826        0.774        0.099      116.175       11.615        0.010      337.819       10.052      858.058
09/27/2014  05:24:00       95.305       58.222        1.676       26.884       25.079       19.057      722.731      628.952      363.173        0.709        0.086      111.682       17.104        0.023      337.815       10.044      858.057
09/27/2014  05:25:00       82.818       50.882       18.896       25.476       21.446       23.076      649.005      459.935      532.524        0.572        0.082       97.200       13.106        0.018      337.832       10.074      858.057
09/27/2014  05:26:00       81.023       28.779       10.141       37.784       32.137       24.495     1427.624     1032.761      600.015        0.528        0.153       85.982       15.812        0.034      337.863       10.123      858.050
09/27/2014  05:27:00       64.928       45.041       16.400       30.653       20.891       19.289      939.636      436.421      372.070        0.413        0.087       79.021       13.279        0.028      337.894       10.175      858.040
09/27/2014  05:28:00       56.340       41.306       27.899       45.029       26.089       26.459     2027.606      680.613      700.104        0.453        0.170       69.860       28.452        0.166      337.908       10.199      858.029
09/27/2014  05:29:00       75.444       53.802       28.649       27.938       14.152       26.124      780.551      200.266      682.454        0.553        0.083       92.664       19.006        0.042      337.887       10.166      858.025
09/27/2014  05:30:00       52.873       42.775       34.795       30.539       19.927       23.402      932.654      397.098      547.662        0.386        0.094       68.009       15.805        0.054      337.907       10.199      858.024
09/27/2014  05:31:00      110.309       59.251        8.016       19.745       18.300       17.696      389.875      334.894      313.152        0.839        0.052      125.215        5.304        0.002      337.855       10.109      858.033
09/27/2014  05:32:00       63.227       34.464        5.756       31.959       19.934       21.006     1021.410      397.367      441.250        0.354        0.093       72.010       11.609        0.026      337.859       10.118      858.034
09/27/2014  05:33:00       73.855       51.123       24.716       22.488       18.723       22.948      505.725      350.551      526.625        0.503        0.069       89.823       16.050        0.032      337.883       10.159      858.036
09/27/2014  05:34:00       87.176       54.822       20.497       21.726       13.273       16.514      472.033      176.178      272.706        0.597        0.046      102.981        5.970        0.003      337.871       10.140      858.031
09/27/2014  05:35:00       77.456       56.742       12.862       22.781       12.970       12.639      518.984      168.219      159.740        0.512        0.042       96.016        8.707        0.008      337.865       10.131      858.026
09/27/2014  05:36:00       73.978       52.848        8.320       16.411       15.928       13.615      269.325      253.707      185.366        0.452        0.035       90.916        7.198        0.006      337.887       10.166      858.020
09/27/2014  05:37:00       62.134       43.581        4.813       18.963       13.197       11.598      359.577      174.156      134.503        0.323        0.033       75.895        5.979        0.006      337.882       10.158      858.014
09/27/2014  05:38:00       29.707       45.464        9.232       16.533       11.568       11.049      273.341      133.827      122.086        0.178        0.026       54.309        9.036        0.028      337.881       10.155      858.018
09/27/2014  05:39:00       33.148       39.797        3.164       17.073       10.587        7.751      291.481      112.083       60.081        0.158        0.023       51.794        7.175        0.019      337.893       10.174      858.018
09/27/2014  05:40:00       72.533       54.959        5.650       24.613       16.404       11.413      605.805      269.075      130.263        0.466        0.050       91.002        9.846        0.012      337.864       10.128      858.019
09/27/2014  05:41:00       58.157       30.292       -0.886       21.410       17.191       10.042      458.403      295.522      100.839        0.258        0.043       65.573        4.630        0.005      337.854       10.109      858.028
09/27/2014  05:42:00       60.255       34.822        2.550       17.187       19.970       14.378      295.386      398.809      206.721        0.288        0.045       69.593        8.903        0.016      337.875       10.145      858.031
09/27/2014  05:43:00       26.802       24.054       -2.161       17.526       22.474       18.825      307.175      505.081      354.374        0.123        0.058       36.013       14.299        0.158      337.888       10.168      858.036
09/27/2014  05:44:00       50.168       41.598       -4.980       21.947       19.216       12.472      481.651      369.249      155.560        0.264        0.050       65.170       11.553        0.031      337.867       10.134      858.043
09/27/2014  05:45:00       63.922       45.577        1.101       19.156       17.206       16.604      366.944      296.052      275.699        0.355        0.047       78.507        9.770        0.015      337.860       10.117      858.045
09/27/2014  05:46:00       58.666       37.360       -2.856       24.910       16.637       15.114      620.497      276.789      228.419        0.299        0.056       69.552       10.723        0.024      337.853       10.108      858.057
09/27/2014  05:47:00       59.607       36.663        8.291       31.665       20.369       19.815     1002.641      414.878      392.643        0.339        0.091       69.980       12.817        0.034      337.861       10.121      858.063
09/27/2014  05:48:00       50.183       40.489        3.144       26.706       19.674       20.164      713.219      387.071      406.604        0.284        0.075       64.480       14.408        0.050      337.849       10.099      858.068
09/27/2014  05:49:00       66.572       35.115        8.258       19.483       21.521       16.336      379.568      463.160      266.881        0.342        0.055       75.265       14.945        0.039      337.871       10.138      858.075
09/27/2014  05:50:00       50.421       47.143        5.505       27.422       26.160       19.007      751.965      684.330      361.266        0.330        0.090       69.026       12.176        0.031      337.849       10.099      858.072
09/27/2014  05:51:00       44.662       28.602        2.859       26.695       18.891       16.183      712.641      356.887      261.883        0.208        0.067       53.035       11.674        0.048      337.839       10.083      858.071
09/27/2014  05:52:00       54.425       30.086        7.897       14.542       17.109       15.845      211.479      292.727      251.052        0.234        0.038       62.187        7.180        0.013      337.847       10.097      858.071
09/27/2014  05:53:00       38.422       15.953       -3.942       12.219       16.826       10.270      149.296      283.126      105.465        0.114        0.027       41.602        7.758        0.035      337.862       10.121      858.070
09/27/2014  05:54:00       56.793       51.359       -0.808       32.487       23.248       15.844     1055.421      540.453      251.028        0.386        0.092       76.572       14.636        0.037      337.823       10.057      858.069
09/27/2014  05:55:00       50.862       29.819        3.072       40.180       17.919       14.960     1614.409      321.106      223.816        0.282        0.108       58.959        8.904        0.023      337.810       10.038      858.071
09/27/2014  05:56:00       12.761       39.016       -1.892       15.921       26.504       11.296      253.490      702.460      127.591        0.139        0.054       41.050       14.671        0.128      337.834       10.076      858.065
09/27/2014  05:57:00       44.239       50.293       -0.643       24.283       14.281       14.197      589.675      203.945      201.568        0.274        0.050       66.981        9.974        0.022      337.831       10.068      858.070
09/27/2014  05:58:00       16.387       51.555       -5.031       12.835       26.829        9.164      164.745      719.793       83.980        0.196        0.048       54.097        9.900        0.033      337.820       10.051      858.079
09/27/2014  05:59:00       18.870       60.378       -5.069       16.202       24.938       18.951      262.515      621.896      359.156        0.264        0.062       63.258       19.293        0.093      337.816       10.045      858.084
09/27/2014  06:00:00       24.149       46.655       -8.616       14.853       15.907       11.148      220.604      253.036      124.283        0.172        0.030       52.534        7.372        0.020      337.826       10.062      858.093
09/27/2014  06:01:00        8.584        6.745       -1.510       10.007       11.767        9.499      100.139      138.460       90.235        0.023        0.016       10.917        3.782        0.120      337.829       10.070      858.105
09/27/2014  06:02:00        1.589       61.799       -9.723        4.990       17.446        8.052       24.900      304.370       64.836        0.216        0.020       61.819        8.784        0.020      337.821       10.056      858.106
09/27/2014  06:03:00        2.832       66.580       -4.036        9.967       12.639        6.809       99.346      159.757       46.360        0.238        0.015       66.640        6.054        0.008      337.814       10.044      858.106
09/27/2014  06:04:00        4.208       33.463        7.384        8.942       18.629       12.999       79.955      347.036      168.973        0.089        0.030       33.726       11.087        0.108      337.873       10.140      858.107
09/27/2014  06:05:00       -4.686       13.330        2.882        7.304       12.889       14.327       53.349      166.135      205.266        0.032        0.021       14.129        8.817        0.389      337.907       10.197      858.105
09/27/2014  06:06:00        5.159       26.076        0.536       20.966       15.210       10.426      439.581      231.347      108.695        0.074        0.039       26.582        5.348        0.040      337.850       10.100      858.102
09/27/2014  06:07:00        7.778       11.020        3.397       10.027        8.168        7.099      100.538       66.720       50.402        0.021        0.011       13.489        5.738        0.181      337.869       10.134      858.101
09/27/2014  06:08:00       10.815       44.587       -4.232        9.147       11.744        9.387       83.668      137.925       88.119        0.122        0.015       45.880        8.065        0.031      337.845       10.094      858.104
09/27/2014  06:09:00       13.241       43.077       -3.587        7.602        8.930        6.646       57.786       79.742       44.171        0.111        0.009       45.066        3.901        0.007      337.824       10.056      858.107
09/27/2014  06:10:00        0.836       33.678       -3.818        4.613        8.136        7.755       21.278       66.187       60.141        0.065        0.007       33.689        3.893        0.013      337.845       10.090      858.118
09/27/2014  06:11:00       -0.741        7.680       -5.306        2.853        8.374        6.137        8.137       70.130       37.661        0.010        0.006        7.715        6.018        0.608      337.857       10.114      858.124
09/27/2014  06:12:00      -11.658       14.185       -1.648       11.910       13.775        6.867      141.838      189.745       47.150        0.036        0.019       18.361        7.721        0.177      337.923       10.225      858.130
09/27/2014  06:13:00      -24.711       16.040        0.924       13.361       10.838       12.037      178.509      117.468      144.897        0.065        0.022       29.461        3.880        0.017      337.990       10.338      858.127
09/27/2014  06:14:00      -28.254       -3.097        3.591       24.034       17.919       15.416      577.620      321.085      237.667        0.098        0.057       28.424        8.721        0.094      337.980       10.321      858.114
09/27/2014  06:15:00      -51.262      -43.362       -1.775       31.944       17.387       15.221     1020.441      302.305      231.687        0.303        0.078       67.142       17.200        0.066      337.946       10.264      858.109
09/27/2014  06:16:00      -73.834      -44.731       -7.628       12.884        9.247        6.675      166.008       85.504       44.561        0.390        0.015       86.327        3.480        0.002      337.895       10.176      858.104
09/27/2014  06:17:00      -73.817       -4.375       -4.062       11.311       15.644       11.462      127.935      244.737      131.380        0.299        0.025       73.947        9.889        0.018      337.936       10.248      858.101
09/27/2014  06:18:00      -57.560       -7.223       -2.881       28.075       16.025       10.997      788.206      256.786      120.925        0.227        0.058       58.011        9.236        0.025      337.999       10.353      858.104
09/27/2014  06:19:00      -38.346       -7.976        1.758       25.018       17.363       12.931      625.890      301.470      167.212        0.132        0.055       39.167       12.401        0.100      338.030       10.405      858.096
09/27/2014  06:20:00      -46.416        1.262        4.418       25.628       19.055       12.900      656.781      363.096      166.419        0.168        0.059       46.433       15.094        0.106      338.066       10.465      858.089
09/27/2014  06:21:00      -32.623       -5.317        0.763       25.818       17.403       10.659      666.583      302.866      113.610        0.109        0.054       33.054        7.860        0.057      338.021       10.388      858.086
09/27/2014  06:22:00      -50.343      -44.587        3.978       30.207       19.838       16.421      912.452      393.543      269.646        0.306        0.079       67.249       14.481        0.046      338.082       10.491      858.089
09/27/2014  06:23:00      -77.805      -36.026        1.742       51.840       26.515       20.575     2687.408      703.071      423.326        0.558        0.191       85.741       24.451        0.081      338.022       10.391      858.092
09/27/2014  06:24:00     -105.763      -20.123        1.566       44.100       32.860       21.328     1944.849     1079.792      454.901        0.754        0.174      107.660       24.005        0.050      337.904       10.193      858.099
09/27/2014  06:25:00     -119.702      -61.871      -15.538       11.344       20.436       11.733      128.677      417.630      137.664        0.954        0.034      134.746        4.547        0.001      337.939       10.252      858.092
09/27/2014  06:26:00      -91.683      -31.351       -9.514       10.031        7.466        5.708      100.612       55.737       32.581        0.483        0.009       96.895        2.287        0.001      337.906       10.196      858.092
09/27/2014  06:27:00     -115.259      -48.562      -12.267       21.138       16.262        8.061      446.811      264.445       64.987        0.828        0.039      125.071        3.740        0.001      337.879       10.151      858.090
09/27/2014  06:28:00     -134.106      -38.085      -12.912       31.056       16.519       15.613      964.468      272.863      243.775        1.054        0.074      139.409       13.344        0.009      337.894       10.176      858.086
09/27/2014  06:29:00     -104.972      -47.377      -15.033       27.358       29.830       16.965      748.450      889.834      287.816        0.771        0.096      115.168       14.612        0.016      337.889       10.169      858.071
09/27/2014  06:30:00     -108.323      -10.193      -11.048       49.760       41.186       24.002     2476.087     1696.255      576.078        0.835        0.237      108.802       25.397        0.054      337.928       10.234      858.071
09/27/2014  06:31:00      -29.114      -65.045       -4.335       48.512       48.305       25.039     2353.445     2333.354      626.933        0.520        0.266       71.263       27.511        0.149      337.957       10.281      858.069
09/27/2014  06:32:00      -95.368      -22.442       -1.105       63.733       31.876       21.400     4061.931     1016.103      457.947        0.757        0.277       97.973       25.702        0.069      337.982       10.325      858.067
09/27/2014  06:33:00     -118.959      -31.573      -10.148       46.233       30.261       19.929     2137.471      915.709      397.180        0.935        0.173      123.077       20.078        0.027      337.898       10.184      858.063
09/27/2014  06:34:00     -105.032      -26.507       -6.012       43.845       28.192       20.510     1922.364      794.782      420.671        0.745        0.157      108.325       21.729        0.040      337.904       10.194      858.051
09/27/2014  06:35:00      -50.873      -44.744        6.435       48.677       46.272       20.900     2369.486     2141.139      436.815        0.479        0.247       67.750       22.397        0.109      337.944       10.260      858.051
09/27/2014  06:36:00      -76.265     -112.484        8.977       77.625       50.262       34.012     6025.682     2526.307     1156.788        1.413        0.485      135.901       37.923        0.078      337.933       10.242      858.055
09/27/2014  06:37:00      -74.130      -85.788        0.321       43.068       50.970       23.024     1854.854     2597.938      530.122        0.892        0.249      113.380       18.254        0.026      337.902       10.190      858.057
09/27/2014  06:38:00      -34.622      -75.560        1.815       47.623       46.371       22.808     2267.972     2150.244      520.185        0.592        0.247       83.114       21.233        0.065      337.991       10.338      858.058
09/27/2014  06:39:00      -44.061      -83.647       -4.829       25.962       31.087       21.594      674.037      966.382      466.297        0.553        0.105       94.542       11.269        0.014      337.960       10.287      858.058
09/27/2014  06:40:00      -75.139      -73.067       -6.511       23.242       27.704       17.898      540.194      767.515      320.332        0.633        0.081      104.808       10.316        0.010      337.943       10.259      858.049
09/27/2014  06:41:00      -80.306      -38.435       -3.370       37.650       27.408       21.073     1417.524      751.188      444.069        0.527        0.131       89.030       20.018        0.051      337.928       10.232      858.048
09/27/2014  06:42:00      -86.293      -79.625       -3.608       82.549       33.183       27.652     6814.311     1101.105      764.612        1.124        0.434      117.416       29.001        0.061      337.974       10.311      858.050
09/27/2014  06:43:00     -134.454     -107.941        4.845       75.066       69.821       45.777     5634.834     4874.930     2095.563        2.118        0.630      172.422       46.161        0.072      337.823       10.055      858.058
09/27/2014  06:44:00     -168.019      -98.279       -3.675       63.785       54.749       33.636     4068.471     2997.400     1131.392        2.305        0.410      194.651       32.170        0.027      337.836       10.078      858.063
09/27/2014  06:45:00      -79.493      -60.752        2.414       76.101       49.364       32.707     5791.371     2436.809     1069.778        0.966        0.465      100.049       38.063        0.145      337.850       10.102      858.074
09/27/2014  06:46:00      -93.944      -57.987       -5.609       53.403       37.562       34.102     2851.850     1410.871     1162.980        0.882        0.271      110.399       36.422        0.109      337.827       10.063      858.079
09/27/2014  06:47:00      -92.058      -25.607        1.355       51.444       32.004       24.673     2646.439     1024.286      608.776        0.671        0.214       95.553       25.377        0.071      337.793       10.007      858.086
09/27/2014  06:48:00      -83.010      -14.642       -5.933       30.267       41.530       19.691      916.094     1724.777      387.728        0.508        0.151       84.291        7.198        0.007      337.802       10.023      858.094
09/27/2014  06:49:00      -44.813      -41.598       12.412       50.414       37.710       29.331     2541.570     1422.013      860.326        0.436        0.241       61.144       32.997        0.291      337.905       10.193      858.103
09/27/2014  06:50:00      -52.269      -23.323        9.521       56.647       33.180       23.188     3208.924     1100.925      537.674        0.411        0.242       57.237       27.346        0.228      337.887       10.164      858.108
09/27/2014  06:51:00      -91.477      -36.988       -7.212       44.420       35.893       21.001     1973.127     1288.339      441.040        0.674        0.185       98.672       19.740        0.040      337.814       10.042      858.114
09/27/2014  06:52:00      -94.144      -22.219        0.487       47.282       32.741       25.060     2235.563     1071.968      628.015        0.665        0.197       96.730       23.419        0.059      337.806       10.027      858.116
09/27/2014  06:53:00      -92.125      -21.101        4.288       39.433       36.309       24.537     1554.994     1318.312      602.042        0.621        0.174       94.511       22.642        0.057      337.836       10.078      858.112
09/27/2014  06:54:00      -81.124      -76.897       -7.265       64.625       38.836       25.721     4176.379     1508.216      661.585        0.945        0.317      111.778       30.124        0.073      337.890       10.169      858.114
09/27/2014  06:55:00     -129.375     -100.859      -14.993       40.075       35.155       31.579     1605.992     1235.886      997.209        1.549        0.192      164.044       20.606        0.016      337.809       10.033      858.112
09/27/2014  06:56:00     -121.994      -21.036        4.276       69.053       42.128       39.292     4768.251     1774.738     1543.841        1.171        0.404      123.794       46.085        0.139      337.793       10.008      858.103
09/27/2014  06:57:00     -139.476      -66.564       -8.838       44.939       41.324       23.740     2019.544     1707.669      563.579        1.413        0.215      154.546       19.310        0.016      337.750        9.935      858.104
09/27/2014  06:58:00      -79.146      -72.989       -5.764       65.703       35.148       26.454     4316.909     1235.357      699.805        0.894        0.313      107.664       27.672        0.066      337.795       10.012      858.100
09/27/2014  06:59:00      -22.098      -49.646       11.663       46.038       33.718       24.280     2119.457     1136.884      589.538        0.347        0.192       54.342       22.984        0.179      337.910       10.203      858.096
09/27/2014  07:00:00      -81.995     -110.387      -10.449       49.314       44.099       25.102     2431.866     1944.747      630.103        1.201        0.250      137.508       19.927        0.021      337.849       10.102      858.082
09/27/2014  07:01:00      -89.508      -70.826       -1.062       49.059       37.934       27.866     2406.765     1438.968      776.516        0.882        0.231      114.140       27.479        0.058      337.883       10.160      858.069
09/27/2014  07:02:00      -81.042      -61.883        1.760       39.215       42.319       18.895     1537.849     1790.884      357.008        0.704        0.184      101.967       12.386        0.015      337.902       10.188      858.065
09/27/2014  07:03:00     -143.364      -50.429        3.789       55.018       49.602       26.367     3026.965     2460.329      695.194        1.465        0.309      151.975       23.486        0.024      337.815       10.043      858.063
09/27/2014  07:04:00     -159.607      -49.655      -13.186       36.806       49.197       24.913     1354.661     2420.365      620.635        1.625        0.220      167.153       24.484        0.021      337.795       10.009      858.061
09/27/2014  07:05:00     -112.309      -41.282        2.467       51.684       26.523       25.548     2671.220      703.461      652.704        0.917        0.201      119.656       27.687        0.054      337.820       10.052      858.055
09/27/2014  07:06:00      -60.012      -32.860        9.828       75.825       39.177       30.880     5749.480     1534.816      953.566        0.651        0.412       68.420       35.116        0.263      337.890       10.171      858.043
09/27/2014  07:07:00     -113.464      -43.646       -1.040       47.686       31.234       23.810     2273.981      975.562      566.914        0.930        0.191      121.569       20.007        0.027      337.827       10.063      858.043
09/27/2014  07:08:00      -33.155      -37.515        7.689       34.113       32.907       20.845     1163.682     1082.892      434.533        0.262        0.134       50.066       20.472        0.167      337.888       10.167      858.033
09/27/2014  07:09:00      -45.655      -39.122        0.674       30.975       21.860       14.277      959.476      477.879      203.831        0.263        0.082       60.124       15.930        0.070      337.893       10.174      858.030
09/27/2014  07:10:00     -105.988      -40.252       -8.943       62.130       37.641       20.863     3860.124     1416.836      435.251        0.932        0.286      113.374       23.474        0.043      337.858       10.116      858.027
09/27/2014  07:11:00     -162.391       -9.211       -4.468       21.998       32.336       19.441      483.898     1045.612      377.957        1.419        0.095      162.652        9.463        0.003      337.779        9.984      858.017
09/27/2014  07:12:00     -114.939      -18.280       -5.039       33.076       26.095       20.666     1094.048      680.930      427.065        0.789        0.110      116.384       16.123        0.019      337.783        9.990      858.004
09/27/2014  07:13:00      -77.677      -48.674       -0.864       34.283       27.001       21.361     1175.312      729.070      456.296        0.538        0.118       91.667       19.768        0.047      337.807       10.031      857.987
09/27/2014  07:14:00     -105.564      -77.692        0.481       36.820       33.229       25.574     1355.714     1104.148      654.028        1.015        0.156      131.071       21.588        0.027      337.796       10.012      857.982
09/27/2014  07:15:00      -63.723      -28.866       -2.818       54.992       27.416       19.140     3024.083      751.629      366.355        0.452        0.207       69.956       20.190        0.083      337.840       10.087      857.988
09/27/2014  07:16:00      -64.061      -35.394       -3.655       22.967       14.370       13.836      527.461      206.497      191.428        0.315        0.046       73.188       13.375        0.033      337.856       10.109      857.991
09/27/2014  07:17:00     -122.794      -26.944      -12.942       33.530       16.835       13.648     1124.239      283.432      186.281        0.878        0.080      125.715        8.776        0.005      337.836       10.079      857.987
09/27/2014  07:18:00      -42.185      -36.545        8.602       59.742       26.431       28.865     3569.136      698.603      833.164        0.414        0.255       55.813       35.376        0.402      337.909       10.201      857.985
09/27/2014  07:19:00      -73.992      -41.213       -1.851       30.486       21.564       18.630      929.424      464.992      347.082        0.446        0.087       84.696       12.647        0.022      337.810       10.034      857.982
09/27/2014  07:20:00      -70.729      -16.270       -8.429       22.415       17.934       18.218      502.453      321.625      331.910        0.325        0.058       72.576       14.971        0.043      337.796       10.012      857.976
09/27/2014  07:21:00      -64.992      -20.250       -6.297       11.354       23.218       13.097      128.911      539.065      171.538        0.276        0.042       68.074        8.367        0.015      337.842       10.090      857.955
09/27/2014  07:22:00      -81.661      -26.330       -7.723       24.344       15.047       12.738      592.607      226.404      162.257        0.420        0.049       85.801       12.205        0.020      337.882       10.154      857.934
09/27/2014  07:23:00      -82.453      -33.359       -5.655       27.590       21.736       12.125      761.208      472.458      147.023        0.466        0.069       88.946       14.324        0.026      337.947       10.264      857.919
09/27/2014  07:24:00      -83.045      -62.400       -8.219       33.310       32.181       20.908     1109.570     1035.603      437.136        0.672        0.129      103.876       16.353        0.025      337.951       10.272      857.909
09/27/2014  07:25:00      -33.156      -32.459       10.801       53.638       44.575       27.698     2877.042     1986.925      767.179        0.395        0.282       46.400       26.369        0.323      337.972       10.307      857.894
09/27/2014  07:26:00     -119.138      -56.676       -6.095       42.491       33.731       26.024     1805.462     1137.760      677.262        1.053        0.181      131.932       25.760        0.038      337.887       10.165      857.902
09/27/2014  07:27:00      -42.009      -33.186        0.878       25.677       25.768       14.005      659.326      663.988      196.147        0.219        0.076       53.536        9.937        0.034      337.931       10.238      857.903
09/27/2014  07:28:00      -26.197      -77.179       -1.028       28.562       30.985       17.557      815.816      960.067      308.241        0.436        0.104       81.504       16.687        0.042      338.017       10.382      857.907
09/27/2014  07:29:00      -75.486      -62.381        5.923       71.016       29.756       31.342     5043.288      885.400      982.313        0.827        0.346       97.926       35.075        0.128      338.040       10.420      857.914
09/27/2014  07:30:00     -179.199      -44.604       -7.153       76.127       67.154       42.994     5795.245     4509.651     1848.510        2.315        0.608      184.667       41.748        0.051      337.978       10.316      857.909
09/27/2014  07:31:00      -87.324      -68.110        3.924       51.984       44.029       30.097     2702.385     1938.517      905.815        0.891        0.277      110.745       28.381        0.066      338.078       10.484      857.908
09/27/2014  07:32:00      -50.101      -86.220        1.328       37.570       46.974       25.719     1411.512     2206.569      661.482        0.711        0.214       99.719       26.027        0.068      338.068       10.469      857.899
09/27/2014  07:33:00      -77.351      -62.984       -5.612       43.705       29.807       25.052     1910.121      888.438      627.627        0.670        0.171       99.750       14.910        0.022      338.081       10.492      857.899
09/27/2014  07:34:00     -119.419      -54.331        4.293       48.133       52.088       29.572     2316.795     2713.193      874.494        1.157        0.295      131.198       24.237        0.034      338.050       10.439      857.887
09/27/2014  07:35:00     -116.120      -89.537        3.307       78.374       46.657       37.344     6142.461     2176.850     1394.562        1.561        0.486      146.632       39.917        0.074      338.021       10.390      857.883
09/27/2014  07:36:00     -109.562      -76.241       -6.451       45.884       36.796       22.787     2105.383     1353.927      519.225        1.092        0.199      133.479       21.222        0.025      338.004       10.361      857.890
09/27/2014  07:37:00      -82.651      -40.018        2.310       64.228       47.777       25.825     4125.255     2282.688      666.921        0.776        0.354       91.829       23.425        0.065      338.007       10.365      857.881
09/27/2014  07:38:00      -87.313      -35.968        5.102       43.108       31.628       23.688     1858.289     1000.353      561.132        0.618        0.171       94.431       25.317        0.072      338.048       10.434      857.868
09/27/2014  07:39:00     -145.498      -18.823       -4.408       44.625       32.228       26.329     1991.395     1038.625      693.217        1.263        0.186      146.710       24.182        0.027      337.923       10.226      857.862
09/27/2014  07:40:00     -144.109      -35.478       -7.657       46.999       27.822       17.686     2208.927      774.056      312.786        1.269        0.165      148.412       18.644        0.016      337.905       10.193      857.843
09/27/2014  07:41:00     -132.379      -40.529       -1.240       46.023       32.633       24.562     2118.074     1064.889      603.268        1.148        0.189      138.444       23.370        0.028      337.976       10.314      857.840
09/27/2014  07:42:00     -122.758      -24.925       -1.124       54.115       46.139       28.914     2928.476     2128.792      836.043        1.079        0.295      125.263       29.935        0.057      337.920       10.220      857.833
09/27/2014  07:43:00     -137.469      -61.227      -10.097       37.115       32.200       22.289     1377.499     1036.854      496.817        1.283        0.146      150.488       18.217        0.015      337.886       10.162      857.824
09/27/2014  07:44:00      -70.819      -62.173        3.714       33.071       28.290       19.949     1093.665      800.305      397.950        0.559        0.115       94.238       16.452        0.030      337.964       10.294      857.815
09/27/2014  07:45:00      -92.069      -62.931        1.778       40.414       38.278       22.373     1633.309     1465.240      500.572        0.802        0.180      111.522       14.062        0.016      337.971       10.306      857.793
09/27/2014  07:46:00      -98.290      -56.721        2.125       42.829       36.546       23.037     1834.301     1335.577      530.692        0.829        0.185      113.482       21.062        0.034      337.942       10.257      857.789
09/27/2014  07:47:00     -104.339      -26.527       -1.055       42.293       28.962       27.034     1788.717      838.809      730.860        0.747        0.168      107.658       20.022        0.035      337.954       10.277      857.789
09/27/2014  07:48:00      -87.028      -61.628        6.758       64.992       44.786       29.771     4223.904     2005.742      886.332        0.927        0.356      106.639       33.215        0.097      337.944       10.260      857.784
09/27/2014  07:49:00      -95.853      -58.280       -3.085       48.020       36.481       21.831     2305.893     1330.834      476.572        0.835        0.206      112.180       24.863        0.049      337.991       10.339      857.799
09/27/2014  07:50:00      -42.240      -29.403        7.972       51.756       24.837       19.457     2678.701      616.901      378.594        0.319        0.184       51.466       21.626        0.177      338.042       10.426      857.799
09/27/2014  07:51:00      -13.084       21.488       -2.864       27.113       19.896       14.535      735.110      395.869      211.274        0.099        0.067       25.158       10.849        0.186      338.054       10.446      857.805
09/27/2014  07:52:00      -87.991       56.709      -15.839       37.958       30.067       16.448     1440.831      904.021      270.528        0.691        0.131      104.682       11.692        0.012      338.019       10.386      857.811
09/27/2014  07:53:00      -31.810       61.412       -0.686       42.746       47.287       28.695     1827.208     2236.015      823.399        0.483        0.244       69.161       20.107        0.085      338.001       10.356      857.809
09/27/2014  07:54:00      -53.879      107.242       -8.535       34.700       34.486       27.934     1204.102     1189.278      780.324        0.882        0.159      120.016       25.010        0.043      338.056       10.448      857.809
09/27/2014  07:55:00      -35.340      111.006       -5.705       24.986       25.561       22.207      624.283      653.377      493.156        0.769        0.089      116.495       16.350        0.020      338.087       10.499      857.814
09/27/2014  07:56:00       13.478      133.441      -16.960       25.884       47.326       23.121      670.003     2239.726      534.570        1.086        0.172      134.120       11.634        0.008      337.999       10.354      857.813
09/27/2014  07:57:00       23.798       20.037       -2.387       15.670       24.535       13.725      245.536      601.970      188.364        0.100        0.052       31.110        9.205        0.088      338.066       10.464      857.796
09/27/2014  07:58:00       29.799       69.526       -1.005       34.306       27.431       23.073     1176.896      752.434      532.348        0.409        0.123       75.643       15.345        0.041      338.079       10.487      857.787
09/27/2014  07:59:00        6.297       54.727       -2.920       18.005       16.567       12.976      324.191      274.477      168.379        0.191        0.038       55.088        8.340        0.023      338.033       10.411      857.804
09/27/2014  08:00:00       21.580       57.681       -4.119       14.411       27.808       15.960      207.676      773.288      254.713        0.252        0.062       61.585       14.350        0.054      338.004       10.361      857.799
09/27/2014  08:01:00       62.906       41.720        9.625       30.965       23.177       19.362      958.807      537.155      374.878        0.383        0.094       75.483       11.280        0.022      338.026       10.399      857.793
09/27/2014  08:02:00       38.511       65.909       -8.941       28.536       39.447       22.474      814.313     1556.061      505.059        0.439        0.144       76.336       21.238        0.077      337.990       10.337      857.809
09/27/2014  08:03:00       34.167       57.650       -4.234       17.573       26.433       18.141      308.808      698.692      329.104        0.292        0.067       67.014       17.183        0.066      337.979       10.317      857.821
09/27/2014  08:04:00       46.863       28.217       -0.636       21.722       30.033       20.444      471.833      901.969      417.970        0.239        0.090       54.703       16.363        0.089      338.015       10.379      857.834
09/27/2014  08:05:00       11.738       46.009       -0.931       17.694       25.320       16.923      313.077      641.089      286.378        0.175        0.062       47.483       17.023        0.129      338.027       10.399      857.853
09/27/2014  08:06:00       31.086       41.861        8.354       23.657       28.731       24.748      559.659      825.446      612.463        0.239        0.100       52.141       17.039        0.107      338.041       10.421      857.878
09/27/2014  08:07:00       28.558      115.798      -11.331       25.852       44.198       21.562      668.310     1953.484      464.925        0.872        0.154      119.267       23.482        0.039      338.042       10.424      857.894
09/27/2014  08:08:00       36.662       73.970       -4.314       29.148       20.669       19.409      849.627      427.195      376.697        0.424        0.083       82.556       12.668        0.024      338.076       10.482      857.886
09/27/2014  08:09:00       90.133       74.050        0.258       43.570       33.601       29.201     1898.374     1129.054      852.725        0.874        0.194      116.650       22.994        0.039      338.089       10.504      857.864
09/27/2014  08:10:00      113.845       51.172       -6.503       50.629       33.450       28.686     2563.299     1118.909      822.871        1.006        0.225      124.817       22.835        0.033      338.061       10.457      857.860
09/27/2014  08:11:00       88.006       58.840        9.017       41.558       40.499       23.353     1727.101     1640.167      545.355        0.760        0.196      105.864       17.229        0.026      338.075       10.481      857.864
09/27/2014  08:12:00       49.978       62.483        3.302       49.830       37.039       29.698     2483.064     1371.913      881.974        0.557        0.237       80.012       24.867        0.097      338.083       10.492      857.865
09/27/2014  08:13:00       60.705       48.302       -7.567       41.898       32.040       27.061     1755.445     1026.563      732.320        0.479        0.176       77.577       16.606        0.046      338.026       10.397      857.872
09/27/2014  08:14:00       70.766       46.288       -1.303       35.520       21.358       19.713     1261.690      456.150      388.601        0.463        0.105       84.560       16.698        0.039      338.031       10.408      857.865
09/27/2014  08:15:00       41.991       34.746       -2.681       15.611       22.582       16.044      243.709      509.932      257.415        0.199        0.051       54.503       11.127        0.042      338.088       10.501      857.848
09/27/2014  08:16:00       60.801       22.387       17.173       28.334       24.272       27.328      802.833      589.143      746.807        0.332        0.107       64.791        8.313        0.016      338.113       10.545      857.828
09/27/2014  08:17:00       35.348       20.660       13.892       32.367       20.080       20.499     1047.636      403.199      420.214        0.187        0.094       40.943       13.825        0.114      338.236       10.750      857.846
09/27/2014  08:18:00       54.927       50.655       16.640       44.812       32.936       18.342     2008.106     1084.771      336.441        0.464        0.171       74.719       22.359        0.090      338.161       10.622      857.842
09/27/2014  08:19:00      102.141       52.663       -0.418       21.697       20.728       23.137      470.760      429.656      535.342        0.732        0.072      114.919        9.162        0.006      338.088       10.500      857.850
09/27/2014  08:20:00       82.375       47.947       -5.577       25.277       19.910       15.088      638.918      396.405      227.641        0.519        0.063       95.313        6.673        0.005      338.087       10.500      857.860
09/27/2014  08:21:00       43.507       43.203       11.030       22.106       23.305       17.004      488.690      543.100      289.142        0.260        0.066       61.313        9.673        0.025      338.117       10.551      857.853
09/27/2014  08:22:00       31.373       33.482        5.356       18.714       13.122       10.642      350.211      172.194      113.260        0.138        0.032       45.884        8.214        0.032      338.161       10.624      857.846
09/27/2014  08:23:00       50.826       36.235       13.644       26.182       20.181       17.964      685.487      407.290      322.713        0.275        0.071       62.420       14.958        0.057      338.200       10.690      857.829
09/27/2014  08:24:00       70.642       42.361       -2.800       20.412       17.161       17.799      416.634      294.506      316.809        0.391        0.051       82.370       13.324        0.026      338.145       10.596      857.811
09/27/2014  08:25:00       36.493       40.447        6.323       25.010       17.913       15.132      625.494      320.889      228.992        0.209        0.059       54.476        3.608        0.004      338.188       10.668      857.810
09/27/2014  08:26:00       15.447       93.564      -15.829       16.124       18.100        8.481      259.985      327.616       71.934        0.495        0.033       94.830        8.367        0.008      338.173       10.645      857.810
09/27/2014  08:27:00       18.531       81.958      -16.639       12.960       24.070       12.274      167.955      579.351      150.639        0.412        0.045       84.026        9.562        0.013      338.214       10.713      857.818
09/27/2014  08:28:00        1.416       73.817       -8.883       25.156       40.957       20.517      632.806     1677.447      420.934        0.413        0.137       73.831       12.355        0.028      338.306       10.869      857.797
09/27/2014  08:29:00       40.148        7.281        6.375       30.512       26.483       28.663      930.955      701.375      821.549        0.208        0.123       40.803       16.794        0.169      338.381       10.992      857.789
09/27/2014  08:30:00       17.951       60.668      -19.125       36.320       29.754       20.320     1319.135      885.292      412.902        0.349        0.131       63.268       18.914        0.089      338.365       10.968      857.796
09/27/2014  08:31:00      -32.441       80.967       -8.146       41.560       64.603       27.307     1727.207     4173.528      745.690        0.716        0.332       87.224       21.511        0.061      338.443       11.097      857.795
09/27/2014  08:32:00      -68.236       38.561       -4.747       43.982       55.289       26.922     1934.453     3056.907      724.821        0.594        0.286       78.378       23.670        0.091      338.477       11.155      857.805
09/27/2014  08:33:00      -72.741      115.114      -16.942       25.302       32.405       25.318      640.207     1050.072      641.023        1.058        0.117      136.171       17.992        0.017      338.411       11.045      857.803
09/27/2014  08:34:00      -43.952       85.069      -18.791       17.515       26.767       15.898      306.780      716.468      252.752        0.540        0.064       95.753       13.706        0.020      338.438       11.089      857.805
09/27/2014  08:35:00      -26.480       47.260       -4.484       42.457       41.565       23.931     1802.573     1727.672      572.697        0.353        0.205       54.173       22.434        0.171      338.590       11.345      857.807
09/27/2014  08:36:00       18.230       96.006      -19.283       20.924       27.347       20.937      437.830      747.863      438.347        0.577        0.081       97.722       17.401        0.032      338.401       11.028      857.823
09/27/2014  08:37:00       30.854       91.681       -6.117       33.136       36.937       19.864     1097.985     1364.348      394.586        0.613        0.143       96.733       22.869        0.056      338.416       11.052      857.816
09/27/2014  08:38:00       71.689       56.617       -2.076       51.791       31.624       20.445     2682.346     1000.059      417.988        0.622        0.205       91.350       13.652        0.022      338.433       11.082      857.814
09/27/2014  08:39:00       76.292       58.314       33.123       47.532       31.938       32.294     2259.286     1020.032     1042.876        0.732        0.216       96.026       25.053        0.068      338.483       11.165      857.794
09/27/2014  08:40:00       23.928       55.003       57.235       37.432       31.757       30.186     1401.186     1008.499      911.198        0.510        0.166       59.982       23.795        0.157      338.644       11.434      857.791
09/27/2014  08:41:00       71.307       63.615       18.824       41.583       37.476       37.421     1729.115     1404.454     1400.333        0.701        0.227       95.559       27.597        0.083      338.546       11.271      857.788
09/27/2014  08:42:00       41.508       49.709       48.162       42.664       33.601       45.492     1820.208     1129.025     2069.560        0.577        0.251       64.760       28.438        0.193      338.618       11.393      857.790
09/27/2014  08:43:00       63.052       65.721       13.224       33.289       24.196       25.801     1108.189      585.434      665.670        0.541        0.118       91.076       14.250        0.024      338.441       11.094      857.787
09/27/2014  08:44:00       69.872       34.399        9.237       44.302       23.811       25.799     1962.681      566.981      665.575        0.467        0.160       77.880       20.428        0.069      338.434       11.083      857.792
09/27/2014  08:45:00       47.135       16.492       16.460       42.170       21.430       20.341     1778.302      459.261      413.744        0.271        0.133       49.937       17.062        0.117      338.577       11.324      857.797
09/27/2014  08:46:00       47.653       21.348       21.187       40.945       27.629       23.276     1676.470      763.366      541.751        0.308        0.149       52.216       11.708        0.050      338.560       11.295      857.804
09/27/2014  08:47:00       44.632       61.248       -3.358       26.816       23.637       22.600      719.083      558.712      510.767        0.377        0.089       75.785        7.121        0.009      338.501       11.194      857.811
09/27/2014  08:48:00       91.290       77.889        9.811       43.923       40.618       29.332     1929.243     1649.841      860.362        0.947        0.222      120.002       16.023        0.018      338.490       11.175      857.810
09/27/2014  08:49:00      117.982       91.706       17.039       40.823       22.763       23.504     1666.526      518.163      552.428        1.268        0.137      149.431       12.998        0.008      338.382       10.997      857.816
09/27/2014  08:50:00      111.411       82.252       20.942       37.677       26.987       30.924     1419.541      728.308      956.322        1.136        0.155      138.484       21.349        0.024      338.475       11.153      857.808
09/27/2014  08:51:00       68.709       76.538       49.750       48.525       31.002       37.344     2354.683      961.146     1394.580        0.888        0.236      102.854       29.212        0.081      338.611       11.380      857.806
09/27/2014  08:52:00      126.080       54.455       20.463       44.726       45.135       34.171     2000.451     2037.162     1167.626        1.224        0.260      137.337       23.105        0.028      338.557       11.289      857.812
09/27/2014  08:53:00      127.413       66.500       13.233       68.492       51.073       37.335     4691.150     2608.501     1393.900        1.476        0.435      143.723       13.890        0.009      338.551       11.278      857.835
09/27/2014  08:54:00      146.289       51.202        9.292       53.767       39.407       41.218     2890.903     1552.946     1698.918        1.512        0.307      154.990       24.958        0.026      338.559       11.292      857.846
09/27/2014  08:55:00       74.847       72.385        7.457       39.548       43.291       35.791     1564.031     1874.097     1280.974        0.781        0.236      104.124       30.502        0.086      338.580       11.327      857.869
09/27/2014  08:56:00       81.539       54.373       28.935       42.654       30.556       27.569     1819.379      933.672      760.052        0.698        0.176       98.005       11.749        0.014      338.651       11.447      857.869
09/27/2014  08:57:00       84.046       56.025       12.113       35.813       32.686       29.062     1282.572     1068.385      844.575        0.677        0.160      101.008       13.704        0.018      338.651       11.446      857.884
09/27/2014  08:58:00      102.238       55.257       10.261       40.314       44.828       32.617     1625.220     2009.576     1063.850        0.915        0.235      116.215       21.356        0.034      338.640       11.429      857.881
09/27/2014  08:59:00      124.446       79.256       16.400       55.967       43.245       34.304     3132.341     1870.158     1176.750        1.411        0.309      147.541       11.069        0.006      338.605       11.370      857.875
09/27/2014  09:00:00      133.321       99.827       -5.180       55.940       43.923       30.643     3129.299     1929.236      938.989        1.688        0.300      166.553       29.244        0.031      338.552       11.279      857.885
09/27/2014  09:01:00      140.185       76.278        8.882       55.258       35.514       38.779     3053.408     1261.268     1503.821        1.568        0.291      159.594       30.679        0.037      338.600       11.361      857.882
09/27/2014  09:02:00      115.011       74.913       -2.601       55.762       44.915       36.011     3109.386     2017.344     1296.790        1.263        0.321      137.257       28.378        0.043      338.615       11.385      857.906
09/27/2014  09:03:00       65.744       80.717        6.829       38.793       52.244       39.728     1504.904     2729.420     1578.275        0.835        0.291      104.103       27.827        0.071      338.629       11.411      857.914
09/27/2014  09:04:00       -2.376      160.754      -22.215       29.321       25.142       18.762      859.694      632.096      352.027        1.409        0.092      160.772       12.645        0.006      338.604       11.370      857.921
09/27/2014  09:05:00       20.862       95.143      -13.610       35.648       53.837       24.687     1270.791     2898.433      609.468        0.722        0.239       97.403       26.286        0.073      338.693       11.520      857.930
09/27/2014  09:06:00       73.218       58.300       22.588       50.985       28.805       32.133     2599.443      829.712     1032.500        0.687        0.223       93.594       19.790        0.045      338.711       11.547      857.915
09/27/2014  09:07:00       25.374      120.965       -5.106       30.796       68.721       28.377      948.364     4722.642      805.266        1.089        0.324      123.598       36.851        0.089      338.657       11.456      857.908
09/27/2014  09:08:00       17.086      157.350      -20.103       27.527       40.106       26.830      757.710     1608.477      719.870        1.427        0.154      158.275       24.273        0.024      338.634       11.420      857.908
09/27/2014  09:09:00      -10.619      162.770      -23.004       36.406       27.161       17.511     1325.423      737.747      306.639        1.475        0.118      163.116       13.170        0.007      338.620       11.396      857.900
09/27/2014  09:10:00       16.274      114.419      -17.016       39.218       35.601       22.981     1538.026     1267.436      528.128        0.849        0.167      115.571       17.709        0.023      338.718       11.560      857.897
09/27/2014  09:11:00      -10.699      136.398      -16.526       39.181       45.807       20.812     1535.155     2098.277      433.146        1.153        0.203      136.817       16.493        0.015      338.754       11.620      857.885
09/27/2014  09:12:00       20.085      134.747      -15.456       39.889       56.721       28.180     1591.136     3217.249      794.129        1.220        0.280      136.236       30.996        0.052      338.656       11.455      857.875
09/27/2014  09:13:00      -11.562      125.178      -13.397       20.867       31.334       21.995      435.438      981.796      483.797        0.894        0.095      125.711       19.087        0.023      338.683       11.502      857.865
09/27/2014  09:14:00       -9.533      132.266      -20.139       32.263       20.819       14.675     1040.892      433.413      215.354        0.984        0.084      132.609        9.109        0.005      338.698       11.527      857.867
09/27/2014  09:15:00       10.621      111.181      -15.058       37.389       48.795       23.198     1397.923     2380.914      538.170        0.851        0.216      111.687       22.191        0.039      338.708       11.543      857.866
09/27/2014  09:16:00      -22.365       84.444       -8.311       46.083       51.441       27.654     2123.685     2646.181      764.724        0.662        0.277       87.355       31.663        0.131      338.811       11.717      857.864
09/27/2014  09:17:00       20.419       10.109       11.730       68.788       37.246       27.213     4731.726     1387.240      740.560        0.376        0.343       22.785       21.710        0.908      338.824       11.738      857.848
09/27/2014  09:18:00      -20.335      269.087      -34.810       39.415       83.561       30.452     1553.517     6982.435      927.336        4.175        0.473      269.855       37.820        0.020      338.728       11.573      857.851
09/27/2014  09:19:00      -29.909      297.903      -35.818       42.482       52.854       26.035     1804.744     2793.564      677.827        4.810        0.264      299.401       23.845        0.006      338.693       11.513      857.861
09/27/2014  09:20:00      -95.250      211.561      -34.103       55.065       89.263       27.358     3032.104     7967.845      748.475        3.337        0.587      232.014       21.641        0.009      338.733       11.580      857.865
09/27/2014  09:21:00      -73.004       91.806      -21.478       57.808       45.865       24.773     3341.738     2103.601      613.713        1.014        0.303      117.294       31.557        0.072      338.737       11.591      857.877
09/27/2014  09:22:00      -88.223       46.660      -21.451       27.183       41.553       17.594      738.902     1726.625      309.555        0.660        0.139       99.802       15.605        0.024      338.843       11.769      857.877
09/27/2014  09:23:00      -47.035        6.603       -0.263       46.593       50.337       28.908     2170.910     2533.821      835.691        0.390        0.277       47.496       29.446        0.384      338.922       11.904      857.876
09/27/2014  09:24:00       -4.692       13.456       18.433       27.710       19.384       24.504      767.850      375.747      600.441        0.114        0.087       14.250       16.135        1.282      339.136       12.262      857.887
09/27/2014  09:25:00      -20.984      100.296       -7.188       42.484       94.820       29.674     1804.932     8990.804      880.538        1.111        0.584      102.468       44.726        0.191      338.963       11.973      857.901
09/27/2014  09:26:00      -26.445      208.003      -18.886       31.929       79.306       27.847     1019.489     6289.514      775.431        2.620        0.404      209.677       29.881        0.020      338.875       11.821      857.904
09/27/2014  09:27:00        5.442      220.454      -31.599       41.132       74.241       35.888     1691.838     5511.741     1287.981        2.906        0.425      220.521       38.217        0.030      338.822       11.732      857.911
09/27/2014  09:28:00      -14.931      168.193       -9.073       68.771       77.911       39.627     4729.517     6070.176     1570.323        2.048        0.619      168.854       41.544        0.061      338.889       11.846      857.928
09/27/2014  09:29:00      -60.291      200.393      -20.287       49.690       62.196       32.874     2469.053     3868.339     1080.716        2.581        0.371      209.266       32.318        0.024      338.881       11.833      857.945
09/27/2014  09:30:00      -85.979      169.851      -15.230       36.253       58.205       32.218     1314.304     3387.765     1037.970        2.111        0.287      190.373       28.040        0.022      338.842       11.766      857.947
09/27/2014  09:31:00      -56.054      101.277       -6.622       52.308       60.251       34.047     2736.096     3630.183     1159.188        1.048        0.376      115.755       19.174        0.027      338.872       11.819      857.936
09/27/2014  09:32:00       -9.599      154.702       -6.880       62.253       87.459       31.823     3875.386     7648.997     1012.683        1.830        0.627      155.000       40.093        0.067      338.866       11.807      857.920
09/27/2014  09:33:00      -19.736      214.194      -26.632       25.126       33.326       19.945      631.293     1110.650      397.799        2.456        0.107      215.102       13.901        0.004      338.753       11.616      857.906
09/27/2014  09:34:00      -16.636       65.454       -4.954       27.673       51.044       22.352      765.778     2605.468      499.629        0.423        0.194       67.535       20.410        0.091      338.876       11.826      857.893
09/27/2014  09:35:00        4.002      109.466      -31.665       23.545       80.274       23.751      554.369     6443.889      564.092        1.028        0.378      109.539       33.343        0.093      338.815       11.723      857.886
09/27/2014  09:36:00      -35.274       37.279        1.709       25.323       36.169       20.990      641.244     1308.205      440.567        0.251        0.120       51.322       19.844        0.150      338.877       11.826      857.879
09/27/2014  09:37:00      -47.304       10.195      -15.192       19.967       21.936       12.378      398.667      481.189      153.218        0.180        0.052       48.390        9.265        0.037      338.797       11.693      857.884
09/27/2014  09:38:00      -73.915       27.312      -19.945       18.117       24.810       17.875      328.241      615.540      319.501        0.394        0.063       78.800       10.137        0.017      338.787       11.678      857.901
09/27/2014  09:39:00      -75.214      -25.717      -17.507       19.376       21.221       17.674      375.447      450.322      312.367        0.388        0.057       79.489       11.388        0.021      338.860       11.800      857.912
09/27/2014  09:40:00      -61.021       -8.185       -6.238       31.129       36.994       21.711      969.044     1368.586      471.376        0.332        0.140       61.568       17.535        0.081      338.896       11.858      857.932
09/27/2014  09:41:00      -86.582       34.875      -10.407       42.231       23.173       22.685     1783.479      537.001      514.589        0.583        0.142       93.342       19.341        0.043      338.925       11.907      857.947
09/27/2014  09:42:00     -125.513       35.714      -13.972       35.040       26.826       17.897     1227.811      719.648      320.288        0.975        0.113      130.495       12.858        0.010      338.915       11.891      857.957
09/27/2014  09:43:00     -120.754       50.268      -12.542       64.779       50.022       28.079     4196.268     2502.245      788.435        1.238        0.374      130.799       27.909        0.046      338.939       11.931      857.977
09/27/2014  09:44:00     -178.011        7.214      -22.326       48.232       46.808       30.399     2326.335     2191.003      924.070        1.884        0.272      178.157       28.780        0.026      338.893       11.853      857.991
09/27/2014  09:45:00     -153.090       26.114      -15.201       55.485       43.769       36.390     3078.579     1915.732     1324.249        1.533        0.316      155.301       35.770        0.053      338.901       11.866      857.998
09/27/2014  09:46:00     -130.935       11.869      -20.497       55.716       43.529       37.982     3104.288     1894.807     1442.610        1.207        0.322      131.471       30.245        0.053      338.923       11.905      858.008
09/27/2014  09:47:00      -84.375       74.567       -8.363       74.933       62.643       47.293     5614.954     3924.157     2236.645        1.226        0.589      112.603       32.639        0.084      338.975       11.992      858.016
09/27/2014  09:48:00      -32.260       36.658        6.391       55.460       51.565       32.938     3075.856     2658.950     1084.898        0.462        0.341       48.831       31.979        0.429      339.102       12.206      858.013
09/27/2014  09:49:00     -122.379      289.185      -36.661       83.544       61.966       46.203     6979.664     3839.835     2134.693        5.645        0.648      314.014       37.778        0.014      338.932       11.915      858.029
09/27/2014  09:50:00     -169.178      279.292      -41.637       84.159      123.650       48.177     7082.722    15289.418     2320.983        6.652        1.235      326.536       46.799        0.021      338.861       11.798      858.037
09/27/2014  09:51:00      -76.134      143.924        5.825       69.092       84.042       49.727     4773.636     7063.125     2472.811        2.042        0.715      162.821       52.930        0.106      338.953       11.954      858.038
09/27/2014  09:52:00     -159.797      192.277      -21.645       81.986      104.410       48.668     6721.643    10901.485     2368.538        4.148        1.000      250.011       45.801        0.034      338.835       11.753      858.040
09/27/2014  09:53:00     -176.937      242.402      -51.759       93.218      125.380       54.553     8689.508    15720.167     2976.029        6.006        1.369      300.109       58.682        0.038      338.755       11.619      858.056
09/27/2014  09:54:00     -159.673      301.948      -44.787       82.209       88.466       48.943     6758.275     7826.254     2395.433        6.782        0.849      341.567       48.457        0.020      338.762       11.630      858.061
09/27/2014  09:55:00     -152.543      216.831      -44.652       93.682       73.862       52.630     8776.269     5455.526     2769.924        4.464        0.850      265.113       59.354        0.050      338.797       11.690      858.049
09/27/2014  09:56:00     -153.378      196.474      -35.133       71.884       86.839       48.285     5167.293     7540.996     2331.480        3.920        0.752      249.253       47.069        0.036      338.741       11.596      858.039
09/27/2014  09:57:00     -144.745      228.764      -29.929       66.987       83.779       55.200     4487.277     7018.933     3047.019        4.436        0.728      270.710       41.248        0.023      338.737       11.588      858.026
09/27/2014  09:58:00     -154.124       82.633      -17.636       95.674       72.797       41.600     9153.552     5299.452     1730.587        2.354        0.809      174.878       38.893        0.049      338.781       11.665      858.035
09/27/2014  09:59:00     -120.443       86.525      -21.998       68.623       56.097       37.908     4709.114     3146.868     1437.027        1.588        0.465      148.301       31.280        0.044      338.794       11.685      858.043
09/27/2014  10:00:00      -65.620      192.936      -12.310       82.693       87.537       46.691     6838.111     7662.746     2180.051        2.918        0.834      203.790       41.363        0.041      338.762       11.632      858.026
09/27/2014  10:01:00     -186.303      255.530      -47.281       81.001       90.337       57.200     6561.116     8160.856     3271.815        6.011        0.900      316.235       50.410        0.025      338.691       11.510      858.013
09/27/2014  10:02:00     -118.340      213.061      -33.841       83.838       94.157       46.007     7028.870     8865.557     2116.663        3.927        0.901      243.720       39.872        0.027      338.687       11.506      858.003
09/27/2014  10:03:00      -53.126      313.113      -36.311       90.809      135.118       64.470     8246.359    18256.893     4156.348        6.642        1.533      317.588       73.083        0.053      338.721       11.561      857.959
09/27/2014  10:04:00     -175.704      194.502      -33.682      115.044       97.070       61.934    13235.037     9422.500     3835.880        4.816        1.325      262.112       61.837        0.056      338.760       11.629      857.975
09/27/2014  10:05:00     -217.078      139.416      -37.888      105.404       99.893       55.752    11109.938     9978.589     3108.332        4.609        1.210      257.992       50.727        0.039      338.769       11.643      857.967
09/27/2014  10:06:00      -93.837       16.879      -23.884       70.505       74.851       37.331     4970.964     5602.639     1393.571        1.081        0.598       95.343       36.913        0.150      338.802       11.701      857.956
09/27/2014  10:07:00      -49.938        8.713       -3.241       30.496       63.776       29.473      929.983     4067.366      868.642        0.422        0.293       50.693       25.254        0.248      338.903       11.870      857.946
09/27/2014  10:08:00      -97.793       44.703       -5.008       59.947       65.135       46.822     3593.672     4242.616     2192.292        1.081        0.501      107.526       32.065        0.089      338.846       11.775      857.943
09/27/2014  10:09:00      -64.803      126.291        0.218       61.614       97.847       52.022     3796.341     9574.007     2706.328        1.811        0.804      141.946       39.231        0.076      338.836       11.757      857.936
09/27/2014  10:10:00      -68.572      268.915      -21.730       69.396      142.697       44.176     4815.826    20362.391     1951.493        5.231        1.356      277.520       41.317        0.022      338.773       11.650      857.928
09/27/2014  10:11:00      -48.810      120.024       -4.678       40.344       61.768       34.151     1627.602     3815.250     1166.322        1.171        0.330      129.569       31.778        0.060      338.948       11.945      857.933
09/27/2014  10:12:00     -154.455      222.599      -41.448      108.513       78.761       50.353    11774.990     6203.282     2535.448        4.782        1.026      270.936       63.641        0.055      338.892       11.850      857.958
09/27/2014  10:13:00      -96.326      210.309      -19.497       58.958       90.147       48.931     3475.987     8126.415     2394.204        3.394        0.700      231.320       43.793        0.036      338.907       11.874      857.957
09/27/2014  10:14:00      -93.137      191.001      -15.422       68.649      119.267       43.412     4712.678    14224.623     1884.593        3.310        1.041      212.500       48.635        0.052      338.998       12.028      857.959
09/27/2014  10:15:00     -126.174      228.633      -21.983       57.125       76.655       38.311     3263.304     5875.920     1467.755        3.964        0.530      261.138       39.044        0.022      338.910       11.880      857.974
09/27/2014  10:16:00     -105.830      142.484      -14.383       53.713       58.400       46.513     2885.042     3410.550     2163.475        2.008        0.423      177.488       33.529        0.036      339.024       12.072      857.985
09/27/2014  10:17:00     -183.646       41.164      -16.116       87.879       93.659       45.071     7722.678     8771.989     2031.367        2.710        0.926      188.203       38.892        0.043      339.013       12.053      858.008
09/27/2014  10:18:00     -215.076      -63.780       -7.855       79.457       80.349       40.650     6313.344     6455.969     1652.419        3.240        0.721      224.333       38.615        0.030      338.998       12.028      858.008
09/27/2014  10:19:00     -136.263       -4.760       -0.515      109.094      110.997       43.073    11901.418    12320.294     1855.264        2.233        1.304      136.346       50.824        0.139      339.018       12.062      858.027
09/27/2014  10:20:00      -96.521      105.031      -16.441       53.082       59.883       37.547     2817.709     3585.931     1409.793        1.421        0.391      142.646       36.789        0.067      338.961       11.968      858.035
09/27/2014  10:21:00      -85.026      191.260      -20.223       60.711       68.053       42.884     3685.844     4631.278     1838.996        2.719        0.508      209.308       34.372        0.027      338.966       11.974      858.026
09/27/2014  10:22:00      -42.455       57.541        0.153       60.908       45.610       36.431     3709.769     2080.303     1327.195        0.611        0.356       71.508       39.332        0.303      339.026       12.078      858.005
09/27/2014  10:23:00      -37.811      131.942      -11.548       75.348      115.186       42.987     5677.357    13267.889     1847.881        1.988        1.040      137.253       37.831        0.076      339.021       12.068      857.993
09/27/2014  10:24:00      -68.607      125.163       -7.398       69.531       95.511       45.508     4834.497     9122.336     2070.958        1.822        0.801      142.733       49.876        0.122      339.134       12.259      858.006
09/27/2014  10:25:00      -87.978      124.543      -12.245       88.951       61.634       42.418     7912.291     3798.753     1799.274        1.845        0.676      152.483       45.048        0.087      339.100       12.202      858.020
09/27/2014  10:26:00     -116.364        6.313       -8.473       41.069       50.261       24.292     1686.639     2526.188      590.087        0.923        0.240      116.535       13.314        0.013      339.207       12.382      858.014
09/27/2014  10:27:00      -79.670        6.629        7.921       72.757       48.300       28.367     5293.583     2332.935      804.679        0.744        0.422       79.945       32.962        0.170      339.093       12.190      858.022
09/27/2014  10:28:00      -49.429      124.778      -10.574       48.462       81.876       41.730     2348.600     6703.699     1741.398        1.446        0.540      134.212       41.692        0.097      339.071       12.151      858.018
09/27/2014  10:29:00      -21.735       91.950        1.835       45.244       52.517       32.421     2047.024     2758.044     1051.149        0.739        0.293       94.484       29.752        0.099      339.144       12.276      858.005
09/27/2014  10:30:00      -65.393      114.974       -3.545       50.208       67.457       33.769     2520.833     4550.432     1140.334        1.286        0.411      132.269       38.342        0.084      339.139       12.266      858.014
09/27/2014  10:31:00      -67.420      116.572      -16.433       36.108       30.130       21.218     1303.789      907.811      450.220        1.053        0.133      134.664       17.834        0.018      339.159       12.300      858.002
09/27/2014  10:32:00      -34.165      111.295      -14.966       22.124       66.076       21.601      489.493     4366.012      466.623        0.955        0.266      116.421       27.361        0.055      339.077       12.163      857.998
09/27/2014  10:33:00       21.252      110.863      -11.787       29.512       42.172       23.819      870.967     1778.517      567.338        0.805        0.161      112.882       20.918        0.034      339.028       12.079      857.998
09/27/2014  10:34:00      -12.253       52.729       -4.610       25.748       35.892       17.233      662.940     1288.250      296.986        0.260        0.112       54.134       19.284        0.127      339.063       12.139      857.997
09/27/2014  10:35:00        2.205       18.941       10.612       14.572       25.264       22.006      212.338      638.266      484.278        0.091        0.067       19.069        9.688        0.258      339.144       12.276      857.994
09/27/2014  10:36:00      -36.170       -9.774       -7.579       34.215       24.585       16.022     1170.673      604.427      256.702        0.175        0.102       37.467       13.178        0.124      339.153       12.292      857.969
09/27/2014  10:37:00       -8.032      -14.653       19.618       41.644       30.719       18.635     1734.262      943.675      347.278        0.184        0.151       16.710       21.458        1.649      339.221       12.405      857.957
09/27/2014  10:38:00     -195.570      -68.284      -16.374       54.637       37.924       22.076     2985.157     1438.234      487.349        2.404        0.246      207.148       20.906        0.010      339.082       12.170      857.964
09/27/2014  10:39:00     -129.805      -19.960       -6.454       62.203       42.342       29.721     3869.227     1792.838      883.311        1.192        0.327      131.331       30.002        0.052      339.179       12.334      857.988
09/27/2014  10:40:00      -83.671       45.711       -4.270       66.939       86.137       39.619     4480.784     7419.502     1569.628        1.129        0.673       95.344       34.044        0.127      339.112       12.221      857.999
09/27/2014  10:41:00     -158.950      -34.340      -16.394       56.064       80.029       33.315     3143.184     6404.659     1109.916        1.868        0.533      162.617       30.479        0.035      339.062       12.136      857.982
09/27/2014  10:42:00     -168.221       18.503      -21.017       65.290       47.515       30.193     4262.814     2257.700      911.606        1.826        0.372      169.236       31.655        0.035      339.047       12.112      857.981
09/27/2014  10:43:00     -128.663      -20.835        3.771       72.210       68.757       33.885     5214.215     4727.509     1148.207        1.404        0.554      130.339       17.424        0.018      339.184       12.344      857.983
09/27/2014  10:44:00      -37.148       11.406        6.246       45.063       52.157       34.437     2030.672     2720.389     1185.933        0.374        0.297       38.859       26.433        0.463      339.259       12.469      857.990
09/27/2014  10:45:00     -119.513       71.201      -28.985       64.890       95.736       36.951     4210.697     9165.306     1365.377        1.746        0.737      139.115       34.546        0.062      339.163       12.308      857.999
09/27/2014  10:46:00     -131.398      192.477      -21.144       90.992      176.265       57.693     8279.511    31069.507     3328.464        4.871        2.134      233.051       67.097        0.083      339.142       12.271      858.011
09/27/2014  10:47:00     -124.364      237.449      -40.129       67.954      105.844       45.454     4617.731    11202.915     2066.073        4.567        0.894      268.045       40.586        0.023      339.112       12.219      858.009
09/27/2014  10:48:00     -146.059      254.277      -39.833       92.193      101.534       60.543     8499.474    10309.250     3665.427        5.502        1.124      293.241       61.272        0.044      339.121       12.234      858.018
09/27/2014  10:49:00     -129.706      150.378      -31.258       83.758       71.978       44.160     7015.375     5180.776     1950.066        2.728        0.707      198.588       50.257        0.064      339.136       12.261      858.032
09/27/2014  10:50:00     -120.076      131.160      -24.387       70.751       73.719       38.250     5005.700     5434.461     1463.029        2.206        0.595      177.823       36.528        0.042      339.079       12.165      858.038
09/27/2014  10:51:00     -100.418      236.221      -30.678       65.100       77.220       42.094     4237.952     5962.969     1771.939        3.940        0.599      256.679       37.039        0.021      339.025       12.072      858.036
09/27/2014  10:52:00      -83.568      111.975      -22.490       49.873       79.617       36.816     2487.339     6338.813     1355.400        1.510        0.509      139.722       33.114        0.056      339.157       12.297      858.033
09/27/2014  10:53:00     -136.535      135.941      -29.526       77.405       64.935       39.717     5991.459     4216.514     1577.415        2.489        0.589      192.670       40.558        0.044      339.105       12.208      858.042
09/27/2014  10:54:00      -84.866      210.865      -16.679       80.140      101.437       52.183     6422.342    10289.417     2723.075        3.569        0.972      227.302       56.311        0.061      339.094       12.189      858.045
09/27/2014  10:55:00     -140.094      258.350      -34.888       58.564       69.022       47.444     3429.792     4764.059     2250.955        4.901        0.522      293.889       40.990        0.019      339.047       12.108      858.030
09/27/2014  10:56:00      -95.124      255.639      -28.712       66.549       87.927       48.684     4428.787     7731.114     2370.166        4.487        0.727      272.763       45.515        0.028      339.070       12.148      858.035
09/27/2014  10:57:00      -53.756      230.632      -28.022       43.527       73.403       31.665     1894.642     5388.029     1002.683        3.257        0.414      236.814       32.540        0.019      339.099       12.197      858.026
09/27/2014  10:58:00      -22.483      296.725      -34.164       72.173      110.723       50.166     5208.885    12259.591     2516.665        5.485        0.999      297.575       48.986        0.027      339.121       12.233      858.017
09/27/2014  10:59:00      -25.392      323.957      -35.977       62.951       95.596       52.671     3962.782     9138.646     2774.250        6.138        0.794      324.950       54.582        0.028      339.076       12.158      858.005
09/27/2014  11:00:00      -16.383      306.961      -37.471       60.592       79.714       41.280     3671.427     6354.344     1704.057        5.381        0.586      307.398       38.363        0.016      339.061       12.132      857.992
09/27/2014  11:01:00      -42.117      260.992      -39.342       67.547       74.251       42.569     4562.564     5513.189     1812.130        4.166        0.594      264.368       34.963        0.017      339.157       12.295      857.981
09/27/2014  11:02:00      -45.749      198.185      -19.818       55.023       72.322       39.231     3027.531     5230.499     1539.060        2.578        0.490      203.397       25.765        0.016      339.247       12.448      857.971
09/27/2014  11:03:00      -36.964      234.656      -38.621       81.109      105.376       39.794     6578.609    11104.111     1583.570        3.859        0.963      237.550       45.771        0.037      339.219       12.398      857.972
09/27/2014  11:04:00      -88.346      175.079      -12.021       89.420       88.345       46.278     7996.026     7804.903     2141.640        2.827        0.897      196.106       46.015        0.055      339.259       12.468      857.970
09/27/2014  11:05:00      -57.162      252.732      -25.388       59.286      112.900       41.679     3514.852    12746.471     1737.179        4.289        0.900      259.116       27.364        0.011      339.169       12.314      857.958
09/27/2014  11:06:00     -185.074      183.129      -44.769       95.436      101.954       48.308     9108.015    10394.662     2333.658        4.581        1.092      260.363       41.540        0.025      339.197       12.362      857.958
09/27/2014  11:07:00      -96.403      180.886      -32.154       62.235       84.987       34.039     3873.231     7222.844     1158.630        2.765        0.613      204.972       32.863        0.026      339.200       12.368      857.954
09/27/2014  11:08:00     -127.844       99.272      -30.850       54.171       51.178       30.128     2934.490     2619.206      907.697        1.681        0.323      161.861       26.710        0.027      339.228       12.418      857.946
09/27/2014  11:09:00      -35.374      105.630      -11.673       50.901       64.634       32.494     2590.866     4177.567     1055.885        1.018        0.391      111.396       30.571        0.075      339.317       12.566      857.935
09/27/2014  11:10:00      -85.022       59.491       -8.903       47.619       47.057       38.052     2267.574     2214.336     1447.977        0.839        0.296      103.769       32.472        0.098      339.375       12.668      857.922
09/27/2014  11:11:00     -197.194       52.469      -27.060      139.838       88.140       56.084    19554.543     7768.620     3145.361        3.641        1.523      204.055       70.517        0.119      339.295       12.528      857.915
09/27/2014  11:12:00     -295.060       87.831      -52.656      131.143      123.940       67.801    17198.578    15361.095     4597.000        6.735        1.858      307.855       64.197        0.043      339.157       12.295      857.917
09/27/2014  11:13:00     -248.592        7.202      -11.667      109.291      105.611       67.593    11944.537    11153.738     4568.772        4.482        1.383      248.696       62.851        0.064      339.134       12.256      857.918
09/27/2014  11:14:00     -150.667       37.408      -15.355      127.997       70.816       44.763    16383.269     5014.960     2003.739        2.386        1.170      155.242       56.147        0.131      339.177       12.331      857.920
09/27/2014  11:15:00      -97.144       64.906      -15.656       51.667       67.608       35.631     2669.503     4570.846     1269.587        1.120        0.425      116.832       28.539        0.060      339.321       12.573      857.917
09/27/2014  11:16:00     -156.082      -42.082      -11.260       66.775       63.262       39.978     4458.966     4002.029     1598.233        1.816        0.503      161.655       29.782        0.034      339.291       12.521      857.922
09/27/2014  11:17:00     -237.072       49.477      -27.791       79.551       74.507       48.673     6328.314     5551.264     2369.041        3.683        0.712      242.180       32.648        0.018      339.192       12.353      857.941
09/27/2014  11:18:00     -295.633       23.074      -37.051      121.412      117.765       53.003    14740.893    13868.637     2809.265        6.036        1.571      296.532       53.247        0.032      339.069       12.147      857.942
09/27/2014  11:19:00      -92.809       23.802       -4.302       55.859       56.593       32.847     3120.205     3202.755     1078.931        0.830        0.370       95.813       22.350        0.054      339.151       12.288      857.948
09/27/2014  11:20:00     -173.298      174.436      -42.077       72.189       75.869       46.573     5211.289     5756.150     2169.085        3.768        0.657      245.886       40.152        0.027      339.095       12.191      857.958
09/27/2014  11:21:00      -95.093      155.587      -18.889       67.657       88.303       39.684     4577.483     7797.401     1574.855        2.378        0.697      182.346       29.571        0.026      339.117       12.230      857.966
09/27/2014  11:22:00      -57.830       90.762       -6.445       52.762       62.805       36.044     2783.879     3944.474     1299.166        0.982        0.401      107.620       32.650        0.092      339.149       12.283      857.956
09/27/2014  11:23:00      -91.279      107.021      -26.338       55.481       52.084       23.126     3078.192     2712.750      534.825        1.340        0.316      140.660       28.385        0.041      339.098       12.199      857.959
09/27/2014  11:24:00     -111.553      142.317       -4.506       80.750       70.371       53.473     6520.573     4952.067     2859.400        2.352        0.717      180.827       45.705        0.064      339.184       12.342      857.971
09/27/2014  11:25:00      -98.816      158.744      -32.265       74.969       55.388       38.334     5620.405     3067.868     1469.505        2.308        0.508      186.987       34.448        0.034      339.072       12.153      857.973
09/27/2014  11:26:00      -69.580      152.136      -12.874       60.819       76.964       38.171     3698.943     5923.483     1457.032        1.961        0.554      167.292       38.345        0.053      339.059       12.131      857.970
09/27/2014  11:27:00      -95.669      186.296      -21.381       79.118       78.568       38.049     6259.612     6172.950     1447.747        2.910        0.694      209.425       47.933        0.052      339.059       12.131      857.974
09/27/2014  11:28:00     -200.231      148.345      -42.156       94.957      100.954       46.333     9016.783    10191.671     2146.710        4.261        1.068      249.196       46.645        0.035      339.008       12.044      857.962
09/27/2014  11:29:00     -161.828      186.725      -33.782      106.536      124.821       50.972    11350.003    15580.194     2598.188        4.586        1.476      247.092       42.111        0.029      339.013       12.054      857.991
09/27/2014  11:30:00     -175.411       30.244      -13.239      103.535      107.891       53.876    10719.513    11640.440     2902.604        2.856        1.263      177.999       53.202        0.089      339.032       12.086      857.974
09/27/2014  11:31:00     -223.272       32.403      -20.831       93.729      112.314       56.959     8785.202    12614.530     3244.361        3.798        1.232      225.611       54.501        0.058      338.920       11.895      857.969
09/27/2014  11:32:00      -96.490       26.734        1.397       92.059       74.222       53.492     8474.821     5508.862     2861.366        1.343        0.842      100.125       46.700        0.218      339.008       12.047      857.973
09/27/2014  11:33:00      -93.521       31.044       -2.783       82.979       71.055       48.821     6885.553     5048.793     2383.523        1.202        0.716       98.539       44.024        0.200      339.002       12.036      857.987
09/27/2014  11:34:00      -87.947      135.274       -9.507       65.944       88.156       42.595     4348.553     7771.480     1814.292        2.003        0.697      161.350       39.015        0.058      339.000       12.033      857.980
09/27/2014  11:35:00     -129.674       91.013       -1.424       71.110       72.309       38.225     5056.615     5228.653     1461.145        1.842        0.587      158.426       38.950        0.060      339.006       12.044      857.979
09/27/2014  11:36:00     -108.155       23.826      -18.568       98.044       57.470       44.375     9612.633     3302.857     1969.165        1.374        0.744      110.748       52.483        0.225      338.964       11.974      857.974
09/27/2014  11:37:00      -72.628       63.674       -5.390       84.087       71.641       43.540     7070.700     5132.464     1895.713        1.173        0.705       96.588       47.909        0.246      338.990       12.017      857.968
09/27/2014  11:38:00     -122.803      202.651      -32.525       82.599       86.100       45.686     6822.631     7413.242     2087.194        3.676        0.816      236.955       41.294        0.030      338.955       11.956      857.966
09/27/2014  11:39:00     -121.674      141.539      -21.199       73.686       74.662       43.625     5429.659     5574.389     1903.178        2.410        0.645      186.649       43.582        0.055      338.995       12.024      857.958
09/27/2014  11:40:00      -72.319      210.770      -24.812       83.434      140.655       50.008     6961.209    19783.711     2500.758        3.975        1.462      222.832       64.185        0.083      339.015       12.058      857.976
09/27/2014  11:41:00     -121.772      250.794      -34.067       74.677      114.336       51.406     5576.635    13072.688     2642.587        5.009        1.065      278.794       57.631        0.043      338.893       11.850      857.984
09/27/2014  11:42:00     -112.442      346.057      -35.906       80.125      108.198       53.448     6420.062    11706.900     2856.641        7.733        1.049      363.866       44.839        0.015      338.819       11.726      857.982
09/27/2014  11:43:00      -71.245      354.074      -24.269       71.893      128.938       53.469     5168.569    16624.993     2858.894        7.784        1.233      361.170       62.332        0.030      338.738       11.589      857.969
09/27/2014  11:44:00      -94.905      224.406      -22.662       72.829      144.337       54.069     5304.104    20833.034     2923.493        4.446        1.453      243.649       59.704        0.060      338.844       11.770      857.976
09/27/2014  11:45:00     -172.556      233.066      -37.737       87.114       91.203       53.830     7588.930     8317.910     2897.627        5.216        0.940      289.992       40.297        0.019      338.824       11.734      857.990
09/27/2014  11:46:00     -211.615      168.667      -32.040       94.046      104.467       58.005     8844.569    10913.312     3364.551        4.869        1.156      270.610       50.754        0.035      338.827       11.741      858.003
09/27/2014  11:47:00     -132.566      141.757      -25.968       80.144      107.138       44.005     6423.117    11478.569     1936.473        2.909        0.992      194.085       48.025        0.061      338.704       11.534      858.004
09/27/2014  11:48:00     -147.557      198.365      -33.462       60.347       64.968       43.560     3641.766     4220.823     1897.437        3.600        0.488      247.229       31.664        0.016      338.755       11.619      858.003
09/27/2014  11:49:00     -166.277      180.474      -27.864       68.511       83.801       43.081     4693.761     7022.635     1855.964        3.728        0.679      245.395       42.955        0.031      338.721       11.562      858.001
09/27/2014  11:50:00      -98.042      337.653      -41.873      114.642      139.531       54.803    13142.891    19468.904     3003.395        8.049        1.781      351.598       55.278        0.025      338.676       11.486      858.000
09/27/2014  11:51:00     -132.189      248.139      -26.224       66.101      108.039       53.077     4369.406    11672.495     2817.155        4.929        0.943      281.152       47.428        0.028      338.622       11.395      858.014
09/27/2014  11:52:00      -73.172      293.063      -28.317       72.497       84.119       47.209     5255.746     7075.923     2228.719        5.330        0.728      302.060       36.108        0.014      338.558       11.287      858.009
09/27/2014  11:53:00     -118.306      191.444      -25.906      101.229       93.957       49.060    10247.219     8827.856     2406.915        3.640        1.074      225.049       52.781        0.055      338.611       11.377      858.008
09/27/2014  11:54:00     -199.723       95.868      -22.360      112.969       89.782       54.019    12761.953     8060.794     2918.095        3.666        1.187      221.540       54.862        0.061      338.545       11.266      858.010
09/27/2014  11:55:00     -156.239      126.003      -43.320       79.037       99.528       45.677     6246.842     9905.905     2086.408        3.020        0.912      200.717       40.726        0.041      338.527       11.236      857.996
09/27/2014  11:56:00     -155.246      217.499      -38.834      126.364       88.153       53.383    15967.849     7770.875     2849.790        4.975        1.329      267.221       63.325        0.056      338.535       11.250      857.995
09/27/2014  11:57:00     -151.837      183.599      -27.763       91.452      129.490       50.780     8363.513    16767.712     2578.648        4.262        1.385      238.250       62.008        0.068      338.543       11.264      857.988
09/27/2014  11:58:00     -110.177      127.783      -14.670       98.339       76.240       41.790     9670.656     5812.552     1746.427        2.295        0.861      168.723       47.232        0.078      338.601       11.362      857.971
09/27/2014  11:59:00     -134.855       85.547       -9.235      104.472       88.315       50.752    10914.452     7799.608     2575.808        2.344        1.064      159.700       50.508        0.100      338.554       11.282      857.965
09/27/2014  12:00:00     -129.991      151.054      -22.048       64.874       57.369       33.175     4208.699     3291.153     1100.580        2.440        0.430      199.286       28.931        0.021      338.593       11.349      857.953
09/27/2014  12:01:00      -64.330      191.130      -17.689       42.716      108.688       35.882     1824.625    11813.008     1287.549        2.795        0.746      201.666       27.237        0.018      338.574       11.316      857.956
09/27/2014  12:02:00      -70.419       63.065      -15.862       44.307       52.436       29.488     1963.121     2749.514      869.565        0.738        0.279       94.530       24.399        0.067      338.685       11.505      857.958
09/27/2014  12:03:00      -89.504      150.892       -9.985       62.878       90.248       47.388     3953.686     8144.713     2245.664        2.261        0.717      175.441       48.139        0.075      338.597       11.354      857.971
09/27/2014  12:04:00      -62.082      176.936       -7.110       70.581       88.983       46.314     4981.683     7917.919     2145.018        2.513        0.752      187.511       41.556        0.049      338.623       11.397      857.953
09/27/2014  12:05:00     -176.385      128.709      -39.123       98.473      103.093       54.627     9696.976    10628.104     2984.113        3.625        1.165      218.352       53.797        0.061      338.578       11.322      857.943
09/27/2014  12:06:00     -148.922      213.675      -36.257       66.480      106.926       45.518     4419.547    11433.075     2071.886        4.353        0.896      260.451       49.655        0.036      338.586       11.334      857.919
09/27/2014  12:07:00     -135.141       90.310      -14.980      144.623      103.628       40.671    20915.857    10738.864     1654.161        2.997        1.665      162.539       48.194        0.088      338.586       11.336      857.906
09/27/2014  12:08:00      -57.644       99.323       -6.867       47.619      105.006       34.369     2267.523    11026.217     1181.250        1.385        0.724      114.838       30.858        0.072      338.641       11.430      857.901
09/27/2014  12:09:00      -64.147      137.964      -11.843       29.449       38.324       27.623      867.236     1468.754      763.048        1.319        0.155      152.147       12.171        0.006      338.610       11.378      857.894
09/27/2014  12:10:00      -35.110      139.095      -10.516       57.225       73.189       36.824     3274.674     5356.652     1356.037        1.534        0.499      143.458       38.132        0.071      338.674       11.486      857.909
09/27/2014  12:11:00      -65.274      120.788       -7.266       41.318       73.891       37.200     1707.216     5459.916     1383.848        1.373        0.428      137.297       40.499        0.087      338.700       11.529      857.907
09/27/2014  12:12:00      -74.659      117.570      -23.975       48.815      103.222       39.826     2382.950    10654.698     1586.082        1.730        0.731      139.272       38.231        0.075      338.641       11.429      857.914
09/27/2014  12:13:00     -145.370      148.346      -26.830       87.780       68.314       48.942     7705.325     4666.757     2395.353        2.931        0.738      207.699       45.685        0.048      338.627       11.404      857.933
09/27/2014  12:14:00     -134.738      169.442      -32.256       97.307       92.627       52.793     9468.598     8579.769     2787.050        3.437        1.042      216.483       48.833        0.051      338.577       11.320      857.941
09/27/2014  12:15:00     -156.917      141.019      -20.710      117.014      122.356       68.478    13692.196    14971.089     4689.212        3.914        1.668      210.973       57.015        0.073      338.580       11.324      857.933
09/27/2014  12:16:00     -103.282      186.870      -20.778       77.843       97.721       47.031     6059.483     9549.388     2211.912        3.192        0.891      213.513       44.104        0.043      338.543       11.264      857.949
09/27/2014  12:17:00      -84.295      132.177      -14.577       60.644       80.568       36.234     3677.707     6491.238     1312.939        1.813        0.574      156.768       30.194        0.037      338.580       11.327      857.947
09/27/2014  12:18:00      -55.900      110.698      -13.739       79.194       84.142       53.028     6271.626     7079.847     2811.993        1.586        0.808      124.012       34.459        0.077      338.603       11.366      857.940
09/27/2014  12:19:00      -60.930      110.432       -6.641       79.368       94.658       44.953     6299.256     8960.044     2020.748        1.661        0.864      126.126       48.466        0.148      338.595       11.352      857.938
09/27/2014  12:20:00     -112.964      229.304      -37.114       51.250       86.481       35.304     2626.574     7478.952     1246.385        3.903        0.568      255.619       37.037        0.021      338.508       11.203      857.931
09/27/2014  12:21:00      -59.606      110.881       -7.327       46.618       51.549       28.477     2173.263     2657.250      810.965        1.077        0.282      125.887       23.739        0.036      338.591       11.346      857.936
09/27/2014  12:22:00      -36.846       97.258      -12.271       37.810       64.721       24.533     1429.576     4188.824      601.880        0.859        0.311      104.004       23.817        0.052      338.626       11.405      857.923
09/27/2014  12:23:00      -78.074      172.080      -15.127       75.114       75.603       46.805     5642.099     5715.825     2190.673        2.474        0.677      188.964       44.035        0.054      338.603       11.365      857.916
09/27/2014  12:24:00      -51.015      113.643       -2.891       39.238       44.861       33.729     1539.643     2012.540     1137.674        1.011        0.234      124.569       19.102        0.024      338.663       11.467      857.910
09/27/2014  12:25:00      -56.651       80.400       -1.730       60.163       49.285       32.924     3619.582     2428.988     1084.016        0.840        0.357       98.354       23.256        0.056      338.660       11.464      857.899
09/27/2014  12:26:00      -26.824      115.235       -6.995       33.468       77.856       29.853     1120.136     6061.609      891.229        1.106        0.404      118.316       34.708        0.086      338.700       11.530      857.897
09/27/2014  12:27:00        2.377      209.616      -24.682       45.541       47.802       34.249     2073.981     2285.054     1172.994        2.504        0.277      209.630       18.367        0.008      338.462       11.127      857.883
09/27/2014  12:28:00      -15.220      105.289       -1.641       64.715       58.107       39.497     4187.974     3376.470     1559.991        1.022        0.456      106.383       29.056        0.075      338.561       11.295      857.876
09/27/2014  12:29:00      -37.287      143.896      -10.756       34.829       55.816       28.666     1213.071     3115.458      821.742        1.368        0.258      148.649       29.961        0.041      338.512       11.212      857.875
09/27/2014  12:30:00     -119.850      121.694      -24.113       68.928       57.252       36.095     4751.082     3277.781     1302.816        1.954        0.467      170.803       31.124        0.033      338.556       11.286      857.883
09/27/2014  12:31:00      -69.985      121.219       -2.445       66.898       91.755       49.328     4475.334     8418.911     2433.270        1.746        0.766      139.971       50.324        0.129      338.624       11.401      857.861
09/27/2014  12:32:00     -128.531      206.946      -31.792       59.415       63.051       32.542     3530.162     3975.484     1059.012        3.446        0.428      243.612       29.335        0.015      338.527       11.235      857.853
09/27/2014  12:33:00     -101.334      185.955      -19.675       56.113       76.867       34.742     3148.686     5908.517     1207.014        2.775        0.513      211.773       30.924        0.021      338.553       11.281      857.853
09/27/2014  12:34:00      -62.691      228.511      -31.181       53.535       46.132       31.310     2865.954     2128.179      980.298        3.155        0.299      236.955       18.137        0.006      338.490       11.173      857.854
09/27/2014  12:35:00        3.330      159.356      -16.419       30.117       44.950       26.076      907.027     2020.468      679.940        1.464        0.180      159.391       21.331        0.018      338.549       11.276      857.838
09/27/2014  12:36:00      -10.375      126.547      -28.519       28.811       82.776       21.595      830.097     6851.818      466.362        1.254        0.407      126.971       12.740        0.010      338.615       11.386      857.842
09/27/2014  12:37:00        8.527      222.426      -25.028       60.128       94.543       33.056     3615.381     8938.374     1092.688        3.191        0.682      222.590       28.325        0.016      338.538       11.256      857.837
09/27/2014  12:38:00      -31.609      213.317      -28.211       47.453       90.930       36.055     2251.827     8268.303     1299.974        2.956        0.591      215.647       39.810        0.034      338.555       11.285      857.849
09/27/2014  12:39:00      -92.441      161.043      -22.060       73.325       88.572       41.089     5376.558     7845.016     1688.269        2.494        0.745      185.689       40.838        0.048      338.577       11.321      857.858
09/27/2014  12:40:00      -66.846       97.886        0.657       60.760       83.068       45.491     3691.775     6900.218     2069.389        1.335        0.633      118.532       44.782        0.143      338.667       11.472      857.854
09/27/2014  12:41:00      -81.251      148.193       -9.690       52.778       71.779       38.151     2785.477     5152.264     1455.513        1.902        0.470      169.006       42.782        0.064      338.600       11.360      857.859
09/27/2014  12:42:00      -73.035      188.430      -23.959       60.124       67.543       36.837     3614.882     4562.009     1356.929        2.547        0.477      202.089       35.493        0.031      338.554       11.282      857.859
09/27/2014  12:43:00      -54.620      244.933      -25.357       61.821       88.678       47.110     3821.889     7863.832     2219.378        3.876        0.695      250.950       43.663        0.030      338.551       11.277      857.846
09/27/2014  12:44:00      -71.869      154.979      -19.952       62.645       85.714       36.049     3924.355     7346.866     1299.507        2.107        0.629      170.832       42.659        0.062      338.561       11.294      857.843
09/27/2014  12:45:00      -54.674      180.178      -19.358       60.609       58.942       35.237     3673.499     3474.121     1241.647        2.211        0.419      188.290       29.372        0.024      338.575       11.318      857.839
09/27/2014  12:46:00     -120.236      112.413      -18.887       89.681       56.366       36.918     8042.739     3177.127     1362.961        2.001        0.629      164.601       42.344        0.066      338.550       11.275      857.838
09/27/2014  12:47:00      -91.221      144.700      -20.316       67.729       45.767       29.635     4587.217     2094.647      878.240        1.861        0.378      171.054       34.264        0.040      338.581       11.328      857.843
09/27/2014  12:48:00      -59.524      131.366      -27.619       55.067       44.780       29.637     3032.404     2005.209      878.333        1.374        0.296      144.222       24.667        0.029      338.548       11.275      857.827
09/27/2014  12:49:00      -38.751      214.317      -23.713       38.502       52.094       33.360     1482.392     2713.740     1112.888        2.665        0.265      217.792       30.529        0.020      338.559       11.290      857.814
09/27/2014  12:50:00      -58.813      126.716       10.019       58.334       61.568       43.176     3402.894     3790.619     1864.187        1.434        0.453      139.700       42.011        0.090      338.672       11.482      857.801
09/27/2014  12:51:00      -97.772      131.404      -28.010       47.861       50.603       27.632     2290.692     2560.669      763.532        1.661        0.281      163.787       26.112        0.025      338.663       11.467      857.807
09/27/2014  12:52:00     -113.771      145.908      -23.927       68.663      117.864       40.700     4714.636    13891.813     1656.511        2.753        1.013      185.022       45.045        0.059      338.657       11.455      857.810
09/27/2014  12:53:00     -167.588      176.553      -16.674       88.991      149.996       61.501     7919.373    22498.886     3782.397        4.686        1.710      243.427       62.217        0.065      338.665       11.468      857.803
09/27/2014  12:54:00     -248.344      118.748      -25.209      122.456      148.768       76.012    14995.366    22132.049     5777.767        5.965        2.145      275.274       60.778        0.049      338.620       11.391      857.795
09/27/2014  12:55:00     -213.986      147.091      -40.101       97.644      105.822       60.515     9534.366    11198.279     3662.097        4.671        1.220      259.664       42.236        0.026      338.631       11.411      857.806
09/27/2014  12:56:00     -147.037       59.713      -28.837      100.511       97.257       45.675    10102.457     9459.014     2086.186        2.383        1.082      158.699       45.005        0.080      338.663       11.465      857.818
09/27/2014  12:57:00      -98.868       91.674      -19.107       72.304       73.777       41.088     5227.820     5442.985     1688.249        1.545        0.618      134.830       28.054        0.043      338.675       11.488      857.818
09/27/2014  12:58:00     -184.484      123.229      -37.319       96.518      107.119       62.212     9315.819    11474.445     3870.373        3.763        1.233      221.855       59.002        0.071      338.640       11.427      857.814
09/27/2014  12:59:00      -91.280      -18.263       13.878       85.439       67.138       43.883     7299.857     4507.466     1925.743        1.129        0.687       93.089       32.226        0.120      338.695       11.521      857.813
09/27/2014  13:00:00      -71.838      -39.243        2.359       72.048       92.633       43.196     5190.880     8580.872     1865.923        1.117        0.782       81.858       44.654        0.298      338.714       11.552      857.802
09/27/2014  13:01:00     -114.151      107.866       -9.163      100.793      148.473       58.055    10159.233    22044.191     3370.393        3.016        1.779      157.053       72.930        0.216      338.704       11.534      857.794
09/27/2014  13:02:00     -180.804      153.202      -40.185       74.243       75.118       45.283     5512.020     5642.645     2050.522        3.549        0.660      236.983       46.482        0.038      338.644       11.432      857.795
09/27/2014  13:03:00     -171.954       62.052      -25.337      101.463       62.314       39.464    10294.674     3883.057     1557.384        2.490        0.787      182.808       26.650        0.021      338.700       11.527      857.794
09/27/2014  13:04:00      -96.135       33.459       -0.249       70.721       97.672       46.128     5001.468     9539.794     2127.829        1.351        0.833      101.791       33.272        0.107      338.675       11.488      857.782
09/27/2014  13:05:00      -82.449       55.847       -1.135       50.508       37.713       40.883     2551.044     1422.272     1671.422        0.778        0.282       99.582       32.742        0.108      338.794       11.687      857.771
09/27/2014  13:06:00     -109.732       77.705      -11.164       70.426       55.428       44.425     4959.854     3072.295     1973.597        1.410        0.500      134.459       40.684        0.092      338.717       11.557      857.776
09/27/2014  13:07:00      -86.440       29.793        0.448       83.231      118.234       42.823     6927.423    13979.303     1833.792        1.555        1.137       91.430       38.148        0.174      338.802       11.699      857.762
09/27/2014  13:08:00     -124.274       44.050      -18.320       64.517      105.559       39.962     4162.442    11142.654     1596.943        1.731        0.845      131.850       27.615        0.044      338.746       11.604      857.760
09/27/2014  13:09:00      -55.336       45.626        2.085       55.445       82.049       39.404     3074.188     6732.120     1552.644        0.825        0.568       71.720       38.024        0.281      338.744       11.604      857.742
09/27/2014  13:10:00     -120.179       11.995      -10.078       70.861       84.558       42.603     5021.271     7149.994     1815.049        1.434        0.699      120.776       49.279        0.166      338.698       11.524      857.725
09/27/2014  13:11:00      -74.231       59.605       -9.566       59.684       66.445       27.567     3562.185     4415.001      759.955        0.894        0.437       95.200       27.576        0.084      338.745       11.606      857.722
09/27/2014  13:12:00      -88.632       -4.780        6.547       87.315       75.465       40.831     7623.907     5694.926     1667.176        1.145        0.749       88.761       28.658        0.104      338.724       11.569      857.723
09/27/2014  13:13:00      -92.309       21.973      -12.178       30.404       31.517       25.117      924.415      993.337      630.843        0.585        0.127       94.888       13.296        0.020      338.696       11.524      857.714
09/27/2014  13:14:00      -23.806       23.276        7.911       24.337       29.124       18.043      592.287      848.235      325.545        0.147        0.088       33.294       13.479        0.164      338.800       11.698      857.706
09/27/2014  13:15:00      -75.018       18.007      -12.559       42.757       46.475       20.569     1828.185     2159.953      423.089        0.526        0.221       77.149       23.452        0.092      338.769       11.647      857.705
09/27/2014  13:16:00      -78.147       29.939      -18.948       82.059       62.601       38.355     6733.702     3918.937     1471.098        0.974        0.606       83.686       43.474        0.270      338.770       11.646      857.696
09/27/2014  13:17:00     -149.256       49.757      -16.003      112.334       59.014       42.840    12618.920     3482.626     1835.289        2.147        0.897      157.331       41.489        0.070      338.640       11.427      857.683
09/27/2014  13:18:00     -183.006       19.260      -31.531       81.828       64.012       35.312     6695.867     4097.475     1246.905        2.345        0.602      184.017       35.688        0.038      338.642       11.431      857.674
09/27/2014  13:19:00     -186.167      179.409      -32.982       87.041       89.318       46.883     7576.167     7977.747     2198.028        4.284        0.888      258.545       43.076        0.028      338.658       11.456      857.672
09/27/2014  13:20:00     -163.997      177.970      -38.138       62.874       73.668       42.966     3953.101     5427.017     1846.046        3.562        0.561      242.009       35.937        0.022      338.653       11.448      857.671
09/27/2014  13:21:00     -224.363      153.473      -42.605      107.153       67.269       48.978    11481.763     4525.160     2398.889        4.705        0.920      271.832       50.550        0.035      338.646       11.436      857.683
09/27/2014  13:22:00     -143.633      193.020      -36.593       86.676      115.318       44.940     7512.671    13298.248     2019.625        4.102        1.142      240.597       46.455        0.037      338.661       11.462      857.679
09/27/2014  13:23:00     -161.341      239.320      -35.156       72.474       86.331       44.048     5252.463     7453.051     1940.198        4.959        0.732      288.626       40.530        0.020      338.695       11.516      857.670
09/27/2014  13:24:00     -130.020      120.590      -22.019       66.154       90.658       39.879     4376.301     8218.873     1590.341        2.306        0.709      177.334       34.771        0.038      338.684       11.501      857.674
09/27/2014  13:25:00     -133.654      108.834      -20.291       68.011       76.179       47.161     4625.480     5803.305     2224.200        2.138        0.633      172.361       26.661        0.024      338.705       11.536      857.669
09/27/2014  13:26:00     -161.033      163.521      -15.314      100.058       95.314       56.971    10011.514     9084.711     3245.716        3.762        1.117      229.502       53.705        0.055      338.657       11.453      857.666
09/27/2014  13:27:00     -136.085      237.377      -41.645      107.319       72.625       50.389    11517.386     5274.358     2539.061        4.796        0.967      273.618       50.088        0.034      338.659       11.458      857.653
09/27/2014  13:28:00     -106.653       66.189      -22.203       72.998       63.158       42.293     5328.757     3988.986     1788.699        1.368        0.555      125.523       35.282        0.079      338.758       11.626      857.638
09/27/2014  13:29:00      -68.649       66.541       -3.622       65.890       63.446       46.012     4341.494     4025.363     2117.089        0.982        0.524       95.606       30.363        0.101      338.779       11.662      857.637
09/27/2014  13:30:00     -257.586      -33.312      -16.207      113.975      104.861       65.729    12990.225    10995.838     4320.273        4.801        1.415      259.731       60.791        0.055      338.718       11.556      857.633
09/27/2014  13:31:00     -108.782      131.269       -9.932       72.550       93.297       52.326     5263.575     8704.345     2738.046        2.293        0.835      170.485       47.839        0.079      338.738       11.592      857.639
09/27/2014  13:32:00     -129.092       29.994      -13.549       83.082       73.657       45.044     6902.696     5425.419     2028.975        1.605        0.718      132.531       37.740        0.081      338.732       11.582      857.616
09/27/2014  13:33:00     -119.126       27.194       -7.867       60.758      108.439       44.524     3691.519    11759.112     1982.367        1.621        0.872      122.191       32.769        0.072      338.748       11.610      857.610
09/27/2014  13:34:00      -81.132      184.084       -7.780       59.123       83.241       42.831     3495.525     6929.074     1834.496        2.639        0.613      201.169       39.787        0.039      338.788       11.674      857.600
09/27/2014  13:35:00      -97.437       67.123      -20.011       59.400       32.860       31.284     3528.410     1079.784      978.702        0.999        0.279      118.319       30.138        0.065      338.805       11.705      857.584
09/27/2014  13:36:00      -56.779      143.399      -15.537       41.628       54.061       28.749     1732.863     2922.548      826.480        1.475        0.274      154.231       24.810        0.026      338.826       11.742      857.568
09/27/2014  13:37:00      -89.552       79.659      -11.853       93.173       52.617       42.938     8681.301     2768.534     1843.673        1.390        0.665      119.854       43.754        0.133      338.846       11.774      857.551
09/27/2014  13:38:00      -75.410      142.828      -22.939       82.861       70.501       36.071     6865.983     4970.420     1301.123        1.987        0.657      161.513       42.941        0.071      338.826       11.741      857.521
09/27/2014  13:39:00     -103.308      145.994      -25.733       53.317       65.678       36.181     2842.666     4313.573     1309.047        2.056        0.423      178.849       27.712        0.024      338.773       11.652      857.522
09/27/2014  13:40:00     -110.888      179.981      -21.657       89.842       72.950       51.149     8071.530     5321.761     2616.250        3.058        0.800      211.399       54.053        0.065      338.787       11.673      857.518
09/27/2014  13:41:00      -94.487      159.356      -32.227       70.469       77.635       48.149     4965.903     6027.187     2318.320        2.433        0.666      185.263       45.051        0.059      338.751       11.614      857.507
09/27/2014  13:42:00     -103.820      177.208      -27.740       72.172       61.331       39.990     5208.803     3761.514     1599.176        2.676        0.528      205.381       36.316        0.031      338.782       11.664      857.491
09/27/2014  13:43:00      -69.429      184.790      -19.500       64.910      109.742       40.660     4213.262    12043.360     1653.238        2.863        0.895      197.402       37.677        0.036      338.762       11.632      857.473
09/27/2014  13:44:00      -71.786      349.053      -42.551       59.167      146.324       52.814     3500.763    21410.761     2789.354        7.825        1.385      356.358       60.092        0.028      338.694       11.517      857.461
09/27/2014  13:45:00      -83.083      282.605      -33.508       69.134      137.282       50.958     4779.551    18846.382     2596.706        5.705        1.311      294.565       57.519        0.038      338.697       11.522      857.452
09/27/2014  13:46:00      -96.534      255.953      -25.819       68.073      120.045       45.497     4633.903    14410.783     2069.961        4.830        1.056      273.552       41.854        0.023      338.656       11.453      857.456
09/27/2014  13:47:00     -104.046      201.706      -17.640       71.333       82.810       42.707     5088.445     6857.440     1823.853        3.279        0.688      226.961       33.876        0.022      338.738       11.590      857.449
09/27/2014  13:48:00      -92.051      198.622      -28.126       70.656       94.060       44.601     4992.256     8847.349     1989.222        3.227        0.791      218.916       41.578        0.036      338.701       11.528      857.435
09/27/2014  13:49:00      -34.400      265.420      -25.574       46.919       64.316       39.341     2201.387     4136.513     1547.692        4.008        0.394      267.640       32.684        0.015      338.685       11.501      857.407
09/27/2014  13:50:00      -63.653      224.292      -30.366       62.768       87.429       43.350     3939.789     7643.889     1879.235        3.437        0.673      233.149       37.073        0.025      338.720       11.561      857.398
09/27/2014  13:51:00      -34.294      156.632        2.067       50.932      104.818       32.332     2594.036    10986.914     1045.379        2.017        0.731      160.342       30.739        0.037      338.786       11.671      857.392
09/27/2014  13:52:00     -113.250      104.613      -23.773       82.206       82.537       45.651     6757.839     6812.274     2084.006        1.999        0.783      154.173       46.471        0.091      338.770       11.646      857.383
09/27/2014  13:53:00      -82.017      181.386      -19.731       51.335       73.678       32.406     2635.240     5428.374     1050.138        2.456        0.456      199.067       31.984        0.026      338.704       11.534      857.384
09/27/2014  13:54:00      -61.668      183.412      -25.620       41.869       55.661       28.607     1753.038     3098.104      818.336        2.188        0.283      193.501       26.078        0.018      338.718       11.557      857.383
09/27/2014  13:55:00      -70.244      137.090      -13.468       63.492      120.148       36.166     4031.296    14435.662     1307.976        2.184        0.989      154.038       48.876        0.101      338.748       11.607      857.391
09/27/2014  13:56:00       17.923      188.562      -14.776       60.214      106.977       50.192     3625.675    11444.156     2519.229        2.684        0.879      189.412       60.116        0.101      338.641       11.430      857.375
09/27/2014  13:57:00      -60.480      258.429      -30.876       46.110       69.888       33.903     2126.128     4884.283     1149.444        3.978        0.408      265.412       33.136        0.016      338.632       11.412      857.380
09/27/2014  13:58:00      -10.870      241.122      -30.789       79.869       93.264       42.969     6379.055     8698.265     1846.348        3.806        0.846      241.367       43.985        0.033      338.646       11.436      857.373
09/27/2014  13:59:00       12.329      267.469      -30.638       55.318       75.934       51.957     3060.027     5766.013     2699.527        4.208        0.576      267.753       49.277        0.034      338.595       11.350      857.378
09/27/2014  14:00:00      -11.841      235.816      -34.334       46.186       63.849       31.813     2133.145     4076.679     1012.052        3.207        0.361      236.113       32.673        0.019      338.589       11.340      857.382
09/27/2014  14:01:00      -20.592      269.625      -32.683       57.173       61.024       31.804     3268.756     3723.973     1011.466        4.110        0.400      270.410       23.647        0.008      338.584       11.331      857.382
09/27/2014  14:02:00        8.752      161.939      -15.703       48.242       80.632       42.061     2327.328     6501.583     1769.164        1.857        0.530      162.175       44.649        0.076      338.627       11.405      857.374
09/27/2014  14:03:00        3.040      196.423      -16.141       52.386       70.307       45.189     2744.298     4943.109     2042.090        2.429        0.486      196.446       40.675        0.043      338.620       11.392      857.371
09/27/2014  14:04:00        4.864      170.257      -10.961       62.681       76.176       44.062     3928.955     5802.782     1941.501        2.040        0.584      170.326       40.345        0.056      338.645       11.435      857.358
09/27/2014  14:05:00       29.004      166.830      -17.403       45.144       89.624       33.720     2037.969     8032.437     1137.072        2.009        0.560      169.332       41.658        0.061      338.659       11.458      857.346
09/27/2014  14:06:00      -41.418       62.335        0.188       33.014       36.604       26.066     1089.930     1339.869      679.421        0.435        0.155       74.841       19.330        0.067      338.798       11.695      857.340
09/27/2014  14:07:00      -84.493      112.398      -11.177       65.377       59.011       42.077     4274.188     3482.300     1770.505        1.471        0.476      140.614       28.070        0.040      338.812       11.716      857.360
09/27/2014  14:08:00      -74.041      197.104      -25.692       71.590       96.562       49.432     5125.120     9324.144     2443.528        3.094        0.845      210.552       51.727        0.060      338.819       11.727      857.375
09/27/2014  14:09:00      -59.123      238.102      -35.312       39.554       96.368       33.858     1564.525     9286.761     1146.342        3.671        0.600      245.333       39.125        0.025      338.788       11.673      857.390
09/27/2014  14:10:00      -83.949      122.226      -17.755       74.526       86.987       41.575     5554.088     7566.673     1728.464        1.857        0.742      148.279       38.931        0.069      338.843       11.769      857.397
09/27/2014  14:11:00      -99.004      110.531      -16.592       66.945       94.004       35.962     4481.698     8836.799     1293.278        1.845        0.731      148.387       31.840        0.046      338.768       11.641      857.382
09/27/2014  14:12:00      -22.846      160.539      -20.907       38.078       71.975       29.088     1449.926     5180.463      846.102        1.710        0.374      162.156       32.180        0.039      338.772       11.650      857.382
09/27/2014  14:13:00      -25.503      177.195      -19.531       43.236       46.382       35.019     1869.380     2151.279     1226.350        1.884        0.262      179.021       27.663        0.024      338.773       11.651      857.379
09/27/2014  14:14:00      -17.366      178.856      -22.345       92.605      109.608       51.692     8575.637    12013.984     2672.097        2.802        1.163      179.697       63.983        0.127      338.691       11.512      857.385
09/27/2014  14:15:00     -122.798      311.557      -31.907      107.774      119.132       62.126    11615.294    14192.397     3859.588        7.141        1.483      334.884       56.306        0.028      338.533       11.246      857.408
09/27/2014  14:16:00      -68.898      248.709      -42.406       92.084       88.785       41.036     8479.553     7882.734     1683.981        4.322        0.902      258.075       25.405        0.010      338.527       11.236      857.416
09/27/2014  14:17:00      -45.633      238.398      -24.263       74.476      119.180       45.301     5546.699    14203.755     2052.144        4.065        1.090      242.726       51.851        0.046      338.550       11.275      857.418
09/27/2014  14:18:00      -69.415      224.750      -32.210       47.514       90.689       29.257     2257.561     8224.528      855.990        3.385        0.567      235.225       28.180        0.014      338.494       11.182      857.410
09/27/2014  14:19:00      -27.107      170.277      -16.138       45.298       46.967       40.534     2051.868     2205.890     1643.004        1.794        0.295      172.421       27.107        0.025      338.541       11.261      857.410
09/27/2014  14:20:00      -48.869      222.851      -25.930       82.828      111.012       55.495     6860.543    12323.670     3079.664        3.749        1.113      228.146       64.572        0.080      338.480       11.157      857.424
09/27/2014  14:21:00     -172.757      244.759      -31.351       90.798      112.964       54.706     8244.239    12760.909     2992.716        5.736        1.200      299.586       52.290        0.030      338.435       11.081      857.436
09/27/2014  14:22:00     -128.687      129.501      -30.891       60.812       56.680       36.971     3698.082     3212.570     1366.886        2.128        0.414      182.567       27.363        0.022      338.428       11.071      857.417
09/27/2014  14:23:00      -76.522      216.986      -30.105       56.481      111.069       41.340     3190.065    12336.355     1709.006        3.554        0.862      230.084       42.239        0.034      338.457       11.119      857.386
09/27/2014  14:24:00      -91.681       95.593      -12.196       58.544       59.575       36.538     3427.355     3549.131     1334.999        1.300        0.416      132.452       22.902        0.030      338.465       11.134      857.370
09/27/2014  14:25:00      -57.876      130.658       -9.974       70.026       95.603       38.862     4903.591     9139.991     1510.241        1.803        0.778      142.902       37.922        0.070      338.490       11.175      857.375
09/27/2014  14:26:00      -45.881      287.688      -32.846       54.265       83.437       46.055     2944.705     6961.810     2121.073        4.899        0.601      291.324       45.733        0.025      338.439       11.087      857.361
09/27/2014  14:27:00      -78.764      204.644      -21.828       53.183       80.119       32.782     2828.383     6419.024     1074.650        2.944        0.516      219.278       26.064        0.014      338.482       11.161      857.350
09/27/2014  14:28:00      -59.534      197.058      -24.957       56.237       87.196       32.009     3162.618     7603.152     1024.595        2.739        0.590      205.855       31.404        0.023      338.524       11.231      857.339
09/27/2014  14:29:00     -141.353      227.346      -38.778       75.446      113.319       43.366     5692.133    12841.100     1880.593        4.679        1.021      267.707       48.517        0.033      338.480       11.155      857.335
09/27/2014  14:30:00     -100.249      235.149      -26.765       64.438       90.003       34.193     4152.294     8100.467     1169.159        3.974        0.671      255.627       34.280        0.018      338.504       11.196      857.317
09/27/2014  14:31:00      -29.672       89.649        5.296       51.392       63.606       32.549     2641.162     4045.746     1059.451        0.834        0.387       94.431       32.977        0.122      338.656       11.455      857.304
09/27/2014  14:32:00      -46.066      157.767      -19.702       65.621       94.158       37.617     4306.141     8865.697     1415.038        2.099        0.729      164.355       21.212        0.017      338.706       11.537      857.288
09/27/2014  14:33:00      -63.642      217.770      -20.714       50.135       83.365       37.921     2513.485     6949.726     1437.998        3.140        0.545      226.879       42.563        0.035      338.643       11.431      857.277
09/27/2014  14:34:00      -85.238      169.858      -16.838       65.261       96.008       38.790     4258.935     9217.622     1504.651        2.569        0.749      190.045       39.596        0.043      338.676       11.488      857.273
09/27/2014  14:35:00     -153.640      157.304      -25.728       75.876       90.069       61.877     5757.150     8112.430     3828.728        3.335        0.885      219.886       55.319        0.063      338.537       11.254      857.267
09/27/2014  14:36:00      -87.329      283.845      -26.785       68.513       93.273       48.723     4694.099     8699.765     2373.919        5.234        0.788      296.975       49.228        0.027      338.510       11.205      857.262
09/27/2014  14:37:00      -70.863      231.609      -27.752       60.039      120.039       40.520     3604.673    14409.326     1641.841        3.954        0.983      242.207       27.492        0.013      338.527       11.237      857.246
09/27/2014  14:38:00     -125.401      279.040      -34.218       58.380       96.202       41.020     3408.268     9254.743     1682.669        5.455        0.717      305.923       33.539        0.012      338.494       11.180      857.235
09/27/2014  14:39:00     -103.321      318.473      -40.274       98.456       67.303       36.126     9693.619     4529.738     1305.055        6.462        0.776      334.814       30.156        0.008      338.463       11.126      857.222
09/27/2014  14:40:00     -112.434      248.090      -30.420       59.186       76.481       44.245     3503.039     5849.376     1957.623        4.321        0.566      272.378       38.275        0.020      338.453       11.111      857.210
09/27/2014  14:41:00      -55.521      166.430      -25.712       63.887       87.292       39.115     4081.503     7619.949     1529.976        2.233        0.662      175.447       41.995        0.057      338.514       11.217      857.195
09/27/2014  14:42:00      -91.457      171.488      -23.092       61.153      100.815       43.716     3739.690    10163.612     1911.094        2.706        0.791      194.351       49.812        0.066      338.567       11.304      857.194
09/27/2014  14:43:00      -34.915      209.660      -16.948       64.007       85.218       43.487     4096.871     7262.158     1891.093        2.935        0.663      212.547       43.090        0.041      338.575       11.317      857.179
09/27/2014  14:44:00      -62.770      271.363      -26.508       56.248       60.340       46.884     3163.823     3640.861     2198.144        4.364        0.450      278.528       33.526        0.014      338.515       11.213      857.171
09/27/2014  14:45:00     -191.629       87.721      -33.977       70.022       77.480       34.237     4903.015     6003.136     1172.156        2.882        0.604      210.753       25.406        0.015      338.571       11.310      857.183
09/27/2014  14:46:00      -25.980      247.011      -25.667       52.153      102.924       33.808     2719.922    10593.258     1142.984        3.840        0.723      248.374       31.014        0.016      338.523       11.228      857.182
09/27/2014  14:47:00     -101.688      229.787      -18.628       69.810       97.960       49.514     4873.419     9596.164     2451.628        4.020        0.846      251.282       47.421        0.036      338.538       11.253      857.179
09/27/2014  14:48:00      -58.391      164.870      -12.709       51.969       79.583       30.696     2700.785     6333.454      942.243        2.036        0.499      174.905       21.943        0.016      338.607       11.372      857.179
09/27/2014  14:49:00     -108.549      229.870      -36.807       62.779      115.478       41.577     3941.196    13335.175     1728.680        4.249        0.950      254.210       43.202        0.029      338.515       11.217      857.176
09/27/2014  14:50:00      -31.252      301.913      -33.015       56.796       65.723       44.600     3225.771     4319.456     1989.151        5.137        0.477      303.526       30.233        0.010      338.483       11.160      857.161
09/27/2014  14:51:00      -93.276      243.196      -25.305       52.333       88.144       41.781     2738.746     7769.303     1745.646        4.037        0.613      260.470       42.061        0.026      338.513       11.212      857.143
09/27/2014  14:52:00      -90.814      153.956      -17.302       51.145       75.360       40.226     2615.857     5679.078     1618.157        2.108        0.496      178.745       26.150        0.021      338.620       11.394      857.133
09/27/2014  14:53:00      -99.630      138.557      -18.951       50.758       64.780       32.482     2576.381     4196.420     1055.093        1.865        0.391      170.658       22.379        0.017      338.648       11.441      857.135
09/27/2014  14:54:00      -79.462      160.198      -26.050       80.676       75.411       32.567     6508.686     5686.788     1060.612        2.295        0.663      178.823       33.450        0.035      338.685       11.502      857.121
09/27/2014  14:55:00      -20.401       91.677       -2.032       56.445       77.057       31.157     3186.013     5937.798      970.759        0.946        0.505       93.920       27.657        0.087      338.773       11.653      857.122
09/27/2014  14:56:00      -33.454      249.133      -13.441       53.210      110.672       44.980     2831.351    12248.248     2023.173        4.023        0.855      251.369       45.276        0.032      338.639       11.424      857.108
09/27/2014  14:57:00     -160.607      111.236      -21.102       80.952       75.380       47.257     6553.281     5682.104     2233.244        2.654        0.723      195.367       46.812        0.057      338.699       11.524      857.110
09/27/2014  14:58:00     -147.144      139.916       -8.546       72.293       89.610       50.043     5226.337     8029.938     2504.334        2.853        0.788      203.047       48.740        0.058      338.642       11.429      857.094
09/27/2014  14:59:00      -49.105      124.610       -3.794       48.567       90.806       31.851     2358.755     8245.818     1014.455        1.478        0.581      133.937       33.602        0.063      338.760       11.630      857.077
09/27/2014  15:00:00     -118.936      157.659      -19.205       82.367       87.787       46.426     6784.275     7706.523     2155.351        2.801        0.832      197.490       30.836        0.024      338.732       11.579      857.075
09/27/2014  15:01:00      -82.214      169.165      -20.834       69.788      145.242       53.331     4870.403    21095.225     2844.239        3.231        1.440      188.084       41.447        0.049      338.740       11.595      857.056
09/27/2014  15:02:00      -63.782       87.718       -0.722       54.894       70.823       45.587     3013.350     5015.934     2078.169        1.093        0.505      108.455       42.368        0.153      338.811       11.715      857.056
09/27/2014  15:03:00      -47.104      144.100       -6.989       55.012       83.981       40.479     3026.271     7052.757     1638.574        1.737        0.586      151.603       46.986        0.096      338.815       11.720      857.045
09/27/2014  15:04:00     -139.528      151.486      -23.064       84.065       87.079       64.138     7066.851     7582.813     4113.691        3.085        0.938      205.951       52.548        0.065      338.827       11.740      857.045
09/27/2014  15:05:00     -119.401      188.037      -14.079       54.589       74.278       53.434     2979.966     5517.161     2855.188        3.058        0.568      222.743       47.010        0.045      338.727       11.572      857.026
09/27/2014  15:06:00     -116.956      191.405      -33.323       66.276       97.301       39.095     4392.502     9467.399     1528.399        3.340        0.769      224.309       32.843        0.021      338.741       11.596      857.006
09/27/2014  15:07:00     -227.195       20.038      -34.352       77.896      100.214       49.704     6067.851    10042.767     2470.458        3.589        0.929      228.077       44.678        0.038      338.766       11.637      857.001
09/27/2014  15:08:00     -152.736      111.417      -23.355      142.701      103.899       64.150    20363.515    10795.026     4115.189        3.577        1.764      189.056       70.062        0.137      338.761       11.630      856.988
09/27/2014  15:09:00     -156.170      190.621      -36.511      110.947       88.983       48.388    12309.329     7917.925     2341.429        4.231        1.128      246.425       54.272        0.049      338.769       11.643      856.992
09/27/2014  15:10:00     -108.444      141.768      -14.515       79.071       75.382       46.498     6252.168     5682.467     2162.060        2.308        0.705      178.489       45.838        0.066      338.877       11.825      856.981
09/27/2014  15:11:00     -199.105       60.513      -28.676      130.957      104.804       52.209    17149.728    10983.946     2725.791        3.749        1.543      208.097       46.018        0.049      338.717       11.556      856.988
09/27/2014  15:12:00     -204.557       38.614      -24.907      116.538       84.365       53.238    13581.027     7117.462     2834.260        3.374        1.177      208.169       50.605        0.059      338.717       11.557      856.976
09/27/2014  15:13:00     -121.880       33.756       -4.969      114.909       88.037       59.333    13204.041     7750.489     3520.399        2.024        1.224      126.468       60.436        0.228      338.786       11.673      856.970
09/27/2014  15:14:00     -162.146      148.126      -25.068       78.483      128.553       50.826     6159.522    16525.896     2583.238        3.706        1.263      219.620       63.621        0.084      338.750       11.611      856.966
09/27/2014  15:15:00     -301.970       63.160      -43.590      192.636      111.145       60.190    37108.729    12353.173     3622.873        7.507        2.654      308.504       79.113        0.066      338.692       11.512      856.960
09/27/2014  15:16:00     -149.528       47.398      -31.472      105.758      113.080       57.522    11184.844    12786.974     3308.812        2.643        1.364      156.860       58.901        0.141      338.735       11.587      856.950
09/27/2014  15:17:00      -94.858       54.965      -15.487       85.979       82.700       41.250     7392.377     6839.256     1701.598        1.409        0.797      109.632       37.646        0.118      338.796       11.691      856.958
09/27/2014  15:18:00     -169.218       68.277      -26.402       77.589       88.937       61.551     6020.008     7909.762     3788.562        2.585        0.886      182.473       31.477        0.030      338.765       11.637      856.961
09/27/2014  15:19:00     -270.625       82.677      -46.005      110.440       92.292       74.648    12197.055     8517.775     5572.285        5.423        1.314      282.972       66.969        0.056      338.693       11.513      856.961
09/27/2014  15:20:00     -113.870      103.986      -27.784       56.635       67.078       49.145     3207.485     4499.407     2415.235        1.734        0.506      154.206       38.382        0.062      338.788       11.676      856.961
09/27/2014  15:21:00      -61.882       92.589      -15.499       39.050       71.570       35.860     1524.865     5122.249     1285.955        1.029        0.397      111.365       30.361        0.074      338.854       11.789      856.939
09/27/2014  15:22:00     -131.121       48.891       -6.980       54.536       67.792       47.654     2974.176     4595.736     2270.873        1.473        0.492      139.940       25.577        0.033      338.805       11.705      856.934
09/27/2014  15:23:00     -184.366       93.538      -16.835      135.694       76.055       62.730    18412.762     5784.367     3935.011        3.557        1.407      206.736       75.957        0.135      338.765       11.637      856.940
09/27/2014  15:24:00     -143.915       91.395      -24.471       69.069       77.717       37.406     4770.532     6039.856     1399.206        2.093        0.610      170.483       29.029        0.029      338.793       11.685      856.942
09/27/2014  15:25:00     -155.461      111.858      -36.371      116.157       79.337       42.346    13492.502     6294.367     1793.180        2.979        1.079      191.521       60.494        0.100      338.850       11.782      856.959
09/27/2014  15:26:00     -121.542      125.444      -20.092      116.139      146.646       50.547    13488.188    21504.949     2555.001        3.422        1.877      174.667       64.389        0.136      338.806       11.705      856.977
09/27/2014  15:27:00     -156.816       16.288      -22.970       90.181       89.576       60.429     8132.541     8023.947     3651.608        2.259        0.990      157.660       51.183        0.105      338.789       11.676      856.982
09/27/2014  15:28:00     -113.899      -41.149        5.867       88.310       59.141       54.786     7798.593     3497.716     3001.504        1.450        0.715      121.104       48.069        0.158      338.779       11.662      856.986
09/27/2014  15:29:00     -135.000      103.883       -9.330       99.508       79.366       38.660     9901.773     6299.002     1494.600        2.340        0.885      170.342       41.191        0.058      338.789       11.675      856.987
09/27/2014  15:30:00      -84.905      121.640      -14.437       52.207       66.163       28.932     2725.533     4377.509      837.045        1.508        0.397      148.342       25.580        0.030      338.830       11.748      856.992
09/27/2014  15:31:00     -170.153      253.731      -39.761      105.091       79.167       49.983    11044.201     6267.475     2498.337        5.736        0.991      305.502       57.123        0.035      338.754       11.617      857.001
09/27/2014  15:32:00     -179.819      164.034      -37.799      112.529       95.134       72.406    12662.725     9050.527     5242.672        4.381        1.348      243.397       64.544        0.070      338.706       11.537      856.998
09/27/2014  15:33:00     -160.321      179.350      -29.417      110.456      142.451       63.131    12200.615    20292.358     3985.568        4.760        1.824      240.560       71.458        0.088      338.718       11.556      856.986
09/27/2014  15:34:00     -122.575      198.938       -7.768       79.940      145.432       68.553     6390.468    21150.558     4699.491        4.345        1.612      233.668       68.146        0.085      338.747       11.605      856.973
09/27/2014  15:35:00      -91.237      195.453      -22.014       54.956       65.159       39.745     3020.119     4245.754     1579.656        2.793        0.442      215.699       35.388        0.027      338.785       11.671      856.976
09/27/2014  15:36:00      -75.906      323.160      -29.873       82.385      107.691       53.180     6787.342    11597.369     2828.129        6.615        1.061      331.955       40.799        0.015      338.735       11.585      856.976
09/27/2014  15:37:00     -124.962      184.202      -29.749       81.964      100.860       49.327     6718.177    10172.819     2433.121        3.487        0.966      222.589       41.110        0.034      338.752       11.612      856.965
09/27/2014  15:38:00     -102.165      278.729      -27.694       79.468      106.034       48.413     6315.138    11243.254     2343.771        5.440        0.995      296.863       39.314        0.018      338.709       11.541      856.959
09/27/2014  15:39:00     -136.648      153.773      -25.138       71.034       59.000       42.814     5045.853     3480.960     1833.017        2.665        0.518      205.715       29.336        0.020      338.807       11.705      856.968
09/27/2014  15:40:00     -146.132      113.352       -2.004       89.998      118.400       55.362     8099.719    14018.635     3064.939        2.969        1.259      184.941       53.014        0.082      338.818       11.726      856.972
09/27/2014  15:41:00     -163.451      187.687      -38.423      100.111       78.348       54.245    10022.121     6138.434     2942.531        4.126        0.955      248.883       55.876        0.050      338.743       11.599      856.979
09/27/2014  15:42:00     -192.078      214.645      -44.257       92.512       90.798       58.755     8558.410     8244.360     3452.147        5.259        1.013      288.039       39.285        0.019      338.631       11.410      856.978
09/27/2014  15:43:00     -200.380      158.825      -38.075       92.671      103.974       49.195     8587.938    10810.673     2420.102        4.432        1.091      255.691       51.760        0.041      338.700       11.527      856.974
09/27/2014  15:44:00      -88.560      104.936      -16.441       65.044       81.583       37.793     4230.725     6655.709     1428.281        1.572        0.616      137.311       28.257        0.042      338.732       11.583      856.969
09/27/2014  15:45:00     -104.682      127.375      -16.002       58.767       95.542       42.457     3453.516     9128.348     1802.556        2.091        0.719      164.872       40.346        0.060      338.680       11.495      856.954
09/27/2014  15:46:00     -108.882      189.314      -28.963       50.008       55.808       34.387     2500.828     3114.516     1182.471        2.766        0.340      218.392       18.275        0.007      338.653       11.448      856.955
09/27/2014  15:47:00     -135.902      144.511      -40.573       59.021       74.086       32.061     3483.447     5488.777     1027.911        2.550        0.500      198.375       33.483        0.028      338.615       11.384      856.941
09/27/2014  15:48:00     -146.816       87.215      -20.827      100.745       73.696       34.805    10149.535     5431.159     1211.391        2.319        0.840      170.767       33.144        0.038      338.671       11.479      856.934
09/27/2014  15:49:00     -109.352      128.806       -8.290       62.277       71.385       53.288     3878.368     5095.865     2839.567        2.021        0.591      168.964       38.076        0.051      338.682       11.499      856.937
09/27/2014  15:50:00     -135.007      168.322      -26.287       69.401      107.233       34.092     4816.542    11498.904     1162.281        3.236        0.874      215.776       22.871        0.011      338.638       11.424      856.938
09/27/2014  15:51:00     -126.298      183.061      -22.508       51.394      102.544       43.070     2641.337    10515.283     1855.039        3.249        0.751      222.402       34.958        0.025      338.635       11.418      856.936
09/27/2014  15:52:00      -90.540      123.489      -14.906       56.663       68.414       42.415     3210.726     4680.536     1799.047        1.668        0.485      153.124       43.032        0.079      338.622       11.397      856.943
09/27/2014  15:53:00      -65.337       70.180        2.320       70.800       68.297       39.748     5012.656     4664.450     1579.927        1.023        0.563       95.886       40.160        0.175      338.706       11.539      856.926
09/27/2014  15:54:00     -111.788      132.429      -27.571       74.515       73.616       35.174     5552.479     5419.380     1237.229        2.150        0.610      173.303       45.282        0.068      338.629       11.410      856.943
09/27/2014  15:55:00     -145.370      186.000      -40.305       77.996       87.435       42.991     6083.408     7644.851     1848.243        3.646        0.779      236.069       50.248        0.045      338.638       11.421      856.944
09/27/2014  15:56:00     -288.677      160.968      -53.830      102.294      127.283       49.966    10464.020    16200.856     2496.590        7.065        1.458      330.523       52.492        0.025      338.627       11.402      856.939
09/27/2014  15:57:00     -169.862       84.814      -33.437       66.698       73.569       38.795     4448.628     5412.406     1505.028        2.426        0.568      189.859       29.484        0.024      338.693       11.516      856.950
09/27/2014  15:58:00      -41.975      107.671       -5.696       59.582       61.986       38.042     3550.064     3842.325     1447.225        1.111        0.442      115.564       29.617        0.066      338.780       11.662      856.954
09/27/2014  15:59:00      -51.442      117.973      -28.090       44.312       70.851       37.412     1963.564     5019.897     1399.676        1.287        0.419      128.701       36.059        0.078      338.792       11.684      856.962
09/27/2014  16:00:00      -52.662       70.246       -5.772       41.322       62.575       32.743     1707.529     3915.603     1072.104        0.722        0.335       87.794       17.112        0.038      338.864       11.805      856.977
09/27/2014  16:01:00      -63.992      135.066      -11.710       40.781       88.931       31.404     1663.052     7908.669      986.221        1.651        0.528      149.459       21.942        0.022      338.840       11.764      856.992
09/27/2014  16:02:00      -99.602       77.428       -6.440       98.463      104.983       54.624     9695.017    11021.504     2983.784        1.982        1.185      126.157       50.467        0.160      338.840       11.764      856.994
09/27/2014  16:03:00     -102.636      -25.879        6.515       90.440       91.754       47.157     8179.345     8418.823     2223.782        1.503        0.941      105.848       38.346        0.131      338.736       11.589      856.991
09/27/2014  16:04:00     -106.626       18.604       -6.039       62.032       91.542       38.103     3847.918     8379.910     1451.841        1.271        0.684      108.237       27.469        0.064      338.754       11.620      856.995
09/27/2014  16:05:00      -46.281       50.801       10.156       41.863       61.767       35.451     1752.499     3815.113     1256.777        0.582        0.341       68.722       28.059        0.167      338.798       11.693      857.007
09/27/2014  16:06:00     -110.396       72.062      -19.089       69.929       79.793       43.489     4890.047     6366.938     1891.280        1.544        0.657      131.834       40.955        0.097      338.755       11.622      857.006
09/27/2014  16:07:00      -61.523       67.282       -2.386       65.238       83.175       39.937     4255.938     6918.039     1594.952        1.054        0.638       91.170       44.763        0.241      338.717       11.557      857.025
09/27/2014  16:08:00     -113.023       57.070      -15.094       84.095       97.711       46.520     7072.026     9547.502     2164.156        1.752        0.939      126.615       36.454        0.083      338.662       11.465      857.015
09/27/2014  16:09:00     -109.003      162.893       -8.170       94.415      106.901       71.724     8914.162    11427.916     5144.324        3.198        1.274      196.000       61.337        0.098      338.662       11.463      857.004
09/27/2014  16:10:00     -189.664      125.470      -33.770      103.578      130.277       57.681    10728.504    16972.030     3327.141        4.194        1.551      227.410       73.262        0.104      338.627       11.404      857.006
09/27/2014  16:11:00     -173.078      113.860      -12.989      102.812       75.595       54.029    10570.241     5714.548     2919.142        3.114        0.960      207.172       47.105        0.052      338.564       11.298      857.009
09/27/2014  16:12:00      -94.110      164.563      -20.065       82.537       80.996       52.952     6812.275     6560.356     2803.907        2.626        0.809      189.572       47.649        0.063      338.608       11.372      857.011
09/27/2014  16:13:00     -112.221      153.923      -24.519       61.090       64.690       40.824     3731.980     4184.823     1666.582        2.323        0.479      190.489       34.560        0.033      338.595       11.350      857.008
09/27/2014  16:14:00      -97.347      188.917      -22.831       63.144       84.754       43.503     3987.224     7183.253     1892.500        2.937        0.653      212.523       33.451        0.025      338.567       11.303      857.013
09/27/2014  16:15:00      -89.625      123.924      -17.006       49.246       70.503       38.404     2425.180     4970.664     1474.886        1.627        0.444      152.937       34.228        0.050      338.590       11.343      857.017
09/27/2014  16:16:00     -136.133      110.790      -25.015       47.033       62.417       38.482     2212.149     3895.944     1480.829        1.951        0.379      175.518       35.260        0.040      338.559       11.293      857.021
09/27/2014  16:17:00      -92.735      126.739       -2.914      107.555      140.851       56.703    11568.028    19839.038     3215.271        2.964        1.731      157.043       58.442        0.138      338.556       11.287      857.017
09/27/2014  16:18:00      -87.166       58.297       13.500       60.734       68.415       44.999     3688.656     4680.555     2024.926        1.078        0.520      104.863       35.189        0.113      338.600       11.361      857.004
09/27/2014  16:19:00      -50.461        9.417       -8.004       78.578       38.639       31.918     6174.564     1492.946     1018.758        0.569        0.434       51.333       30.646        0.356      338.595       11.352      856.995
09/27/2014  16:20:00      -82.821      104.427      -12.756       51.218       58.487       37.071     2623.264     3420.690     1374.250        1.267        0.371      133.282       29.911        0.050      338.587       11.340      856.986
09/27/2014  16:21:00     -117.058      115.386      -15.597       58.373       65.507       38.175     3407.439     4291.109     1457.325        1.821        0.458      164.367       30.621        0.035      338.562       11.297      856.986
09/27/2014  16:22:00      -78.514       90.973      -10.365       65.015       56.314       35.721     4226.894     3171.312     1275.974        1.161        0.434      120.168       30.305        0.064      338.570       11.310      856.989
09/27/2014  16:23:00     -134.444      205.558      -38.522       55.020       84.149       33.053     3027.230     7081.080     1092.516        3.651        0.560      245.620       26.399        0.012      338.499       11.188      856.984
09/27/2014  16:24:00      -81.968      196.441      -15.531       74.748       77.721       49.761     5587.202     6040.600     2476.117        2.982        0.705      212.856       42.867        0.041      338.514       11.216      856.980
09/27/2014  16:25:00     -175.273       69.923      -22.594       65.544       67.722       41.241     4295.981     4586.324     1700.806        2.335        0.529      188.705       29.286        0.024      338.527       11.237      856.999
09/27/2014  16:26:00     -263.800      105.902      -43.177      139.568       90.880       56.491    19479.151     8259.164     3191.251        5.679        1.546      284.264       73.800        0.067      338.439       11.086      857.004
09/27/2014  16:27:00     -200.572        2.518      -27.163      107.544       86.615       55.386    11565.636     7502.189     3067.609        3.155        1.107      200.588       33.901        0.029      338.452       11.111      856.997
09/27/2014  16:28:00     -255.014      -20.467      -35.475      110.206       92.995       56.912    12145.425     8648.153     3239.018        4.537        1.202      255.834       37.361        0.021      338.395       11.013      857.003
09/27/2014  16:29:00     -178.784      178.454      -25.955       83.780      135.378       65.887     7019.053    18327.280     4341.081        4.708        1.484      252.605       63.894        0.064      338.405       11.031      857.009
09/27/2014  16:30:00     -149.726      153.849      -27.258       81.370       81.321       47.400     6621.081     6613.053     2246.788        3.115        0.774      214.680       40.998        0.036      338.434       11.080      857.007
09/27/2014  16:31:00     -126.080      166.373      -26.223       66.160       80.577       40.348     4377.146     6492.680     1627.929        2.838        0.625      208.749       44.457        0.045      338.403       11.029      857.017
09/27/2014  16:32:00     -124.878      102.575      -18.145       99.699       85.302       43.778     9939.928     7276.502     1916.522        2.279        0.957      161.605       46.746        0.084      338.367       10.969      857.035
09/27/2014  16:33:00     -115.674      159.176      -25.285       98.679       84.987       49.651     9737.596     7222.724     2465.212        2.939        0.971      196.768       56.178        0.082      338.348       10.936      857.042
09/27/2014  16:34:00     -111.028      141.193      -25.469       75.297      102.277       46.422     5669.604    10460.484     2154.959        2.560        0.914      179.618       51.237        0.081      338.335       10.915      857.046
09/27/2014  16:35:00     -181.918      225.357      -35.471       89.990       96.947       54.079     8098.286     9398.732     2924.507        5.278        1.021      289.621       55.282        0.036      338.296       10.849      857.040
09/27/2014  16:36:00     -107.589      201.416      -23.302       74.554       90.858       44.037     5558.308     8255.129     1939.301        3.422        0.788      228.350       50.942        0.050      338.287       10.835      857.037
09/27/2014  16:37:00      -93.638       51.040        2.449       92.766       46.242       37.234     8605.565     2138.347     1386.371        1.175        0.607      106.645       37.229        0.122      338.296       10.850      857.032
09/27/2014  16:38:00      -57.773      101.205       -3.307       56.435       43.929       27.608     3184.926     1929.782      762.189        0.973        0.294      116.534       20.694        0.032      338.350       10.941      857.029
09/27/2014  16:39:00      -78.139      227.327      -35.054       97.449       72.408       42.837     9496.295     5242.945     1834.989        3.779        0.829      240.382       36.958        0.024      338.302       10.859      857.039
09/27/2014  16:40:00     -131.534      108.155      -19.606       79.758       65.491       38.582     6361.365     4289.135     1488.588        2.076        0.607      170.290       16.414        0.009      338.295       10.848      857.035
09/27/2014  16:41:00     -102.566      161.757      -12.670       81.604       80.556       48.859     6659.133     6489.340     2387.246        2.619        0.777      191.533       48.581        0.064      338.197       10.682      857.050
09/27/2014  16:42:00     -111.160      185.390      -26.297       67.911       63.468       36.719     4611.953     4028.204     1348.316        2.870        0.499      216.162       35.109        0.026      338.207       10.698      857.058
09/27/2014  16:43:00     -130.845      156.506      -19.025       81.967       82.006       41.844     6718.559     6725.005     1750.885        2.858        0.760      203.996       43.673        0.046      338.215       10.712      857.055
09/27/2014  16:44:00      -75.264      148.202      -13.745       60.903       68.117       45.646     3709.236     4639.882     2083.523        1.912        0.522      166.219       46.509        0.078      338.170       10.639      857.053
09/27/2014  16:45:00      -66.623      118.044      -11.373       43.516      103.099       37.500     1893.649    10629.481     1406.221        1.621        0.696      135.547       30.912        0.052      338.216       10.715      857.046
09/27/2014  16:46:00     -137.662      178.513      -25.269       78.031       66.649       46.450     6088.759     4442.082     2157.598        3.207        0.634      225.428       46.490        0.043      338.162       10.622      857.034
09/27/2014  16:47:00      -64.571      238.476      -19.801       45.132       64.407       27.946     2036.861     4148.248      780.969        3.420        0.348      247.063       26.745        0.012      338.165       10.627      857.035
09/27/2014  16:48:00      -91.483      190.939      -21.463       71.982       67.174       38.747     5181.386     4512.353     1501.365        2.824        0.560      211.723       36.017        0.029      338.176       10.647      857.019
09/27/2014  16:49:00      -44.183      151.685       -9.838       44.508       62.723       30.667     1980.960     3934.142      940.465        1.596        0.343      157.989       27.493        0.030      338.217       10.718      857.006
09/27/2014  16:50:00      -53.469      162.939      -20.076       50.172       76.082       32.495     2517.275     5788.462     1055.894        1.958        0.468      171.488       37.253        0.047      338.199       10.686      856.998
09/27/2014  16:51:00      -96.985      131.095      -16.350       42.450       57.334       28.459     1802.045     3287.131      809.935        1.638        0.295      163.070        9.452        0.003      338.188       10.669      856.999
09/27/2014  16:52:00      -63.118      157.205      -23.637       55.855       82.899       29.154     3119.766     6872.270      849.936        2.005        0.542      169.403       35.960        0.045      338.236       10.748      856.995
09/27/2014  16:53:00     -119.183      228.001      -29.900       57.409       70.716       43.431     3295.815     5000.683     1886.252        3.863        0.509      257.272       41.256        0.026      338.164       10.625      856.982
09/27/2014  16:54:00      -62.900      225.902      -21.429       74.721      101.363       45.226     5583.159    10274.378     2045.357        3.667        0.895      234.495       42.834        0.033      338.202       10.692      856.985
09/27/2014  16:55:00     -117.467      199.577      -19.887       60.731       76.182       46.039     3688.246     5803.651     2119.549        3.282        0.581      231.580       41.173        0.032      338.170       10.637      856.999
09/27/2014  16:56:00     -122.233      223.336      -37.343       58.704       56.029       31.510     3446.177     3139.193      992.863        3.690        0.379      254.597       24.506        0.009      338.173       10.638      857.007
09/27/2014  16:57:00     -126.836      121.804      -26.761       49.832       44.987       29.219     2483.255     2023.839      853.760        1.850        0.268      175.851       25.549        0.021      338.173       10.644      857.014
09/27/2014  16:58:00     -143.933      251.924      -45.630       73.699      108.297       52.049     5431.563    11728.339     2709.073        5.306        0.993      290.142       53.312        0.034      338.164       10.626      857.007
09/27/2014  16:59:00     -131.571      170.145      -29.476       81.440      132.708       53.217     6632.434    17611.472     2832.015        3.710        1.354      215.082       41.103        0.037      338.187       10.663      857.000
09/27/2014  17:00:00      -71.329       91.926      -12.148       48.222       53.827       34.856     2325.344     2897.343     1214.922        1.006        0.322      116.353       25.644        0.049      338.228       10.737      856.997
09/27/2014  17:01:00     -143.913      158.409      -18.965       84.726       72.869       49.682     7178.467     5309.838     2468.350        3.056        0.748      214.019       54.329        0.064      338.212       10.707      856.985
09/27/2014  17:02:00      -72.476      109.748      -24.856       65.781       36.873       23.259     4327.122     1359.640      540.995        1.207        0.311      131.520       25.645        0.038      338.228       10.736      856.977
09/27/2014  17:03:00      -88.299       61.968      -17.293       46.495       39.505       25.565     2161.791     1560.627      653.569        0.816        0.219      107.874       21.178        0.039      338.246       10.766      856.981
09/27/2014  17:04:00      -80.546      103.359      -12.132       69.839       66.721       34.527     4877.500     4451.749     1192.100        1.392        0.526      131.037       34.765        0.070      338.192       10.675      856.984
09/27/2014  17:05:00      -63.975      160.381       -5.094       53.060       70.727       33.584     2815.332     5002.289     1127.909        1.939        0.447      172.669       31.258        0.033      338.233       10.743      856.988
09/27/2014  17:06:00      -40.655       32.187        4.784       54.437       35.750       30.024     2963.352     1278.092      901.427        0.393        0.257       51.854       29.634        0.327      338.246       10.767      856.979
09/27/2014  17:07:00     -115.464       99.219      -20.797       75.457       86.584       39.627     5693.805     7496.832     1570.302        1.918        0.738      152.238       35.627        0.055      338.195       10.680      856.974
09/27/2014  17:08:00     -101.600       89.706       -2.211       89.225       57.939       36.710     7961.171     3356.887     1347.644        1.552        0.633      135.535       36.466        0.072      338.197       10.685      856.984
09/27/2014  17:09:00      -13.296      111.058       -7.235       30.036       59.405       27.033      902.190     3528.995      730.808        0.886        0.258      111.851       32.272        0.083      338.175       10.647      856.992
09/27/2014  17:10:00      -42.668      151.249       -6.481       98.784       69.751       41.270     9758.310     4865.147     1703.204        2.053        0.816      157.152       43.815        0.078      338.175       10.647      856.991
09/27/2014  17:11:00      -79.084       71.975       -2.207       68.828       46.717       41.596     4737.306     2182.493     1730.200        1.004        0.432      106.933       20.763        0.038      338.151       10.606      856.997
09/27/2014  17:12:00      -19.768       38.410        5.754       42.512       34.975       22.262     1807.307     1223.251      495.593        0.271        0.176       43.199       20.068        0.216      338.240       10.756      857.005
09/27/2014  17:13:00      -48.252      120.993      -11.106       55.687       50.295       27.453     3101.096     2529.613      753.664        1.174        0.319      130.260       26.330        0.041      338.213       10.710      857.003
09/27/2014  17:14:00      -43.459      116.385       -4.119       54.503       58.488       25.331     2970.533     3420.829      641.665        1.124        0.352      124.235       24.867        0.040      338.180       10.657      857.000
09/27/2014  17:15:00      -75.349      190.696      -33.143       50.730       59.280       25.202     2573.498     3514.152      635.166        2.493        0.336      205.042       20.756        0.010      338.111       10.538      857.010
09/27/2014  17:16:00     -106.806      138.225      -36.461       68.869       64.096       31.678     4742.977     4108.305     1003.514        2.085        0.493      174.682       33.583        0.037      338.168       10.634      857.023
09/27/2014  17:17:00      -60.346      177.463      -11.118      117.017       84.104       47.872    13693.091     7073.482     2291.759        2.915        1.153      187.442       28.903        0.024      338.137       10.580      857.037
09/27/2014  17:18:00     -112.805      144.021      -22.716       55.812       75.145       33.888     3114.960     5646.731     1148.374        2.194        0.496      182.940       27.008        0.022      338.130       10.569      857.039
09/27/2014  17:19:00      -76.272      116.564      -23.499       44.962       48.050       30.929     2021.579     2308.840      956.619        1.262        0.264      139.300       25.358        0.033      338.174       10.646      857.028
09/27/2014  17:20:00      -85.865       88.310       -8.424       53.402       60.910       30.816     2851.813     3710.039      949.600        1.138        0.376      123.172       22.617        0.034      338.175       10.648      857.039
09/27/2014  17:21:00     -100.108       84.202      -27.409       65.833       62.087       32.771     4333.963     3854.778     1073.914        1.356        0.463      130.811       34.139        0.068      338.135       10.581      857.045
09/27/2014  17:22:00      -11.971       50.840        2.059       17.585       35.931       19.069      309.228     1291.070      363.642        0.235        0.098       52.231       16.434        0.099      338.226       10.734      857.031
09/27/2014  17:23:00      -62.829        0.727       -7.231       31.522       41.375       25.500      993.634     1711.899      650.242        0.368        0.168       62.833       21.783        0.120      338.177       10.652      857.016
09/27/2014  17:24:00      -69.390       39.799      -15.661       65.897       53.642       30.962     4342.433     2877.474      958.652        0.741        0.409       79.993       44.007        0.303      338.142       10.592      857.020
09/27/2014  17:25:00     -137.725       79.263      -24.068       86.126       66.696       37.786     7417.644     4448.360     1427.811        1.956        0.665      158.905       45.552        0.082      338.109       10.537      857.004
09/27/2014  17:26:00      -44.387       35.299        3.532       26.086       54.347       29.793      680.490     2953.569      887.637        0.387        0.226       56.712       11.356        0.040      338.130       10.572      856.995
09/27/2014  17:27:00       -9.158       36.064        9.031       26.213       33.163       24.267      687.107     1099.801      588.872        0.192        0.119       37.209       16.402        0.194      338.164       10.628      856.994
09/27/2014  17:28:00      -26.614       69.834       16.027       58.929       48.065       33.992     3472.619     2310.229     1155.459        0.639        0.347       74.733       28.647        0.147      338.185       10.664      856.998
09/27/2014  17:29:00      -25.193       46.654        2.086       31.448       39.130       22.385      988.950     1531.175      501.098        0.292        0.151       53.021       16.072        0.092      338.144       10.594      857.000
09/27/2014  17:30:00      -92.067       87.176      -22.539       74.791       66.825       26.359     5593.702     4465.577      694.820        1.367        0.538      126.791       34.140        0.073      338.110       10.537      856.997
09/27/2014  17:31:00      -93.182      123.370      -15.814       51.761       54.361       33.584     2679.151     2955.167     1127.898        1.546        0.338      154.606       26.869        0.030      338.095       10.514      856.996
09/27/2014  17:32:00     -109.199      130.345      -21.882      101.338       93.285       52.259    10269.482     8702.086     2731.039        2.554        1.085      170.042       64.314        0.143      338.095       10.512      856.986
09/27/2014  17:33:00      -85.736       34.587       -8.030       43.382       73.093       36.213     1882.036     5342.652     1311.381        0.857        0.427       92.450       29.027        0.099      338.090       10.504      856.973
09/27/2014  17:34:00     -163.587        3.640      -14.291      118.604       60.845       40.403    14066.955     3702.103     1632.411        2.319        0.970      163.628       39.492        0.058      338.088       10.500      856.970
09/27/2014  17:35:00      -98.828       55.536      -24.803       61.143       43.512       26.985     3738.491     1893.259      728.187        0.991        0.318      113.363       27.177        0.057      338.051       10.440      856.963
09/27/2014  17:36:00      -96.994       97.138      -21.314       41.719       50.805       24.146     1740.504     2581.149      583.044        1.210        0.245      137.272       21.829        0.025      338.081       10.491      856.981
09/27/2014  17:37:00      -57.178      151.503      -14.870       77.216       90.048       46.884     5962.272     8108.601     2198.071        2.135        0.813      161.933       46.546        0.083      338.090       10.504      856.981
09/27/2014  17:38:00     -168.855      142.733      -25.627       69.171       90.393       53.522     4784.620     8170.822     2864.649        3.268        0.791      221.099       43.963        0.040      338.079       10.483      856.993
09/27/2014  17:39:00     -145.639      178.612      -29.504       79.402      124.232       45.838     6304.679    15433.674     2101.137        3.891        1.192      230.462       59.146        0.066      338.042       10.423      856.978
09/27/2014  17:40:00     -144.940      165.034      -41.862       61.926       79.187       36.128     3834.815     6270.582     1305.233        3.070        0.571      219.645       35.558        0.026      338.019       10.384      856.989
09/27/2014  17:41:00     -117.906      248.301      -40.406      105.757      101.321       54.028    11184.553    10266.009     2918.988        5.077        1.218      274.873       68.503        0.062      338.018       10.383      856.970
09/27/2014  17:42:00      -70.930      336.642      -39.498       65.620       66.510       42.495     4306.018     4423.536     1805.848        6.523        0.527      344.034       31.930        0.009      338.026       10.394      856.962
09/27/2014  17:43:00      -93.584      197.901      -17.217       48.899       64.184       40.746     2391.092     4119.587     1660.258        2.819        0.409      218.913       35.997        0.027      338.097       10.515      856.963
09/27/2014  17:44:00      -63.390      214.007      -25.167       47.159       56.887       30.039     2223.961     3236.085      902.318        2.841        0.318      223.197       28.081        0.016      338.070       10.468      856.974
09/27/2014  17:45:00      -86.619      107.960       -9.785       45.365       54.243       26.347     2057.974     2942.356      694.172        1.247        0.285      138.413       24.008        0.030      338.038       10.418      856.966
09/27/2014  17:46:00      -77.262       61.686       -9.896       31.585       34.111       23.852      997.584     1163.574      568.895        0.630        0.137       98.866       14.698        0.022      338.044       10.427      856.966
09/27/2014  17:47:00      -27.004      123.245       -9.081       24.280       83.227       32.349      589.502     6926.682     1046.463        1.228        0.428      126.168       37.667        0.089      338.063       10.460      856.972
09/27/2014  17:48:00      -75.858       20.848        5.087       46.858       43.836       26.166     2195.647     1921.585      684.662        0.551        0.240       78.671       28.125        0.128      338.095       10.514      856.973
09/27/2014  17:49:00      -27.858       79.905       14.890       47.151       59.216       37.334     2223.257     3506.586     1393.811        0.725        0.356       84.622       35.516        0.176      338.103       10.527      856.976
09/27/2014  17:50:00       10.812       60.934       -0.901       23.776       57.806       23.280      565.312     3341.553      541.975        0.414        0.222       61.886       24.896        0.162      338.085       10.497      856.980
09/27/2014  17:51:00      -54.189       37.938        6.771       57.673       34.220       33.840     3326.163     1170.993     1145.173        0.503        0.282       66.149       39.531        0.357      338.125       10.563      856.985
09/27/2014  17:52:00      -74.375       33.668      -22.370       54.187       70.326       30.231     2936.279     4945.700      913.905        0.798        0.440       81.641       25.541        0.098      338.078       10.484      857.004
09/27/2014  17:53:00      -83.297      104.238      -28.182       65.899       71.513       36.015     4342.620     5114.161     1297.075        1.467        0.538      133.432       35.834        0.072      338.131       10.573      857.006
09/27/2014  17:54:00      -14.759      190.410       -6.969       51.968      108.799       46.206     2700.673    11837.200     2135.015        2.659        0.834      190.981       49.757        0.068      338.053       10.441      857.004
09/27/2014  17:55:00      -30.886      149.429       -9.528       89.007      110.908       53.457     7922.160    12300.596     2857.628        2.322        1.154      152.588       53.687        0.124      338.083       10.492      857.005
09/27/2014  17:56:00     -159.020      185.081      -18.399       89.877       87.146       55.907     8077.816     7594.435     3125.608        3.934        0.940      244.013       59.170        0.059      338.026       10.395      857.013
09/27/2014  17:57:00     -115.321      158.627      -37.714      101.950       72.093       48.050    10393.862     5197.440     2308.775        2.889        0.895      196.116       38.905        0.039      338.000       10.353      857.010
09/27/2014  17:58:00      -92.570      178.241       -2.758       88.063      108.056       56.320     7755.047    11676.130     3171.965        3.147        1.130      200.846       53.071        0.070      337.997       10.346      856.997
09/27/2014  17:59:00      -72.092      309.911      -30.101       68.188      126.323       54.430     4649.553    15957.445     2962.669        6.286        1.178      318.186       64.402        0.041      337.933       10.237      857.002
09/27/2014  18:00:00      -47.926      117.677       -2.081       82.333      109.051       54.233     6778.655    11892.205     2941.203        1.888        1.081      127.062       37.404        0.087      337.938       10.249      857.007
09/27/2014  18:01:00     -154.331       54.505      -11.063      100.621       71.611       44.386    10124.519     5128.129     1970.099        2.206        0.861      163.673       43.424        0.070      337.920       10.217      857.014
09/27/2014  18:02:00      -45.962       84.720       -8.614       42.881       91.268       38.202     1838.760     8329.786     1459.411        1.049        0.581       96.385       25.201        0.068      337.886       10.160      857.028
09/27/2014  18:03:00     -121.934       99.297      -12.165       80.661       91.526       32.801     6506.258     8377.054     1075.920        2.041        0.798      157.251       34.812        0.049      337.915       10.212      857.032
09/27/2014  18:04:00      -70.945       61.783       -1.737       88.024       52.169       35.128     7748.177     2721.638     1233.961        1.028        0.585       94.077       43.374        0.213      337.895       10.178      857.042
09/27/2014  18:05:00     -214.186       38.157      -24.654      117.709      185.985       61.794    13855.375    34590.518     3818.458        5.009        2.613      217.559       62.366        0.082      337.839       10.081      857.043
09/27/2014  18:06:00     -152.181      160.704      -22.027      101.413       74.099       43.864    10284.665     5490.669     1924.036        3.358        0.885      221.325       43.471        0.039      337.836       10.076      857.049
09/27/2014  18:07:00     -163.533        6.428      -21.966       57.294       99.839       41.284     3282.551     9967.891     1704.371        2.111        0.748      163.659       30.226        0.034      337.789        9.998      857.052
09/27/2014  18:08:00     -120.004      -64.954       -4.107       76.073       80.692       51.697     5787.110     6511.193     2672.550        1.680        0.749      136.455       36.816        0.073      337.746        9.926      857.048
09/27/2014  18:09:00      -54.449      -25.947       12.233       79.661       52.685       32.810     6345.934     2775.666     1076.523        0.699        0.510       60.316       40.936        0.461      337.729        9.901      857.046
09/27/2014  18:10:00     -126.715      -32.189      -10.882      107.884       86.604       43.814    11638.865     7500.336     1919.658        1.913        1.053      130.739       37.598        0.083      337.689        9.831      857.051
09/27/2014  18:11:00     -120.855       30.233      -15.378       82.828       59.192       45.877     6860.453     3503.687     2104.680        1.411        0.623      124.579       33.140        0.071      337.675        9.808      857.062
09/27/2014  18:12:00     -188.235      -44.905      -20.485       72.738       61.069       40.226     5290.750     3729.372     1618.169        2.425        0.532      193.517       21.421        0.012      337.648        9.763      857.055
09/27/2014  18:13:00     -170.489       -2.939      -24.500       56.796       43.820       30.241     3225.830     1920.160      914.548        1.787        0.303      170.514       24.318        0.020      337.665        9.792      857.061
09/27/2014  18:14:00      -77.061       10.898       -0.902       42.024       45.521       29.292     1766.050     2072.122      858.042        0.538        0.235       77.828       22.294        0.082      337.645        9.759      857.075
09/27/2014  18:15:00     -105.728        7.972      -20.327       93.027       49.285       28.413     8653.950     2429.055      807.309        1.177        0.595      106.028       32.927        0.096      337.642        9.753      857.077
09/27/2014  18:16:00     -199.949      -33.037      -13.667       86.535       58.224       38.718     7488.331     3390.046     1499.046        2.682        0.619      202.660       40.170        0.039      337.591        9.664      857.058
09/27/2014  18:17:00     -125.695      -42.588       -5.602       62.151       43.279       33.259     3862.791     1873.101     1106.178        1.224        0.342      132.714       35.845        0.073      337.605        9.691      857.063
09/27/2014  18:18:00     -148.289      -74.831       -7.853       64.750       49.726       34.527     4192.524     2472.703     1192.125        1.775        0.393      166.100       32.730        0.039      337.645        9.758      857.062
09/27/2014  18:19:00     -109.674       38.991       -2.140       53.745       49.696       30.286     2888.501     2469.711      917.239        0.991        0.314      116.399       29.014        0.062      337.660        9.783      857.067
09/27/2014  18:20:00     -134.181       52.330      -12.632       82.432       47.468       38.098     6795.083     2253.184     1451.448        1.570        0.525      144.024       46.255        0.103      337.689        9.831      857.081
09/27/2014  18:21:00     -131.348      -36.891       -1.599       68.153       45.811       30.256     4644.874     2098.616      915.419        1.314        0.383      136.431       13.752        0.010      337.675        9.810      857.073
09/27/2014  18:22:00      -84.106      -17.298       -5.321       33.465       48.687       26.279     1119.907     2370.395      690.582        0.579        0.209       85.866       18.747        0.048      337.671        9.801      857.067
09/27/2014  18:23:00      -68.927       17.767      -11.001       38.326       44.991       28.589     1468.894     2024.145      817.345        0.475        0.216       71.180       27.856        0.153      337.694        9.839      857.065
09/27/2014  18:24:00      -51.404       -8.063        0.760       64.184       32.527       20.322     4119.581     1058.036      412.964        0.415        0.280       52.033       25.010        0.231      337.731        9.903      857.058
09/27/2014  18:25:00     -110.090      -56.016       -2.825       72.622       40.349       30.442     5274.015     1628.060      926.715        1.155        0.391      123.522       39.782        0.104      337.722        9.888      857.073
09/27/2014  18:26:00     -113.383      -64.057       -3.471       56.497       54.826       25.244     3191.919     3005.879      637.266        1.190        0.342      130.227       25.547        0.038      337.699        9.847      857.065
09/27/2014  18:27:00      -85.555      -39.569       11.811       56.119       50.868       37.315     3149.313     2587.517     1392.373        0.808        0.356       94.263       39.118        0.172      337.739        9.918      857.058
09/27/2014  18:28:00      -90.829      -30.763        4.642       64.641       64.420       39.959     4178.483     4149.989     1596.695        0.957        0.496       95.897       40.525        0.179      337.765        9.959      857.070
09/27/2014  18:29:00     -173.491      -60.101      -20.461       57.968       79.800       29.780     3360.251     6367.981      886.825        2.237        0.531      183.607       18.841        0.011      337.752        9.937      857.086
09/27/2014  18:30:00     -200.762      -71.781       -4.073       74.794       60.438       35.836     5594.164     3652.802     1284.252        2.800        0.527      213.208       28.117        0.017      337.731        9.901      857.067
09/27/2014  18:31:00     -139.136      -67.960      -10.866       84.906       51.093       29.650     7209.093     2610.506      879.141        1.740        0.535      154.847       30.721        0.039      337.775        9.975      857.066
09/27/2014  18:32:00      -44.218       -8.086        2.342       59.129       35.749       30.497     3496.247     1277.980      930.055        0.386        0.285       44.951       35.010        0.607      337.784        9.991      857.084
09/27/2014  18:33:00     -194.935       41.386      -17.285       56.288       63.074       33.944     3168.367     3978.354     1152.211        2.415        0.415      199.279       33.823        0.029      337.719        9.881      857.104
09/27/2014  18:34:00     -132.799       -5.788      -14.669       66.710       62.680       28.069     4450.181     3928.798      787.864        1.352        0.458      132.925       24.527        0.034      337.713        9.873      857.089
09/27/2014  18:35:00     -174.605      -42.639      -12.737       64.673       67.811       36.845     4182.638     4598.293     1357.577        2.130        0.507      179.736       35.410        0.039      337.711        9.870      857.098
09/27/2014  18:36:00     -171.495       20.961      -22.755       39.444       50.996       27.209     1555.815     2600.616      740.320        1.763        0.245      172.771       20.031        0.013      337.700        9.850      857.105
09/27/2014  18:37:00     -231.766      -45.375       -9.758      137.536      139.861       46.486    18916.044    19561.177     2160.951        4.825        2.032      236.166       44.002        0.035      337.713        9.872      857.095
09/27/2014  18:38:00     -195.842      -66.703       -3.610       85.802       97.413       42.099     7362.052     9489.270     1772.308        3.072        0.931      206.889       39.529        0.037      337.692        9.835      857.104
09/27/2014  18:39:00     -104.344      -12.719        3.410       77.752       45.716       36.276     6045.309     2089.991     1315.913        1.025        0.473      105.116       42.489        0.163      337.684        9.823      857.100
09/27/2014  18:40:00     -231.091       -7.051      -31.010       71.445       59.912       34.968     5104.404     3589.491     1222.745        3.216        0.496      231.199       26.161        0.013      337.701        9.850      857.091
09/27/2014  18:41:00     -191.414       -6.893       -9.310       93.303       84.402       53.684     8705.516     7123.683     2881.928        2.774        0.936      191.538       49.124        0.066      337.715        9.873      857.078
09/27/2014  18:42:00     -137.609       84.292      -39.884       95.266       60.900       40.560     9075.589     3708.826     1645.114        2.103        0.721      161.374       33.292        0.043      337.732        9.903      857.070
09/27/2014  18:43:00      -73.335       38.667       -2.068       61.892       37.623       24.259     3830.579     1415.506      588.501        0.636        0.292       82.905       33.327        0.162      337.753        9.939      857.063
09/27/2014  18:44:00      -68.594      -14.878       -5.467       49.981       52.380       30.582     2498.099     2743.654      935.286        0.557        0.309       70.189       25.247        0.129      337.745        9.927      857.057
09/27/2014  18:45:00     -108.505      -38.146        3.398       68.570       38.287       36.447     4701.842     1465.912     1328.419        1.037        0.375      115.015       33.941        0.087      337.748        9.931      857.051
09/27/2014  18:46:00      -98.143      -37.144      -12.898       56.530       51.519       22.787     3195.606     2654.191      519.259        0.877        0.318      104.937       18.755        0.032      337.740        9.918      857.054
09/27/2014  18:47:00     -146.044      -51.479       -6.740       85.936       61.633       37.437     7384.960     3798.672     1401.493        1.830        0.629      154.851       44.228        0.082      337.762        9.954      857.049
09/27/2014  18:48:00      -86.403       -8.994       11.016       84.648       49.834       45.358     7165.284     2483.444     2057.321        0.968        0.585       86.870       36.858        0.180      337.784        9.991      857.048
09/27/2014  18:49:00     -224.641        1.773      -37.003       71.364       75.107       36.600     5092.799     5641.104     1339.535        3.195        0.604      224.648       29.206        0.017      337.801       10.017      857.058
09/27/2014  18:50:00     -178.889      -10.422      -12.001       67.765       56.359       45.701     4592.124     3176.364     2088.589        2.105        0.493      179.193       41.768        0.054      337.788        9.997      857.047
09/27/2014  18:51:00     -132.459      -44.720        1.743       52.504       35.093       24.601     2756.696     1231.495      605.187        1.207        0.230      139.805       26.220        0.035      337.773        9.973      857.042
09/27/2014  18:52:00     -118.533      -40.370       -7.206       49.029       29.297       24.487     2403.819      858.287      599.614        0.980        0.193      125.219       24.195        0.037      337.786        9.994      857.039
09/27/2014  18:53:00     -120.194       -6.757        7.206      104.580       59.520       38.613    10937.010     3542.592     1490.989        1.525        0.799      120.384       46.943        0.152      337.818       10.048      857.032
09/27/2014  18:54:00     -109.689       -7.398      -19.839       54.007       58.445       42.031     2916.737     3415.807     1766.644        1.029        0.405      109.939       24.623        0.050      337.816       10.044      857.041
09/27/2014  18:55:00     -123.638       -0.617       -9.888       74.361       44.506       35.099     5529.543     1980.742     1231.943        1.206        0.437      123.640       36.667        0.088      337.807       10.030      857.035
09/27/2014  18:56:00     -102.225      -40.097       -2.757       60.845       47.118       29.351     3702.147     2220.104      861.485        0.942        0.339      109.808       32.110        0.086      337.805       10.027      857.027
09/27/2014  18:57:00     -155.561      -24.176       -7.484       47.797       47.093       27.465     2284.522     2217.710      754.344        1.505        0.263      157.428       21.142        0.018      337.775        9.977      857.019
09/27/2014  18:58:00     -114.283      -37.171       -5.148       38.458       43.829       21.290     1479.044     1921.024      453.269        0.916        0.193      120.176       15.036        0.016      337.806       10.029      857.018
09/27/2014  18:59:00     -182.418      -20.085      -15.185       48.238       45.766       32.285     2326.860     2094.551     1042.322        1.969        0.273      183.520       28.740        0.025      337.852       10.104      857.015
09/27/2014  19:00:00     -187.312       -7.066      -14.059       84.764       62.124       34.095     7184.864     3859.331     1162.464        2.377        0.610      187.445       30.694        0.027      337.823       10.054      857.002
09/27/2014  19:01:00     -267.938      -41.544      -23.529       75.341       57.365       44.060     5676.272     3290.720     1941.316        4.249        0.545      271.139       40.888        0.023      337.856       10.108      856.992
09/27/2014  19:02:00     -208.082      -40.645      -14.326       78.117       60.347       32.763     6102.231     3641.764     1073.392        2.798        0.541      212.015       31.562        0.022      337.851       10.102      856.979
09/27/2014  19:03:00     -164.643      -17.812      -15.026       64.139       48.999       28.904     4113.844     2400.917      835.462        1.750        0.368      165.603       31.300        0.036      337.874       10.143      856.984
09/27/2014  19:04:00     -178.248      -23.626      -18.415       54.998       53.085       29.327     3024.828     2817.972      860.060        1.969        0.335      179.807       24.781        0.019      337.843       10.089      857.000
09/27/2014  19:05:00     -195.242      -20.051      -19.270       66.845       46.444       32.917     4468.212     2157.034     1083.497        2.330        0.385      196.269       33.088        0.028      337.845       10.091      857.005
09/27/2014  19:06:00     -139.139      -65.282       -8.202       48.382       54.972       33.379     2340.805     3021.899     1114.179        1.508        0.324      153.692       26.599        0.030      337.827       10.063      857.004
09/27/2014  19:07:00     -142.674      -78.641        7.547       61.241       49.748       33.118     3750.459     2474.856     1096.820        1.696        0.366      162.912       33.563        0.042      337.809       10.032      857.000
09/27/2014  19:08:00     -167.022      -64.712       -4.597       86.989       58.945       44.176     7567.026     3474.558     1951.480        2.255        0.650      179.120       39.816        0.049      337.858       10.113      857.000
09/27/2014  19:09:00     -167.107      -51.047       -6.749       47.800       64.668       31.909     2284.825     4181.915     1018.186        1.903        0.374      174.730       25.268        0.021      337.840       10.085      856.997
09/27/2014  19:10:00     -154.512        4.145      -22.703       65.974       61.064       36.823     4352.624     3728.790     1355.913        1.692        0.472      154.568       35.113        0.052      337.795       10.009      857.011
09/27/2014  19:11:00     -215.702       29.608      -19.835       48.475       58.701       35.385     2349.868     3445.807     1252.100        2.742        0.352      217.724       22.356        0.011      337.834       10.072      857.005
09/27/2014  19:12:00     -121.920       39.841      -24.064       37.059       45.427       25.679     1373.370     2063.575      659.437        1.056        0.205      128.265       18.268        0.020      337.800       10.018      857.011
09/27/2014  19:13:00      -87.646       37.139       -0.541       67.015       62.066       35.427     4491.013     3852.160     1255.045        0.933        0.480       95.190       30.853        0.105      337.811       10.036      857.010
09/27/2014  19:14:00     -105.182       -7.518       -8.466       62.100       67.436       30.325     3856.455     4547.637      919.625        1.026        0.466      105.450       24.400        0.054      337.805       10.028      857.001
09/27/2014  19:15:00     -129.300      -53.138       -7.639       60.489       44.105       33.476     3658.869     1945.284     1120.658        1.316        0.336      139.794       31.568        0.051      337.790       10.002      857.003
09/27/2014  19:16:00      -71.912      -39.028       -0.598       62.121       39.627       23.918     3858.967     1570.324      572.090        0.635        0.300       81.820        9.448        0.013      337.802       10.022      857.000
09/27/2014  19:17:00     -120.511       -1.260       -7.504       53.790       35.496       28.704     2893.377     1259.960      823.948        0.978        0.249      120.517       27.132        0.051      337.799       10.017      857.006
09/27/2014  19:18:00      -78.757      -18.134       -5.212       43.983       31.231       21.791     1934.528      975.382      474.837        0.497        0.169       80.817       23.255        0.083      337.780        9.983      857.018
09/27/2014  19:19:00      -82.058      -21.192        3.378       95.444       57.236       31.972     9109.511     3276.006     1022.181        1.030        0.670       84.751       39.060        0.212      337.807       10.029      857.014
09/27/2014  19:20:00     -168.327      -51.532      -10.836       55.249       56.515       27.471     3052.435     3193.979      754.672        1.905        0.350      176.038       20.419        0.013      337.766        9.962      857.023
09/27/2014  19:21:00     -127.316       27.287      -14.783       40.509       34.669       25.607     1641.016     1201.964      655.711        1.033        0.175      130.207       18.350        0.020      337.767        9.963      857.029
09/27/2014  19:22:00     -102.044        9.065      -11.926       48.492       45.845       24.123     2351.461     2101.793      581.913        0.784        0.252      102.446       20.883        0.042      337.762        9.955      857.026
09/27/2014  19:23:00      -98.459      -60.132       -2.774       46.417       40.565       30.907     2154.569     1645.537      955.252        0.904        0.238      115.369       22.384        0.038      337.761        9.953      857.009
09/27/2014  19:24:00     -127.662      -32.481       -5.023       52.651       56.579       26.451     2772.115     3201.133      699.650        1.202        0.334      131.729       25.397        0.037      337.729        9.901      857.012
09/27/2014  19:25:00     -171.460      -10.647      -21.520       56.393       86.213       28.208     3180.195     7432.717      795.712        2.069        0.570      171.790       21.929        0.016      337.790       10.002      857.013
09/27/2014  19:26:00     -117.515      -10.444        5.033       62.470      112.116       43.499     3902.542    12569.957     1892.131        1.615        0.918      117.978       38.367        0.106      337.793       10.007      857.007
09/27/2014  19:27:00      -93.826        9.506      -11.537       55.190       91.022       31.809     3045.965     8284.987     1011.792        1.068        0.617       94.306       20.830        0.049      337.868       10.134      857.014
09/27/2014  19:28:00     -165.061       -9.532       -7.817       61.384       68.451       35.418     3768.043     4685.510     1254.400        1.855        0.485      165.336       27.464        0.028      337.782        9.987      857.007
09/27/2014  19:29:00     -203.393       20.724      -18.532       88.120       87.689       40.499     7765.082     7689.328     1640.187        2.962        0.855      204.446       37.477        0.034      337.815       10.042      857.002
09/27/2014  19:30:00     -181.679      -38.164      -14.381       81.364       65.790       39.853     6620.143     4328.343     1588.274        2.360        0.627      185.644       34.499        0.035      337.750        9.934      857.012
09/27/2014  19:31:00     -177.038      -46.800      -15.502       36.996       46.413       24.485     1368.726     2154.144      599.521        1.895        0.206      183.119       16.700        0.008      337.740        9.918      857.033
09/27/2014  19:32:00     -111.065       20.151       -3.580       33.416       41.184       17.551     1116.654     1696.104      308.020        0.794        0.156      112.878       13.004        0.013      337.726        9.896      857.040
09/27/2014  19:33:00     -119.061      -43.188      -18.416       44.640       32.909       26.566     1992.719     1083.019      705.755        1.008        0.189      126.652       13.068        0.011      337.756        9.947      857.038
09/27/2014  19:34:00      -79.633      -43.052       -2.275       59.220       36.672       30.685     3506.992     1344.839      941.552        0.700        0.290       90.526       28.522        0.099      337.747        9.930      857.032
09/27/2014  19:35:00     -129.936      -35.032       -6.343       48.772       70.778       32.389     2378.741     5009.506     1049.054        1.329        0.422      134.576       24.455        0.033      337.742        9.921      857.042
09/27/2014  19:36:00     -156.887       30.108      -24.982       65.694       62.886       29.573     4315.662     3954.676      874.585        1.764        0.457      159.750       34.155        0.046      337.747        9.929      857.043
09/27/2014  19:37:00     -151.604      -45.512      -18.450       82.222       50.294       31.732     6760.421     2529.444     1006.891        1.784        0.515      158.288       39.051        0.061      337.726        9.894      857.061
09/27/2014  19:38:00     -111.973       17.687       -0.043       47.958      108.757       44.355     2299.959    11828.028     1967.359        1.447        0.805      113.361       43.146        0.145      337.722        9.886      857.056
09/27/2014  19:39:00     -163.109      -11.902      -20.682       33.793       28.387       26.320     1141.951      805.840      692.745        1.491        0.132      163.543       16.598        0.010      337.723        9.890      857.059
09/27/2014  19:40:00     -135.639        2.464      -13.181       60.754       95.406       32.181     3691.106     9102.254     1035.593        1.620        0.691      135.662       25.466        0.035      337.752        9.937      857.054
09/27/2014  19:41:00     -170.554      -76.659      -17.589       73.679       70.061       38.712     5428.656     4908.513     1498.612        2.355        0.592      186.990       30.170        0.026      337.729        9.899      857.051
09/27/2014  19:42:00     -138.729      -11.705       -5.590       71.241       53.735       38.681     5075.231     2887.428     1496.208        1.443        0.473      139.222       31.284        0.050      337.717        9.879      857.055
09/27/2014  19:43:00     -138.306      -50.714       -2.921       55.988       49.964       27.564     3134.619     2496.354      759.763        1.405        0.320      147.311       29.184        0.039      337.705        9.858      857.060
09/27/2014  19:44:00     -178.083      -75.186      -16.114       70.148       57.236       30.888     4920.767     3275.969      954.070        2.339        0.458      193.304       22.582        0.014      337.720        9.881      857.067
09/27/2014  19:45:00     -206.652       68.954      -40.781       60.550       95.889       35.264     3666.315     9194.774     1243.585        3.161        0.705      217.852       42.155        0.037      337.724        9.888      857.068
09/27/2014  19:46:00     -129.632       -6.341      -18.048       61.256       51.240       36.462     3752.340     2625.545     1329.511        1.244        0.385      129.787       35.124        0.073      337.737        9.913      857.082
09/27/2014  19:47:00     -155.276       19.617      -16.751       81.801       57.047       39.032     6691.420     3254.334     1523.463        1.812        0.573      156.511       38.614        0.061      337.752        9.937      857.086
09/27/2014  19:48:00     -131.984       12.051       -7.210       56.114       62.193       39.294     3148.833     3868.005     1544.057        1.309        0.428      132.533       28.381        0.046      337.737        9.913      857.074
09/27/2014  19:49:00     -106.419       95.229      -20.883       51.746       66.728       37.064     2677.597     4452.666     1373.733        1.467        0.425      142.806       34.172        0.057      337.752        9.938      857.060
09/27/2014  19:50:00     -138.677       22.187      -13.762       97.536       48.153       38.451     9513.362     2318.752     1478.481        1.661        0.666      140.441       48.954        0.122      337.771        9.969      857.066
09/27/2014  19:51:00     -144.977       45.592      -29.282       57.680       60.074       28.872     3326.968     3608.839      833.569        1.586        0.388      151.977       17.258        0.013      337.768        9.964      857.074
09/27/2014  19:52:00     -161.158       36.150      -26.687       55.635       60.270       28.167     3095.201     3632.504      793.366        1.775        0.376      165.163       16.549        0.010      337.756        9.945      857.079
09/27/2014  19:53:00     -143.569       12.246      -20.570       73.641       68.605       35.531     5423.007     4706.601     1262.420        1.629        0.570      144.090       28.501        0.039      337.789       10.000      857.075
09/27/2014  19:54:00      -72.210       71.838       -5.317       72.358       39.908       34.441     5235.741     1592.687     1186.191        0.921        0.401      101.858       35.593        0.122      337.841       10.088      857.078
09/27/2014  19:55:00     -117.121       72.287      -20.638       49.789       60.053       33.675     2478.965     3606.342     1133.994        1.329        0.361      137.632       30.885        0.050      337.811       10.038      857.076
09/27/2014  19:56:00      -64.014       79.779       -4.628       70.907       63.836       50.702     5027.742     4074.993     2570.657        1.108        0.584      102.286       40.996        0.161      337.866       10.130      857.079
09/27/2014  19:57:00      -62.290       51.101      -13.423       44.823       58.987       27.470     2009.079     3479.456      754.575        0.646        0.312       80.569       23.589        0.086      337.839       10.083      857.082
09/27/2014  19:58:00     -117.168      111.660      -32.452       53.737       67.212       35.973     2887.624     4517.415     1294.056        1.797        0.435      161.853       31.484        0.038      337.833       10.074      857.083
09/27/2014  19:59:00      -90.570       83.050       -9.732       51.827       53.563       36.258     2685.991     2868.975     1314.645        1.103        0.343      122.883       33.498        0.074      337.808       10.033      857.094
09/27/2014  20:00:00      -87.939      131.089      -15.183       62.977       68.000       37.500     3966.165     4624.053     1406.217        1.757        0.500      157.854       37.120        0.055      337.814       10.040      857.110
09/27/2014  20:01:00      -75.030      101.356       -6.639       48.629       58.634       26.721     2364.768     3437.974      714.019        1.123        0.326      126.106       18.279        0.021      337.883       10.157      857.118
09/27/2014  20:02:00      -78.121       89.481      -14.645       48.151       45.426       30.081     2318.496     2063.492      904.846        0.980        0.264      118.784       34.452        0.084      337.795       10.011      857.124
09/27/2014  20:03:00      -66.419       62.949       -5.107       33.596       33.950       24.707     1128.695     1152.618      610.412        0.565        0.145       91.510       20.136        0.048      337.816       10.045      857.134
09/27/2014  20:04:00      -56.108       43.243      -10.103       34.648       29.047       24.201     1200.480      843.718      585.684        0.387        0.131       70.838       24.967        0.124      337.808       10.033      857.145
09/27/2014  20:05:00     -104.690       51.550      -17.656       37.297       46.397       29.943     1391.098     2152.711      896.584        0.918        0.222      116.694       22.915        0.039      337.821       10.054      857.152
09/27/2014  20:06:00      -60.211       97.768      -16.540       38.065       37.651       27.210     1448.939     1417.613      740.382        0.853        0.180      114.822       24.471        0.045      337.795       10.010      857.146
09/27/2014  20:07:00      -93.874       93.823      -17.255       56.649       63.019       36.525     3209.138     3971.411     1334.097        1.321        0.426      132.722       43.487        0.107      337.806       10.028      857.148
09/27/2014  20:08:00     -144.892      153.463      -39.504       40.350       45.741       29.983     1628.137     2092.263      898.964        2.536        0.231      211.056       27.035        0.016      337.796       10.009      857.149
09/27/2014  20:09:00      -37.273       85.078       -6.133       33.704       47.259       25.444     1135.928     2233.375      647.416        0.634        0.201       92.885       26.723        0.083      337.837       10.080      857.150
09/27/2014  20:10:00     -116.166       85.600      -18.304       48.210       34.315       26.329     2324.156     1177.523      693.234        1.268        0.210      144.298       21.723        0.023      337.828       10.065      857.133
09/27/2014  20:11:00      -67.487      127.086      -22.324       38.853       38.219       23.888     1509.564     1460.705      570.624        1.237        0.177      143.894       21.763        0.023      337.811       10.037      857.128
09/27/2014  20:12:00      -70.349       77.193      -16.932       65.296       52.026       32.998     4263.558     2706.683     1088.869        0.963        0.403      104.441       40.093        0.147      337.860       10.118      857.121
09/27/2014  20:13:00     -107.975      127.447      -24.159       42.265       68.098       22.764     1786.314     4637.379      518.220        1.771        0.347      167.037       22.067        0.017      337.784        9.991      857.116
09/27/2014  20:14:00     -112.145       98.400      -14.696       53.682       57.734       38.578     2881.783     3333.174     1488.280        1.509        0.385      149.194       29.733        0.040      337.732        9.905      857.097
09/27/2014  20:15:00     -126.464      137.901      -34.754       66.524       60.891       37.111     4425.376     3707.673     1377.224        2.286        0.476      187.109       38.913        0.043      337.718        9.878      857.097
09/27/2014  20:16:00     -114.980       93.684      -26.475       55.234       44.309       32.450     3050.804     1963.245     1052.994        1.438        0.303      148.314       37.204        0.063      337.720        9.884      857.104
09/27/2014  20:17:00     -134.428       54.363      -15.062       39.819       45.010       22.408     1585.592     2025.893      502.131        1.268        0.206      145.004       16.885        0.014      337.704        9.858      857.109
09/27/2014  20:18:00      -85.697       15.504       -7.985       25.313       24.413       15.272      640.736      595.973      233.242        0.456        0.073       87.088       11.479        0.017      337.743        9.925      857.105
09/27/2014  20:19:00      -90.004       -6.950       -6.651       45.674       43.554       21.562     2086.097     1896.967      464.920        0.632        0.222       90.272       20.039        0.049      337.726        9.894      857.097
09/27/2014  20:20:00      -51.359       20.211        0.212       23.596       23.270       16.803      556.753      541.488      282.340        0.221        0.069       55.193       15.323        0.077      337.783        9.990      857.105
09/27/2014  20:21:00     -163.342      -69.072      -24.467       62.830       46.970       23.635     3947.638     2206.187      558.603        1.938        0.336      177.346       11.113        0.004      337.764        9.956      857.101
09/27/2014  20:22:00     -103.507      -12.359       -6.508       83.466       51.175       37.895     6966.574     2618.868     1436.029        1.096        0.551      104.242       42.556        0.167      337.721        9.886      857.101
09/27/2014  20:23:00      -75.916        1.155      -13.201       63.909       40.389       27.361     4084.422     1631.261      748.605        0.620        0.323       75.924       20.853        0.075      337.711        9.871      857.105
09/27/2014  20:24:00      -92.621      -66.907       -8.281       53.751       43.749       30.686     2889.170     1913.948      941.649        0.943        0.287      114.259       30.124        0.070      337.685        9.827      857.127
09/27/2014  20:25:00      -50.483      -29.526       -0.571       41.031       28.567       32.787     1683.542      816.078     1074.992        0.350        0.179       58.484       24.875        0.181      337.670        9.802      857.150
09/27/2014  20:26:00      -62.053      -16.819        5.906       49.227       21.670       26.287     2423.299      469.580      691.008        0.388        0.179       64.292       27.010        0.176      337.676        9.811      857.160
09/27/2014  20:27:00     -111.958       38.973      -10.504       44.904       42.013       33.254     2016.377     1765.105     1105.850        0.952        0.244      118.547       24.293        0.042      337.660        9.783      857.170
09/27/2014  20:28:00      -66.577       13.137      -12.376       25.086       36.953       19.897      629.283     1365.525      395.883        0.357        0.120       67.861       11.316        0.028      337.696        9.844      857.172
09/27/2014  20:29:00      -91.392      -70.634       -2.755       45.461       36.321       28.072     2066.743     1319.201      788.040        0.876        0.209      115.506       24.590        0.045      337.641        9.754      857.177
09/27/2014  20:30:00      -28.459      -62.837        5.686       43.111       29.051       22.925     1858.568      843.946      525.571        0.401        0.161       68.981       10.762        0.024      337.644        9.757      857.168
09/27/2014  20:31:00     -100.256       43.546      -19.256       38.956       63.561       24.143     1517.594     4040.043      582.897        0.923        0.307      109.305       20.657        0.036      337.649        9.765      857.172
09/27/2014  20:32:00      -74.624       12.707       -6.891       20.558       28.974       15.172      422.623      839.515      230.176        0.363        0.075       75.698       10.348        0.019      337.633        9.740      857.184
09/27/2014  20:33:00      -65.030      -36.534       -4.566       48.325       36.407       28.453     2335.292     1325.454      809.564        0.503        0.224       74.590       29.092        0.152      337.607        9.697      857.183
09/27/2014  20:34:00     -103.496       22.870      -16.105       40.562       41.511       28.156     1645.309     1723.178      792.744        0.783        0.208      105.993       18.577        0.031      337.580        9.650      857.175
09/27/2014  20:35:00      -68.320        4.619      -16.478       38.243       34.233       19.692     1462.556     1171.917      387.768        0.399        0.151       68.476       15.677        0.052      337.579        9.649      857.172
09/27/2014  20:36:00      -55.811       -1.024       -1.251       53.542       51.486       24.892     2866.792     2650.828      619.625        0.463        0.307       55.820       25.965        0.216      337.571        9.635      857.165
09/27/2014  20:37:00      -64.052      -28.116        6.345       53.136       54.973       29.381     2823.465     3022.052      863.222        0.582        0.335       69.951       24.569        0.123      337.554        9.607      857.162
09/27/2014  20:38:00      -38.789      -24.395        7.867       49.252       45.658       26.582     2425.754     2084.657      706.601        0.369        0.261       45.822       27.742        0.367      337.544        9.589      857.165
09/27/2014  20:39:00     -100.164      -28.234        4.829       52.639       45.879       26.413     2770.897     2104.921      697.655        0.821        0.279      104.067       24.406        0.055      337.496        9.509      857.174
09/27/2014  20:40:00      -83.557      -30.976       -9.472       42.844       37.682       17.437     1835.587     1419.916      304.059        0.579        0.178       89.113       19.407        0.047      337.520        9.549      857.185
09/27/2014  20:41:00     -118.645      -36.210       -3.068       49.025       38.682       19.440     2403.457     1496.271      377.903        0.984        0.214      124.048       18.541        0.022      337.501        9.516      857.196
09/27/2014  20:42:00     -182.870       -7.871      -24.729       35.879       40.627       26.792     1287.337     1650.575      717.823        1.888        0.183      183.039       12.280        0.005      337.496        9.507      857.207
09/27/2014  20:43:00      -97.709      -31.178        0.028       38.293       38.360       22.980     1466.329     1471.485      528.081        0.699        0.173      102.563       22.004        0.046      337.500        9.515      857.205
09/27/2014  20:44:00     -145.852      -31.669      -10.939       34.591       43.473       19.263     1196.552     1889.870      371.064        1.293        0.173      149.250       14.934        0.010      337.553        9.605      857.206
09/27/2014  20:45:00     -171.281      -27.672       -8.618       39.762       37.187       24.873     1581.045     1382.880      618.672        1.688        0.179      173.502       19.557        0.013      337.575        9.640      857.202
09/27/2014  20:46:00      -95.669      -30.516       -3.423       70.737       56.027       24.065     5003.749     3138.996      579.117        0.941        0.436      100.418       25.177        0.063      337.595        9.674      857.189
09/27/2014  20:47:00     -123.792       -3.376        5.185       77.596       51.744       40.007     6021.189     2677.399     1600.537        1.283        0.515      123.838       37.085        0.090      337.602        9.686      857.187
09/27/2014  20:48:00      -77.962      -16.311       16.328       60.112       48.880       34.125     3613.435     2389.263     1164.492        0.689        0.358       79.650       35.409        0.198      337.612        9.705      857.192
09/27/2014  20:49:00      -86.590       -5.736        0.284       61.067       30.216       25.355     3729.132      912.992      642.854        0.641        0.264       86.780       33.243        0.147      337.594        9.673      857.185
09/27/2014  20:50:00      -25.725      -45.926       18.834       44.291       42.982       21.875     1961.687     1847.430      478.500        0.371        0.214       52.640       20.939        0.158      337.638        9.748      857.182
09/27/2014  20:51:00        3.872      -63.420        5.532       22.946       36.319       16.732      526.520     1319.098      279.950        0.310        0.106       63.538       12.966        0.042      337.701        9.853      857.170
09/27/2014  20:52:00      -53.496      -13.966        7.292       47.841       28.720       18.709     2288.721      824.854      350.031        0.329        0.173       55.289       19.259        0.121      337.704        9.857      857.171
09/27/2014  20:53:00     -133.092      -36.205       -7.419       48.805       48.289       32.559     2381.949     2331.856     1060.083        1.243        0.289      137.929       26.180        0.036      337.741        9.919      857.183
09/27/2014  20:54:00     -217.270     -114.380       -1.025      104.832       85.172       45.736    10989.681     7254.325     2091.766        4.031        1.017      245.538       48.521        0.039      337.675        9.806      857.202
09/27/2014  20:55:00     -118.287      -65.484       -1.054       70.171       51.567       32.785     4923.909     2659.207     1074.839        1.347        0.433      135.203       30.185        0.050      337.706        9.860      857.213
09/27/2014  20:56:00      -83.106      -16.194       -0.266       52.331       41.092       29.165     2738.508     1688.516      850.617        0.622        0.264       84.669       25.949        0.094      337.676        9.812      857.215
09/27/2014  20:57:00     -134.261      -95.741       -1.291       99.281       69.696       40.827     9856.686     4857.596     1666.837        2.178        0.819      164.901       47.236        0.082      337.676        9.808      857.197
09/27/2014  20:58:00     -105.778      -62.479        3.132       76.653       52.715       37.484     5875.652     2778.912     1405.024        1.258        0.503      122.852       37.263        0.092      337.647        9.761      857.195
09/27/2014  20:59:00     -101.675      -63.975        4.527       77.681       62.135       38.500     6034.323     3860.736     1482.248        1.291        0.569      120.128       45.046        0.141      337.636        9.743      857.195
09/27/2014  21:00:00     -138.223      -35.766       -4.616       48.043       42.861       23.299     2308.176     1837.093      542.826        1.255        0.234      142.775       14.517        0.010      337.625        9.726      857.204
09/27/2014  21:01:00     -141.064      -30.423       -4.119       62.733       46.670       27.208     3935.398     2178.107      740.293        1.385        0.343      144.307       27.108        0.035      337.593        9.672      857.218
09/27/2014  21:02:00     -153.467      -78.114       -7.437       60.457       49.113       28.897     3654.996     2412.066      835.044        1.830        0.345      172.203       23.956        0.019      337.619        9.714      857.220
09/27/2014  21:03:00     -170.808      -59.652       -4.843       68.452       51.152       29.706     4685.723     2616.520      882.431        2.047        0.409      180.925       18.310        0.010      337.559        9.612      857.222
09/27/2014  21:04:00      -71.846      -59.114        8.865       58.064       59.919       28.461     3371.372     3590.246      810.009        0.825        0.389       93.040       33.377        0.129      337.620        9.718      857.226
09/27/2014  21:05:00     -211.399      -59.511       -5.809       61.651       50.074       32.355     3800.854     2507.432     1046.814        2.781        0.368      219.616       27.330        0.015      337.603        9.686      857.238
09/27/2014  21:06:00     -114.291      -55.567        2.507       69.660       49.286       30.727     4852.513     2429.148      944.151        1.219        0.411      127.083       31.947        0.063      337.598        9.681      857.252
09/27/2014  21:07:00     -169.098      -34.139       -9.543       60.968       36.433       28.902     3717.137     1327.353      835.348        1.786        0.294      172.510       28.066        0.026      337.594        9.672      857.263
09/27/2014  21:08:00     -132.734      -38.396        2.660       73.292       44.605       29.010     5371.662     1989.615      841.606        1.365        0.410      138.176       34.924        0.064      337.596        9.677      857.270
09/27/2014  21:09:00      -72.516      -47.918       10.305       67.833       70.666       40.388     4601.291     4993.631     1631.176        0.944        0.561       86.918       41.581        0.229      337.639        9.748      857.268
09/27/2014  21:10:00     -113.976      -88.490       -3.000       76.665       46.484       36.938     5877.528     2160.798     1364.403        1.511        0.470      144.295       42.462        0.087      337.649        9.765      857.277
09/27/2014  21:11:00     -122.329      -71.440      -11.447       73.971       54.904       32.459     5471.689     3014.406     1053.580        1.487        0.477      141.662       28.294        0.040      337.659        9.783      857.284
09/27/2014  21:12:00     -125.480      -54.741       -0.431       53.822       41.589       25.530     2896.770     1729.609      651.799        1.201        0.264      136.901       21.626        0.025      337.681        9.819      857.289
09/27/2014  21:13:00      -96.340      -54.727        3.957       69.412       62.368       34.342     4818.082     3889.721     1179.402        1.109        0.494      110.799       43.321        0.153      337.678        9.815      857.295
09/27/2014  21:14:00     -179.071      -85.243      -12.188      100.917       70.589       26.364    10184.201     4982.838      695.072        2.767        0.793      198.326       38.959        0.039      337.680        9.813      857.301
09/27/2014  21:15:00     -135.552      -77.419       -3.676       70.200       83.040       37.056     4928.093     6895.605     1373.174        1.879        0.660      156.103       30.975        0.039      337.685        9.824      857.310
09/27/2014  21:16:00     -174.459      -46.220      -17.135       64.350       36.912       27.887     4140.965     1362.491      777.711        1.957        0.314      180.478       31.446        0.030      337.642        9.754      857.317
09/27/2014  21:17:00     -115.576      -74.934        0.445       64.779       59.808       30.413     4196.379     3577.040      924.942        1.383        0.435      137.743       32.142        0.054      337.696        9.844      857.317
09/27/2014  21:18:00     -123.616      -75.283       10.351       59.582       63.415       30.535     3550.070     4021.456      932.389        1.478        0.425      144.736       28.211        0.038      337.698        9.846      857.311
09/27/2014  21:19:00     -143.339      -30.067       -3.547       62.147       51.972       30.586     3862.195     2701.134      935.493        1.448        0.375      146.458       35.070        0.057      337.669        9.798      857.303
09/27/2014  21:20:00     -142.731      -59.714       -6.112       58.305       43.128       24.108     3399.455     1859.991      581.207        1.491        0.292      154.719       20.352        0.017      337.669        9.799      857.284
09/27/2014  21:21:00     -168.472     -121.816       -6.657       70.509       71.908       42.073     4971.464     5170.719     1770.096        2.759        0.596      207.899       39.012        0.035      337.704        9.856      857.265
09/27/2014  21:22:00     -187.706      -77.638       -6.968       81.762       65.447       37.292     6685.049     4283.285     1390.705        2.683        0.618      203.128       39.551        0.038      337.692        9.835      857.258
09/27/2014  21:23:00     -151.106      -90.230        5.183       62.977       66.439       38.980     3966.159     4414.168     1519.435        2.045        0.495      175.995       36.885        0.044      337.704        9.856      857.254
09/27/2014  21:24:00     -164.405      -73.852       -2.162       70.368       61.205       37.071     4951.720     3746.027     1374.262        2.128        0.504      180.231       36.725        0.042      337.709        9.865      857.253
09/27/2014  21:25:00     -214.763     -122.021      -10.921       49.841       48.937       31.718     2484.127     2394.798     1006.046        3.351        0.294      247.007       29.345        0.014      337.707        9.859      857.246
09/27/2014  21:26:00     -125.707      -23.868        3.430       53.413       42.832       31.793     2852.920     1834.589     1010.788        1.104        0.285      127.953       28.868        0.051      337.718        9.880      857.245
09/27/2014  21:27:00      -97.193      -45.228       -4.262       45.670       61.238       32.058     2085.708     3750.032     1027.685        0.919        0.343      107.201       26.587        0.062      337.729        9.899      857.235
09/27/2014  21:28:00     -165.067      -33.001       -9.313       55.490       75.936       33.695     3079.088     5766.265     1135.363        1.920        0.499      168.334       32.736        0.038      337.678        9.814      857.230
09/27/2014  21:29:00     -164.093     -126.757        4.969       85.508       67.708       46.050     7311.674     4584.392     2120.617        2.852        0.701      207.350       43.069        0.043      337.738        9.912      857.221
09/27/2014  21:30:00     -193.078     -141.822        1.213      106.061       77.290       58.862    11248.846     5973.810     3464.702        3.904        1.034      239.567       63.721        0.071      337.745        9.924      857.214
09/27/2014  21:31:00     -164.506     -117.403       -6.956       88.485       61.490       35.974     7829.601     3780.971     1294.133        2.690        0.645      202.103       36.133        0.032      337.754        9.939      857.218
09/27/2014  21:32:00     -148.407      -63.549        4.747      103.374       76.862       46.204    10686.176     5907.764     2134.798        2.240        0.936      161.440       44.073        0.075      337.784        9.990      857.232
09/27/2014  21:33:00     -207.570     -126.714       -3.152      106.601       81.183       43.253    11363.682     6590.715     1870.781        3.949        0.991      243.190       45.895        0.036      337.768        9.963      857.242
09/27/2014  21:34:00     -179.836     -107.950      -15.879       79.150       74.446       44.282     6264.655     5542.182     1960.859        2.900        0.688      209.748       42.835        0.042      337.731        9.902      857.265
09/27/2014  21:35:00     -170.868      -68.353       -4.453       81.406       68.020       34.388     6626.909     4626.693     1182.560        2.316        0.622      184.033       36.265        0.039      337.730        9.900      857.287
09/27/2014  21:36:00     -190.715     -149.761       -7.868       70.294       73.802       45.135     4941.283     5446.772     2037.137        3.564        0.621      242.488       46.040        0.036      337.752        9.935      857.297
09/27/2014  21:37:00     -156.947     -102.074       -5.861       76.783       70.446       42.271     5895.657     4962.697     1786.857        2.386        0.632      187.220       42.262        0.051      337.759        9.949      857.302
09/27/2014  21:38:00     -157.980     -118.155        1.693      105.711       75.028       46.538    11174.801     5629.236     2165.757        2.894        0.948      197.277       53.119        0.073      337.763        9.954      857.294
09/27/2014  21:39:00     -175.845     -133.473      -15.369       80.574       40.143       34.622     6492.180     1611.478     1198.684        2.914        0.465      220.764       21.336        0.009      337.756        9.943      857.283
09/27/2014  21:40:00     -131.438      -65.585       -7.130       31.262       41.326       19.258      977.318     1707.799      370.862        1.234        0.153      146.892       17.639        0.014      337.736        9.913      857.276
09/27/2014  21:41:00      -88.483      -73.014        0.536       54.374       61.548       29.076     2956.550     3788.200      845.399        1.037        0.380      114.719       29.528        0.066      337.758        9.948      857.281
09/27/2014  21:42:00      -76.228      -73.083       -8.022       60.025       51.986       29.407     3602.962     2702.535      864.748        0.919        0.359      105.602       32.120        0.093      337.810       10.035      857.285
09/27/2014  21:43:00     -110.596      -85.592      -11.791       56.089       42.430       25.609     3145.987     1800.268      655.846        1.265        0.280      139.848       19.080        0.019      337.828       10.065      857.292
09/27/2014  21:44:00      -82.569      -52.530       -1.228       34.675       24.921       21.043     1202.387      621.038      442.789        0.592        0.113       97.862       15.536        0.025      337.830       10.068      857.309
09/27/2014  21:45:00      -59.669      -41.400        8.650       32.217       33.103       24.216     1037.918     1095.801      586.394        0.403        0.136       72.625       14.690        0.041      337.865       10.127      857.319
09/27/2014  21:46:00      -48.684      -62.967        5.662       47.984       35.129       24.232     2302.452     1234.060      587.174        0.524        0.206       79.593       26.131        0.108      337.898       10.183      857.320
09/27/2014  21:47:00      -35.487      -47.103        1.246       45.469       27.046       28.183     2067.421      731.484      794.303        0.354        0.180       58.975       20.784        0.124      337.908       10.199      857.327
09/27/2014  21:48:00      -51.880      -41.087       -1.383       29.427       41.746       18.046      865.920     1742.737      325.650        0.366        0.147       66.180       15.701        0.056      337.844       10.092      857.330
09/27/2014  21:49:00        0.456      -32.586       10.614       14.871       29.937       16.301      221.134      896.245      265.735        0.128        0.069       32.589        9.108        0.078      337.887       10.166      857.341
09/27/2014  21:50:00      -41.683      -38.064        1.111       29.147       25.690       15.462      849.569      659.985      239.062        0.247        0.087       56.447       12.499        0.049      337.937       10.247      857.349
09/27/2014  21:51:00      -16.837      -11.385        5.571       20.533       14.515       12.379      421.591      210.671      153.243        0.061        0.039       20.325       11.322        0.310      337.903       10.192      857.348
09/27/2014  21:52:00       -8.642      -11.895       -0.241       18.699       17.565       16.673      349.652      308.547      277.974        0.058        0.047       14.703       11.089        0.569      337.966       10.296      857.353
09/27/2014  21:53:00        0.740      -79.449        5.040       23.755       18.600       17.028      564.305      345.973      289.967        0.377        0.060       79.452       10.490        0.017      337.919       10.220      857.373
09/27/2014  21:54:00       59.611       13.424       17.009       46.246       39.046       28.505     2138.669     1524.609      812.532        0.425        0.224       61.104       23.210        0.144      337.874       10.144      857.395
09/27/2014  21:55:00       95.087       42.960        7.426       36.797       26.036       27.158     1354.003      677.855      737.581        0.686        0.138      104.341       15.015        0.021      337.761        9.953      857.406
09/27/2014  21:56:00       86.870       61.868        5.606       39.515       30.369       22.895     1561.409      922.273      524.162        0.721        0.150      106.649       17.718        0.028      337.740        9.919      857.411
09/27/2014  21:57:00      107.953       63.308        6.404       28.258       30.354       24.501      798.488      921.367      600.323        0.901        0.116      125.147       12.013        0.009      337.705        9.860      857.420
09/27/2014  21:58:00       56.813       57.160       31.705       31.612       34.541       30.427      999.317     1193.093      925.773        0.531        0.156       80.591       19.930        0.061      337.783        9.989      857.428
09/27/2014  21:59:00       78.435       64.767       51.190       34.639       24.289       27.563     1199.849      589.975      759.720        0.776        0.127      101.720       18.897        0.035      337.762        9.955      857.427
09/27/2014  22:00:00       94.970       58.398       31.727       35.874       17.669       23.258     1286.979      312.198      540.941        0.779        0.107      111.488       20.621        0.034      337.772        9.974      857.435
09/27/2014  22:01:00      108.259       64.489       18.951       21.730       22.524       22.065      472.174      507.340      486.856        0.885        0.073      126.011        8.420        0.004      337.822       10.055      857.438
09/27/2014  22:02:00      100.811       60.208        5.082       35.595       18.153       17.008     1267.005      329.538      289.277        0.785        0.094      117.422       14.743        0.016      337.799       10.021      857.430
09/27/2014  22:03:00       47.671       34.625       32.033       24.394       17.101       18.979      595.060      292.435      360.191        0.287        0.062       58.918       11.840        0.040      337.826       10.063      857.419
09/27/2014  22:04:00       50.506       39.321        4.881       20.849       17.528       17.013      434.678      307.248      289.447        0.258        0.052       64.008       13.491        0.044      337.798       10.019      857.421
09/27/2014  22:05:00       53.102       34.519        3.235       24.990       20.102       19.680      624.512      404.099      387.288        0.272        0.071       63.336       12.017        0.036      337.810       10.038      857.422
09/27/2014  22:06:00       44.106       30.099        3.680       14.443       15.650       13.918      208.605      244.934      193.703        0.176        0.032       53.398        9.723        0.033      337.842       10.087      857.414
09/27/2014  22:07:00       42.081       29.207       -3.730       11.693        8.022        9.860      136.725       64.348       97.215        0.147        0.015       51.223        3.535        0.005      337.851       10.102      857.402
09/27/2014  22:08:00       60.582       38.382       20.630       12.550        7.961       11.964      157.513       63.377      143.148        0.297        0.018       71.717        3.933        0.003      337.854       10.107      857.393
09/27/2014  22:09:00       22.023       21.261       33.594       16.084       17.886        9.115      258.708      319.908       83.084        0.136        0.033       30.611        6.838        0.050      337.886       10.162      857.374
09/27/2014  22:10:00       18.417       25.535       27.439       10.149       10.813        8.657      102.999      116.926       74.940        0.102        0.015       31.484        3.407        0.012      337.923       10.225      857.363
09/27/2014  22:11:00        5.001       17.510       31.074        8.707       13.320        5.486       75.807      177.414       30.097        0.079        0.014       18.210        5.115        0.079      337.981       10.323      857.368
09/27/2014  22:12:00       -1.703       15.655       21.646       11.252       14.193        9.369      126.598      201.441       87.770        0.057        0.021       15.748        5.964        0.143      338.012       10.374      857.368
09/27/2014  22:13:00      -11.068        6.515       11.567       14.475       13.148       13.101      209.521      172.870      171.636        0.043        0.028       12.843        4.984        0.151      338.064       10.461      857.365
09/27/2014  22:14:00      -12.804      -14.510        2.991       14.933       12.172       11.238      222.988      148.145      126.290        0.044        0.025       19.352        6.722        0.121      338.060       10.454      857.360
09/27/2014  22:15:00       -3.674      -12.587       -2.414       14.620       18.993       12.431      213.732      360.716      154.526        0.045        0.036       13.112        7.501        0.327      338.042       10.425      857.370
09/27/2014  22:16:00      -59.780       -6.542        2.054       23.331       20.777       15.416      544.327      431.666      237.644        0.242        0.061       60.137       10.786        0.032      338.029       10.403      857.379
09/27/2014  22:17:00      -57.242      -25.296        2.547       32.019       27.565       15.838     1025.234      759.820      250.831        0.298        0.102       62.583       11.862        0.036      338.026       10.399      857.381
09/27/2014  22:18:00      -78.297      -36.108       -9.590       24.644       15.450       11.650      607.330      238.697      135.728        0.425        0.049       86.222        8.996        0.011      338.022       10.391      857.371
09/27/2014  22:19:00      -72.104       -4.891       -7.145       22.355       19.304       10.252      499.742      372.649      105.099        0.313        0.049       72.269        4.211        0.003      338.014       10.378      857.367
09/27/2014  22:20:00     -106.439       10.583       -8.322       23.809       14.462       11.689      566.867      209.147      136.628        0.621        0.046      106.964       12.491        0.014      338.004       10.360      857.373
09/27/2014  22:21:00     -123.005       11.510      -18.190       45.031       27.372       17.103     2027.756      749.202      292.519        0.933        0.153      123.542       13.083        0.011      338.070       10.472      857.359
09/27/2014  22:22:00     -159.241      -13.214      -19.038       40.694       41.470       22.846     1655.991     1719.772      521.931        1.490        0.195      159.788       17.711        0.012      337.972       10.308      857.338
09/27/2014  22:23:00     -197.852      -68.186      -18.516       52.691       43.240       27.845     2776.342     1869.711      775.357        2.478        0.271      209.272       21.591        0.011      337.884       10.158      857.308
09/27/2014  22:24:00     -209.672      -30.760      -25.337       54.485       63.429       23.615     2968.659     4023.181      557.690        2.655        0.377      211.917       13.767        0.004      337.865       10.124      857.291
09/27/2014  22:25:00     -130.893      -58.481        4.808       56.346       44.282       29.224     3174.899     1960.922      854.059        1.328        0.299      143.364       29.822        0.043      337.883       10.157      857.270
09/27/2014  22:26:00     -120.636      -46.639        2.515       57.408       35.570       29.459     3295.663     1265.236      867.845        1.108        0.271      129.338       30.591        0.056      337.906       10.195      857.274
09/27/2014  22:27:00     -175.704      -57.717       -3.907       52.053       36.092       27.562     2709.521     1302.618      759.644        1.949        0.239      184.941       28.217        0.023      337.863       10.122      857.281
09/27/2014  22:28:00     -160.483      -84.732       -2.486       52.148       57.063       31.017     2719.432     3256.198      962.058        1.994        0.347      181.478       31.453        0.030      337.856       10.111      857.296
09/27/2014  22:29:00     -134.150     -113.108       -2.538      100.457       68.704       46.213    10091.549     4720.302     2135.616        2.387        0.847      175.470       49.646        0.080      337.872       10.136      857.290
09/27/2014  22:30:00     -162.148      -97.453        2.806       95.713       60.557       42.585     9160.943     3667.129     1813.502        2.522        0.732      189.180       48.199        0.065      337.898       10.179      857.280
09/27/2014  22:31:00     -110.609      -60.559        5.839       67.061       49.300       31.361     4497.245     2430.500      983.511        1.192        0.396      126.102       32.141        0.065      337.931       10.239      857.279
09/27/2014  22:32:00     -188.347      -22.247       -7.719       67.955       58.209       37.804     4617.943     3388.334     1429.120        2.273        0.472      189.656       37.751        0.040      337.897       10.177      857.292
09/27/2014  22:33:00     -145.335      -57.628        1.715       55.347       42.477       26.974     3063.340     1804.277      727.582        1.502        0.280      156.343       20.613        0.017      338.013       10.375      857.287
09/27/2014  22:34:00      -29.011      -11.826       -4.244       37.006       24.170        9.850     1369.452      584.196       97.014        0.152        0.103       31.328        8.783        0.079      338.051       10.438      857.276
09/27/2014  22:35:00      -44.779       10.374       -7.571       39.004       29.424       16.224     1521.314      865.771      263.215        0.241        0.133       45.965        7.134        0.024      338.155       10.613      857.273
09/27/2014  22:36:00     -177.090      -42.424        3.263       85.569       48.223       33.550     7321.971     2325.421     1125.632        2.197        0.539      182.101       39.170        0.046      338.005       10.361      857.279
09/27/2014  22:37:00     -171.020      -51.366       -5.428       45.722       42.531       27.591     2090.519     1808.924      761.278        1.829        0.233      178.568       22.410        0.016      337.902       10.188      857.272
09/27/2014  22:38:00     -121.409      -18.441        2.369       31.235       44.430       22.437      975.618     1974.033      503.403        0.927        0.173      122.802       22.266        0.033      337.890       10.169      857.263
09/27/2014  22:39:00      -95.697      -29.814       -1.943       49.064       33.472       20.068     2407.228     1120.390      402.721        0.699        0.197      100.233       18.670        0.035      337.910       10.204      857.255
09/27/2014  22:40:00     -113.456      -40.926       -7.764       48.053       41.662       18.450     2309.124     1735.681      340.388        0.950        0.219      120.612       19.004        0.025      337.945       10.263      857.265
09/27/2014  22:41:00     -105.416       15.655       -6.658       35.913       26.184       14.264     1289.757      685.582      203.452        0.679        0.109      106.572       13.001        0.015      337.882       10.156      857.279
09/27/2014  22:42:00     -113.855       -4.053       -6.793       30.111       27.422       17.664      906.666      751.952      312.027        0.750        0.099      113.927       17.671        0.024      337.899       10.185      857.297
09/27/2014  22:43:00     -148.881      -20.396      -15.300       29.383       35.201       16.613      863.355     1239.135      275.992        1.260        0.119      150.272       16.280        0.012      337.915       10.210      857.309
09/27/2014  22:44:00     -165.155      -27.686      -21.175       31.922       26.991       20.560     1019.009      728.507      422.733        1.533        0.109      167.460       15.189        0.008      337.906       10.194      857.315
09/27/2014  22:45:00      -71.281      -41.471      -12.240       56.682       27.183       22.258     3212.819      738.939      495.421        0.570        0.222       82.467       25.746        0.097      337.950       10.268      857.325
09/27/2014  22:46:00      -72.226      -53.247        2.570       30.957       24.417       21.492      958.328      596.186      461.924        0.504        0.101       89.732       18.669        0.043      337.954       10.278      857.327
09/27/2014  22:47:00      -30.058      -55.799       -0.881       26.167       18.853       10.058      684.709      355.439      101.160        0.258        0.057       63.380        8.140        0.016      337.977       10.318      857.331
09/27/2014  22:48:00      -63.520      -66.008        3.500       30.488       32.125       16.639      929.511     1031.986      276.853        0.532        0.112       91.607       12.345        0.018      338.038       10.417      857.339
09/27/2014  22:49:00      -63.941      -52.136       -8.260       25.534       27.445       15.951      651.992      753.244      254.432        0.427        0.083       82.502       11.292        0.019      338.003       10.359      857.344
09/27/2014  22:50:00      -33.627       -2.580       -4.498       17.340       32.538        9.784      300.688     1058.711       95.720        0.131        0.073       33.726        8.080        0.057      337.989       10.334      857.345
09/27/2014  22:51:00      -69.891        4.277      -10.014       22.066       17.002       13.358      486.928      289.057      178.425        0.298        0.048       70.021        9.073        0.017      337.965       10.293      857.341
09/27/2014  22:52:00      -51.283      -21.680       -5.979       19.715       18.761       13.584      388.668      351.990      184.518        0.203        0.046       55.678        5.393        0.009      337.970       10.303      857.330
09/27/2014  22:53:00      -25.774      -42.079       10.751       38.938       16.499       18.994     1516.160      272.216      360.766        0.235        0.107       49.345       23.474        0.226      338.075       10.479      857.320
09/27/2014  22:54:00       -9.235      -30.614        9.566       20.956       39.289       16.555      439.156     1543.618      274.058        0.169        0.113       31.977       15.291        0.229      338.117       10.550      857.311
09/27/2014  22:55:00      -90.147      -12.246        1.148       32.189       18.973       16.422     1036.120      359.972      269.682        0.497        0.083       90.975       18.476        0.041      338.039       10.419      857.305
09/27/2014  22:56:00      -39.739      -23.624        0.650       29.107       20.466       12.124      847.223      418.852      146.983        0.178        0.071       46.231       12.840        0.077      338.025       10.396      857.286
09/27/2014  22:57:00      -28.441      -33.705        2.973       24.842       10.828       15.073      617.143      117.250      227.210        0.146        0.048       44.101        8.815        0.040      338.088       10.501      857.270
09/27/2014  22:58:00      -27.304      -17.281        5.984       14.513       11.322       13.996      210.616      128.197      195.877        0.081        0.027       32.313        9.165        0.080      338.110       10.538      857.261
09/27/2014  22:59:00      -20.858      -10.448        2.654       11.981        6.946        6.884      143.543       48.243       47.383        0.040        0.012       23.329        2.331        0.010      338.110       10.542      857.246
09/27/2014  23:00:00       -9.434       -3.697        4.481        6.882        7.948        9.793       47.357       63.163       95.908        0.016        0.010       10.133        6.319        0.389      338.148       10.602      857.232
09/27/2014  23:01:00       -2.887       22.601       31.068        9.619       16.682        9.528       92.521      278.284       90.791        0.097        0.023       22.784        9.865        0.187      338.047       10.434      857.220
09/27/2014  23:02:00       34.815       37.867       29.332       33.510       16.464       19.999     1122.947      271.068      399.977        0.265        0.090       51.440       19.534        0.144      337.975       10.312      857.215
09/27/2014  23:03:00       74.819       35.422       11.694       10.138        9.853       11.102      102.774       97.075      123.252        0.366        0.016       82.781        6.991        0.007      337.946       10.262      857.212
09/27/2014  23:04:00       55.061       38.603        8.915       13.466        8.675       11.292      181.333       75.257      127.505        0.249        0.019       67.245        5.667        0.007      337.983       10.325      857.211
09/27/2014  23:05:00       36.626       33.988       13.252       13.301        9.288       12.922      176.922       86.270      166.966        0.155        0.022       49.967        5.524        0.012      338.051       10.440      857.206
09/27/2014  23:06:00      -18.097       65.368       -6.853       37.303       22.989       12.817     1391.498      528.472      164.286        0.337        0.104       67.827       15.106        0.050      338.005       10.363      857.204
09/27/2014  23:07:00      -30.931       69.156       -6.334       25.049       13.377       16.206      627.457      178.931      262.628        0.342        0.053       75.758        6.564        0.008      338.033       10.410      857.197
09/27/2014  23:08:00       -7.846       36.123       -8.712       16.342       16.652        9.084      267.060      277.288       82.522        0.103        0.031       36.965        6.778        0.034      338.020       10.389      857.190
09/27/2014  23:09:00       -6.265       26.584        4.162       13.834       21.718       12.393      191.382      471.681      153.592        0.079        0.041       27.312        5.878        0.046      338.054       10.444      857.181
09/27/2014  23:10:00      -19.483       -7.601       -3.916       19.515       11.928        9.071      380.851      142.271       82.287        0.053        0.030       20.913        8.849        0.179      338.057       10.451      857.159
09/27/2014  23:11:00       -7.694       -1.107        6.716        9.654       16.190        5.826       93.198      262.107       33.945        0.025        0.019        7.774        4.215        0.294      338.066       10.464      857.142
09/27/2014  23:12:00      -17.205       -7.531        4.640       12.806       19.751        8.813      163.984      390.121       77.668        0.050        0.032       18.781        8.387        0.199      338.037       10.418      857.127
09/27/2014  23:13:00        5.761       34.891       -7.109        6.505        8.868        4.667       42.318       78.644       21.780        0.072        0.007       35.364        3.414        0.009      338.001       10.361      857.128
09/27/2014  23:14:00        9.395       21.388        0.691       16.491       17.972        9.672      271.941      322.996       93.553        0.062        0.034       23.360        9.282        0.158      338.022       10.394      857.129
09/27/2014  23:15:00       69.025       33.550        2.516       13.524       14.670        9.631      182.911      215.207       92.749        0.319        0.025       76.747        5.580        0.005      337.962       10.291      857.131
09/27/2014  23:16:00       68.625       35.910        0.827       12.281       16.548       13.637      150.832      273.850      185.970        0.331        0.031       77.453        4.582        0.003      337.947       10.268      857.135
09/27/2014  23:17:00       57.991       40.050       -2.081       13.479       12.251       11.041      181.690      150.078      121.899        0.271        0.023       70.476        6.774        0.009      337.929       10.238      857.138
09/27/2014  23:18:00       53.843       30.233        1.191       10.895       11.616       14.632      118.702      134.935      214.099        0.214        0.023       61.750        6.796        0.012      337.936       10.248      857.140
09/27/2014  23:19:00       55.287       30.085        4.360       17.403       14.265       15.857      302.867      203.493      251.443        0.237        0.038       62.943        8.998        0.020      337.931       10.240      857.134
09/27/2014  23:20:00       74.638       44.182        8.976       15.218       10.869       13.043      231.590      118.144      170.124        0.406        0.026       86.734        6.821        0.006      337.934       10.241      857.121
09/27/2014  23:21:00       58.794       48.584       14.303       17.521       13.675       11.677      306.970      186.997      136.345        0.333        0.032       76.270        4.016        0.003      337.919       10.217      857.118
09/27/2014  23:22:00       69.970       46.218       26.485       22.451       21.424       17.300      504.028      458.981      299.297        0.450        0.063       83.857       12.682        0.023      337.951       10.273      857.105
09/27/2014  23:23:00       47.632       32.463        3.390       24.081       18.307       14.698      579.908      335.143      216.019        0.223        0.057       57.642       11.259        0.038      337.912       10.205      857.091
09/27/2014  23:24:00       39.910       25.099       15.685       13.594       15.218       13.937      184.800      231.581      194.241        0.154        0.031       47.146        9.059        0.037      337.929       10.236      857.086
09/27/2014  23:25:00       31.392       24.491        6.212       12.664       13.727       14.192      160.380      188.425      201.399        0.109        0.028       39.815        8.879        0.050      337.929       10.237      857.082
09/27/2014  23:26:00       15.325       19.942       -6.734       13.167       15.923        8.567      173.366      253.553       73.387        0.059        0.025       25.150        4.121        0.027      337.909       10.199      857.089
09/27/2014  23:27:00       -3.604       20.380       -2.940       10.247        9.464        4.241      104.999       89.559       17.988        0.032        0.011       20.696        3.500        0.029      337.912       10.207      857.093
09/27/2014  23:28:00       12.595       30.042       -3.876        8.343       12.092        5.940       69.603      146.223       35.289        0.066        0.013       32.576        6.305        0.037      337.945       10.263      857.094
09/27/2014  23:29:00        8.029       23.344        5.681       13.633       12.782        9.810      185.864      163.376       96.244        0.054        0.022       24.686       10.843        0.193      337.946       10.265      857.084
09/27/2014  23:30:00      -17.931       14.863        5.328        9.342        6.759        8.339       87.267       45.681       69.535        0.039        0.010       23.290        3.573        0.024      337.982       10.324      857.069
09/27/2014  23:31:00      -22.723       10.223        3.281        9.581        8.178        6.448       91.804       66.879       41.575        0.042        0.010       24.917        4.733        0.036      338.017       10.381      857.053
09/27/2014  23:32:00      -25.692      -14.316        0.536       14.929        8.162        7.003      222.888       66.619       49.043        0.060        0.017       29.412        4.856        0.027      338.057       10.451      857.029
09/27/2014  23:33:00      -35.188       -8.034       -1.577        6.430        8.894        8.023       41.350       79.107       64.367        0.074        0.009       36.094        4.002        0.012      338.080       10.490      857.015
09/27/2014  23:34:00      -30.486      -29.748       -7.062       15.957        9.624        8.077      254.622       92.622       65.231        0.114        0.021       42.595        4.819        0.013      338.129       10.569      857.012
09/27/2014  23:35:00       -8.360      -34.560      -11.569        8.692       11.716        6.252       75.549      137.260       39.092        0.082        0.013       35.557        4.292        0.015      338.127       10.566      857.017
09/27/2014  23:36:00        0.724        0.842        8.517        9.160       10.626        9.171       83.908      112.922       84.105        0.018        0.014        1.110        8.602       60.022      338.121       10.556      857.016
09/27/2014  23:37:00       17.679       19.020        4.537        7.019        8.972        5.124       49.261       80.493       26.255        0.043        0.008       25.968        3.901        0.023      338.013       10.378      857.017
09/27/2014  23:38:00        4.295       16.164        3.144        5.462        7.733        4.171       29.831       59.793       17.394        0.020        0.005       16.725        2.661        0.025      338.025       10.396      857.029
09/27/2014  23:39:00        8.693        8.690        2.337        7.358        7.062        5.301       54.142       49.869       28.096        0.014        0.007       12.291        2.130        0.030      338.037       10.416      857.032
09/27/2014  23:40:00       -3.256       -0.815        0.259        7.079        6.710        5.791       50.110       45.019       33.530        0.007        0.006        3.356        4.961        2.186      338.107       10.533      857.031
09/27/2014  23:41:00      -52.881      -28.017        1.929       25.578       14.568       11.580      654.217      212.221      134.091        0.229        0.050       59.845       11.174        0.035      338.136       10.581      857.028
09/27/2014  23:42:00       -6.518      -18.543        5.095       20.826       16.464       10.587      433.704      271.050      112.094        0.061        0.041       19.655        7.457        0.144      338.207       10.701      857.017
09/27/2014  23:43:00      -36.150      -41.329       -0.779       29.718       17.109       12.096      883.182      292.711      146.319        0.217        0.066       54.908       12.404        0.051      338.197       10.682      857.008
09/27/2014  23:44:00      -22.487      -29.280        3.158       22.623       17.624       12.089      511.780      310.595      146.146        0.117        0.048       36.918       11.167        0.091      338.216       10.716      856.995
09/27/2014  23:45:00      -24.419      -42.624       -4.522        9.187       13.323        9.297       84.398      177.504       86.442        0.139        0.017       49.123        7.823        0.025      338.120       10.553      856.985
09/27/2014  23:46:00      -28.193      -20.780        0.793        6.964       11.544        5.261       48.491      133.262       27.679        0.072        0.010       35.024        5.317        0.023      338.150       10.605      856.973
09/27/2014  23:47:00      -26.775      -57.135       -6.943       16.760       26.980       13.684      280.912      727.896      187.240        0.261        0.060       63.098       12.107        0.037      338.231       10.741      856.962
09/27/2014  23:48:00      -42.413      -39.853       -7.962       24.242       24.388       12.676      587.677      594.770      160.682        0.240        0.067       58.199        8.757        0.023      338.184       10.663      856.939
09/27/2014  23:49:00      -41.312      -42.901        8.897       38.632       27.344       20.980     1492.407      747.692      440.145        0.315        0.134       59.558       19.387        0.106      338.253       10.780      856.893
09/27/2014  23:50:00      -91.853      -56.824        0.748       53.480       40.369       26.335     2860.082     1629.667      693.544        0.842        0.259      108.009       25.742        0.057      338.204       10.696      856.831
09/27/2014  23:51:00     -105.617      -88.906        5.972       50.331       39.759       27.667     2533.183     1580.738      765.457        1.199        0.244      138.056       25.433        0.034      338.192       10.677      856.761
09/27/2014  23:52:00     -167.041      -83.324       -6.299       46.645       40.386       26.622     2175.733     1631.005      708.722        1.970        0.226      186.670       24.250        0.017      338.170       10.638      856.710
09/27/2014  23:53:00     -153.498      -66.564       -6.880       55.026       47.895       29.571     3027.915     2293.972      874.473        1.712        0.310      167.309       29.174        0.030      338.113       10.542      856.696
09/27/2014  23:54:00     -112.081      -88.968       -7.058       53.079       45.345       33.078     2817.387     2056.143     1094.170        1.325        0.298      143.099       28.222        0.039      338.105       10.530      856.717
09/27/2014  23:55:00     -133.870      -39.404       -4.316       66.229       50.844       32.366     4386.322     2585.138     1047.582        1.375        0.401      139.549       39.073        0.078      338.097       10.518      856.730
09/27/2014  23:56:00      -59.802      -19.107        6.514       33.380       22.016       17.591     1114.202      484.721      309.455        0.295        0.095       62.781       17.652        0.079      338.052       10.441      856.743
09/27/2014  23:57:00     -110.179       10.757       -8.078       40.923       29.507       30.773     1674.659      870.672      946.971        0.791        0.175      110.703       26.207        0.056      338.075       10.479      856.743
09/27/2014  23:58:00     -141.425      -47.957       -4.477       63.916       48.627       28.786     4085.287     2364.548      828.654        1.480        0.364      149.335       37.221        0.062      338.045       10.430      856.742
09/27/2014  23:59:00     -132.457      -43.011       -9.769       41.696       30.850       22.556     1738.572      951.721      508.763        1.134        0.160      139.266       13.402        0.009      338.042       10.423      856.754
